GFSGL_prec_kuchsnow_051.txt.gz
Snowfall_Accumulation
0.0 0.0 0.0 0.0 0.0 0.0 0.0 0.0 0.0 0.0 0.0 0.0 0.0 0.0 0.0 0.0 0.0 0.0 0.0 0.0 0.0 0.0 0.0 0.0 0.0 0.0 0.0 0.0 0.0 0.0 0.0 0.0 0.1 0.0 0.0 0.0 0.0 0.0 0.0 0.0 0.0 0.0 0.0
0.0 0.0 0.0 0.0 0.0 0.0 0.0 0.0 0.0 0.0 0.0 0.0 0.0 0.0 0.0 0.0 0.0 0.0 0.0 0.0 0.0 0.0 0.0 0.0 0.0 0.0 0.0 0.0 0.0 0.0 0.0 0.0 0.0 0.0 0.0 0.0 0.0 0.0 0.0 0.0 0.0 0.0 0.0
0.0 0.0 0.0 0.0 0.0 0.0 0.0 0.0 0.0 0.0 0.0 0.0 0.0 0.0 0.0 0.0 0.0 0.0 0.0 0.0 0.0 0.0 0.0 0.0 0.0 0.0 0.0 0.0 0.0 0.0 0.0 0.0 0.0 0.2 0.1 0.0 0.0 0.0 0.0 0.0 0.0 0.0 0.0
0.0 0.0 0.0 0.0 0.0 0.0 0.0 0.0 0.0 0.0 0.0 0.0 0.0 0.0 0.0 0.0 0.0 0.0 0.0 0.0 0.0 0.0 0.0 0.0 0.0 0.0 0.0 0.0 0.0 0.0 0.0 0.0 0.0 0.1 0.1 0.1 0.0 0.0 0.0 0.1 0.0 0.0 0.0
0.0 0.0 0.0 0.0 0.0 0.0 0.0 0.0 0.0 0.0 0.0 0.0 0.0 0.0 0.0 0.0 0.0 0.0 0.0 0.0 0.0 0.0 0.0 0.0 0.0 0.0 0.0 0.0 0.0 0.0 0.0 0.1 0.3 0.4 0.3 0.2 0.1 0.0 0.1 0.3 0.1 0.0 0.0
0.0 0.0 0.0 0.0 0.0 0.0 0.0 0.0 0.0 0.0 0.0 0.0 0.0 0.0 0.0 0.0 0.0 0.0 0.0 0.0 0.0 0.0 0.0 0.0 0.0 0.0 0.0 0.0 0.0 0.0 0.1 0.5 1.0 0.8 0.6 0.6 0.2 0.3 0.3 0.3 0.3 0.4 0.4
0.0 0.0 0.0 0.0 0.0 0.0 0.0 0.0 0.0 0.0 0.0 0.1 0.0 0.0 0.0 0.0 0.0 0.0 0.0 0.0 0.0 0.0 0.0 0.0 0.0 0.0 0.0 0.0 0.0 0.0 0.0 0.0 0.6 1.4 2.2 1.2 0.7 0.3 0.1 0.4 0.3 0.6 0.6
0.0 0.0 0.0 0.0 0.0 0.0 0.0 0.0 0.0 0.0 0.0 0.0 0.0 0.0 0.0 0.0 0.0 0.0 0.0 0.0 0.0 0.0 0.0 0.0 0.0 0.0 0.0 0.0 0.7 0.8 0.2 0.1 0.1 0.3 0.7 0.3 0.1 0.1 0.2 0.4 1.1 1.1 0.2
0.0 0.0 0.0 0.0 0.0 0.0 0.0 0.0 0.0 0.0 0.0 0.0 0.0 0.0 0.0 0.0 0.0 0.0 0.0 0.0 0.0 0.0 0.0 0.0 0.0 0.0 0.1 0.6 1.4 1.7 0.6 0.1 0.0 0.0 0.1 0.1 0.1 0.1 0.2 1.6 2.5 3.1 2.0
0.0 0.0 0.0 0.0 0.0 0.0 0.0 0.0 0.0 0.0 0.0 0.0 0.0 0.0 0.0 0.0 0.0 0.0 0.0 0.1 0.2 0.1 0.1 0.0 0.0 0.1 1.1 1.3 3.1 2.5 2.4 0.5 0.1 0.1 0.1 0.1 0.1 0.2 0.2 0.7 1.8 4.0 2.0
0.0 0.0 0.0 0.0 0.0 0.0 0.0 0.0 0.0 0.0 0.0 0.0 0.0 0.0 0.0 0.0 0.1 0.0 0.0 0.1 0.7 0.7 0.3 0.2 0.1 2.0 1.7 1.1 1.2 2.3 2.6 0.6 0.4 0.7 0.5 0.3 0.2 0.3 0.3 0.2 0.4 1.9 3.4
0.0 0.0 0.0 0.0 0.0 0.0 0.0 0.0 0.0 0.0 0.0 0.0 0.1 0.1 0.0 0.1 0.0 0.0 0.0 0.0 0.3 1.9 1.2 1.3 2.1 0.6 1.0 0.3 0.9 1.8 0.7 0.6 1.2 1.3 1.4 1.3 1.4 1.0 0.7 0.8 0.9 1.2 0.7
0.0 0.0 0.0 0.0 0.0 0.0 0.0 0.0 0.0 0.0 0.0 0.0 0.0 0.1 0.0 0.0 0.0 0.0 0.0 0.2 0.2 1.2 2.2 2.3 1.3 1.2 0.6 0.6 1.3 1.3 0.7 1.8 2.2 2.2 1.8 1.3 1.4 1.1 1.0 1.2 0.9 0.7 0.8
0.0 0.0 0.0 0.0 0.0 0.0 0.0 0.0 0.0 0.0 0.0 0.0 0.0 0.0 0.0 0.0 0.0 0.1 0.6 0.2 0.4 1.4 1.2 1.6 1.9 1.0 1.0 1.6 1.5 1.2 1.9 2.2 2.1 2.7 2.1 1.4 1.3 1.4 2.2 2.2 3.6 2.2 2.7
0.0 0.0 0.0 0.0 0.0 0.0 0.0 0.0 0.0 0.0 0.0 0.0 0.0 0.2 0.6 0.5 0.2 1.2 1.5 2.0 3.0 2.1 1.5 2.1 1.6 1.4 1.3 1.1 0.6 0.5 0.9 0.7 1.1 1.7 1.9 1.4 1.2 1.3 1.4 1.3 1.7 1.6 3.0
0.0 0.0 0.0 0.0 0.0 0.0 0.0 0.0 0.0 0.0 0.0 0.0 0.0 0.1 0.0 0.3 0.7 0.9 1.3 1.9 2.1 1.4 2.1 2.4 2.1 2.3 2.0 1.4 1.3 0.8 0.4 1.0 0.7 1.2 1.3 1.1 1.0 1.2 1.0 0.3 0.8 1.5 1.9
0.0 0.0 0.0 0.1 0.1 0.0 0.0 0.0 0.0 0.0 0.0 0.0 0.0 0.0 0.0 0.4 0.8 1.2 1.6 1.8 2.0 1.3 2.7 2.1 2.4 2.3 1.6 0.7 0.6 0.7 1.3 1.3 0.6 1.0 1.5 1.4 1.3 1.0 1.2 0.6 1.0 1.2 1.6
0.0 0.0 0.1 0.1 0.1 0.1 0.0 0.0 0.2 0.2 0.1 0.1 0.1 0.0 0.0 0.3 0.7 1.0 1.3 1.6 2.6 1.9 2.1 2.2 2.1 1.7 1.0 0.7 0.4 0.4 0.3 0.4 0.3 0.4 0.8 1.3 1.2 1.3 1.0 1.0 1.1 1.4 1.2
0.0 0.0 0.1 0.0 0.0 0.1 0.1 0.2 0.3 0.3 0.4 0.2 0.0 0.0 0.0 0.1 0.3 1.0 0.9 2.5 2.5 2.2 2.0 2.0 1.7 1.2 1.0 0.9 0.8 0.5 0.6 0.5 0.4 0.4 0.4 0.6 0.9 0.9 0.5 0.5 0.4 0.2 0.2
0.0 0.0 0.2 0.1 0.0 0.1 0.1 0.4 0.6 0.5 0.5 0.5 0.4 0.1 0.0 0.1 0.5 1.1 1.1 1.5 1.9 1.6 1.5 1.5 1.4 1.4 1.2 0.9 0.7 0.4 0.0 0.2 0.2 0.2 0.3 0.3 0.5 0.5 0.8 0.6 0.1 0.3 0.1
0.0 0.1 0.1 0.1 0.1 0.3 0.2 0.5 0.8 1.2 1.0 0.7 0.2 0.5 0.8 1.5 1.9 1.5 1.0 1.3 1.4 1.2 1.3 1.2 1.0 0.6 0.5 0.5 0.4 0.3 0.1 0.1 0.2 0.2 0.3 0.3 0.3 0.2 0.4 0.3 0.1 0.1 0.1
0.2 0.2 0.2 0.4 0.3 0.1 0.3 0.4 0.5 0.9 0.5 0.9 1.3 0.6 2.4 2.8 1.9 1.2 0.8 1.1 0.8 0.9 0.9 1.1 0.9 0.7 0.7 0.9 0.6 0.4 0.3 0.1 0.0 0.1 0.2 0.1 0.2 0.2 0.3 0.2 0.2 0.2 0.2
0.3 0.4 0.3 0.3 0.3 0.2 0.8 0.3 1.7 1.7 1.8 1.4 1.4 2.1 1.4 1.9 1.9 1.6 1.3 0.9 0.5 0.6 0.6 1.8 1.6 1.0 0.5 0.4 0.5 0.6 0.4 0.1 0.2 0.1 0.0 0.0 0.0 0.1 0.1 0.1 0.1 0.1 0.1
0.3 0.4 0.6 0.6 1.0 0.5 1.2 1.2 1.5 3.0 3.9 2.8 1.8 1.5 1.9 2.1 2.1 2.2 1.4 0.4 0.2 0.2 0.6 1.2 1.3 1.2 0.9 0.7 0.5 0.6 0.5 0.3 0.3 0.3 0.2 0.0 0.0 0.0 0.0 0.0 0.1 0.0 0.0
0.8 1.1 1.4 1.2 2.0 2.6 3.2 3.5 2.7 1.3 2.3 2.4 2.0 1.5 1.0 1.2 1.1 1.8 1.5 0.9 0.5 0.9 1.0 0.9 0.5 0.5 0.5 0.8 0.7 0.3 0.1 0.7 0.8 0.7 0.5 0.1 0.0 0.0 0.0 0.0 0.0 0.0 0.0
1.0 1.6 1.5 1.7 1.7 2.8 3.1 2.8 2.1 1.4 1.2 1.4 1.7 1.3 1.3 0.9 0.7 0.8 0.6 0.5 0.5 0.9 0.5 0.5 0.6 0.5 0.4 0.8 0.8 0.8 0.6 1.1 1.1 1.0 0.7 0.3 0.1 0.1 0.0 0.0 0.0 0.0 0.0

GFSGL_prec_kuchsnow_054.txt.gz
Snowfall_Accumulation
0.0 0.0 0.0 0.0 0.0 0.0 0.0 0.0 0.0 0.0 0.0 0.0 0.0 0.0 0.0 0.0 0.0 0.0 0.0 0.0 0.0 0.0 0.0 0.0 0.0 0.0 0.0 0.0 0.0 0.0 0.0 0.0 0.1 0.0 0.0 0.0 0.0 0.0 0.0 0.0 0.0 0.0 0.0
0.0 0.0 0.0 0.0 0.0 0.0 0.0 0.0 0.0 0.0 0.0 0.0 0.0 0.0 0.0 0.0 0.0 0.0 0.0 0.0 0.0 0.0 0.0 0.0 0.0 0.0 0.0 0.0 0.0 0.0 0.0 0.0 0.0 0.0 0.0 0.0 0.0 0.0 0.0 0.0 0.0 0.0 0.0
0.0 0.0 0.0 0.0 0.0 0.0 0.0 0.0 0.0 0.0 0.0 0.0 0.0 0.0 0.0 0.0 0.0 0.0 0.0 0.0 0.0 0.0 0.0 0.0 0.0 0.0 0.0 0.0 0.0 0.0 0.0 0.0 0.0 0.2 0.1 0.0 0.0 0.0 0.0 0.0 0.0 0.0 0.0
0.0 0.0 0.0 0.0 0.0 0.0 0.0 0.0 0.0 0.0 0.0 0.0 0.0 0.0 0.0 0.0 0.0 0.0 0.0 0.0 0.0 0.0 0.0 0.0 0.0 0.0 0.0 0.0 0.0 0.0 0.0 0.0 0.0 0.1 0.1 0.1 0.0 0.0 0.0 0.1 0.0 0.0 0.0
0.0 0.0 0.0 0.0 0.0 0.0 0.0 0.0 0.0 0.0 0.0 0.0 0.0 0.0 0.0 0.0 0.0 0.0 0.0 0.0 0.0 0.0 0.0 0.0 0.0 0.0 0.0 0.0 0.0 0.0 0.0 0.1 0.3 0.4 0.3 0.2 0.1 0.0 0.1 0.3 0.1 0.0 0.0
0.0 0.0 0.0 0.0 0.0 0.0 0.0 0.0 0.0 0.0 0.0 0.0 0.0 0.0 0.0 0.0 0.0 0.0 0.0 0.0 0.0 0.0 0.0 0.0 0.0 0.0 0.0 0.0 0.0 0.0 0.1 0.5 1.0 0.8 0.6 0.6 0.2 0.3 0.3 0.3 0.3 0.4 0.4
0.0 0.0 0.0 0.0 0.0 0.0 0.0 0.0 0.0 0.0 0.0 0.1 0.0 0.0 0.0 0.0 0.0 0.0 0.0 0.0 0.0 0.0 0.0 0.0 0.0 0.0 0.0 0.0 0.0 0.0 0.0 0.0 0.6 1.4 2.2 1.2 0.7 0.3 0.1 0.4 0.3 0.7 0.7
0.0 0.0 0.0 0.0 0.0 0.0 0.0 0.0 0.0 0.0 0.0 0.0 0.0 0.0 0.0 0.0 0.0 0.0 0.0 0.0 0.0 0.0 0.0 0.0 0.0 0.0 0.0 0.0 0.7 0.8 0.2 0.1 0.1 0.3 0.7 0.3 0.1 0.1 0.2 0.4 1.1 1.1 0.2
0.0 0.0 0.0 0.0 0.0 0.0 0.0 0.0 0.0 0.0 0.0 0.0 0.0 0.0 0.0 0.0 0.0 0.0 0.0 0.0 0.0 0.0 0.0 0.0 0.0 0.0 0.1 0.6 1.4 1.7 0.6 0.1 0.0 0.0 0.1 0.1 0.1 0.1 0.2 1.6 2.5 3.1 2.0
0.0 0.0 0.0 0.0 0.0 0.0 0.0 0.0 0.0 0.0 0.0 0.0 0.0 0.0 0.0 0.0 0.0 0.0 0.0 0.1 0.2 0.1 0.1 0.0 0.0 0.1 1.1 1.3 3.1 2.5 2.4 0.5 0.1 0.1 0.1 0.1 0.1 0.2 0.2 0.7 1.8 4.0 2.0
0.0 0.0 0.0 0.0 0.0 0.0 0.0 0.0 0.0 0.0 0.0 0.0 0.0 0.0 0.0 0.0 0.1 0.0 0.0 0.1 0.7 0.7 0.3 0.2 0.1 2.0 1.7 1.1 1.2 2.3 2.6 0.6 0.4 0.7 0.5 0.3 0.2 0.3 0.3 0.2 0.4 1.9 3.4
0.0 0.0 0.0 0.0 0.0 0.0 0.0 0.0 0.0 0.0 0.0 0.0 0.1 0.1 0.0 0.1 0.0 0.0 0.0 0.0 0.3 1.9 1.2 1.3 2.1 0.6 1.0 0.3 0.9 1.8 0.7 0.6 1.2 1.3 1.4 1.3 1.4 1.0 0.7 0.8 0.9 1.2 0.7
0.0 0.0 0.0 0.0 0.0 0.0 0.0 0.0 0.0 0.0 0.0 0.0 0.0 0.1 0.0 0.0 0.0 0.0 0.0 0.2 0.2 1.2 2.2 2.3 1.3 1.2 0.6 0.6 1.3 1.3 0.7 1.8 2.2 2.3 1.8 1.3 1.4 1.1 1.0 1.2 0.9 0.7 0.8
0.0 0.0 0.0 0.0 0.0 0.0 0.0 0.0 0.0 0.0 0.0 0.0 0.0 0.0 0.0 0.0 0.0 0.1 0.6 0.2 0.4 1.4 1.2 1.6 1.9 1.0 1.0 1.6 1.6 1.3 1.9 2.2 2.1 2.8 2.1 1.4 1.3 1.4 2.2 2.2 3.6 2.2 2.7
0.0 0.0 0.0 0.0 0.0 0.0 0.0 0.0 0.0 0.0 0.0 0.0 0.0 0.2 0.6 0.5 0.2 1.2 1.5 2.0 3.0 2.2 1.6 2.1 1.6 1.4 1.6 1.4 0.9 0.7 1.0 0.8 1.3 1.7 1.9 1.4 1.2 1.3 1.4 1.3 1.7 1.6 3.0
0.0 0.0 0.0 0.0 0.0 0.0 0.0 0.0 0.0 0.0 0.0 0.0 0.0 0.1 0.0 0.3 0.7 0.9 1.3 2.1 2.4 2.0 3.6 3.0 2.1 2.3 2.0 1.4 1.5 0.9 0.5 1.0 0.7 1.2 1.3 1.1 1.0 1.2 1.0 0.3 0.8 1.5 1.9
0.0 0.0 0.0 0.1 0.1 0.0 0.0 0.0 0.0 0.0 0.0 0.0 0.0 0.0 0.0 0.4 0.8 1.2 1.6 1.8 2.3 1.8 4.0 2.4 2.4 2.3 1.6 0.7 0.8 0.9 1.3 1.3 0.6 1.0 1.5 1.4 1.3 1.0 1.2 0.6 1.0 1.2 1.6
0.0 0.0 0.1 0.1 0.1 0.1 0.0 0.0 0.2 0.2 0.2 0.1 0.1 0.0 0.0 0.3 0.7 1.0 1.3 1.6 3.2 2.3 2.6 2.5 2.3 1.7 1.0 0.9 0.7 0.8 0.4 0.5 0.4 0.4 0.8 1.3 1.2 1.3 1.0 1.0 1.1 1.4 1.2
0.0 0.0 0.1 0.0 0.0 0.1 0.1 0.2 0.3 0.3 0.5 0.2 0.0 0.0 0.0 0.1 0.3 1.0 0.9 2.5 3.5 2.8 2.2 2.0 1.7 1.2 1.0 0.9 1.2 1.0 0.8 0.6 0.4 0.4 0.4 0.6 0.9 0.9 0.5 0.5 0.4 0.2 0.2
0.0 0.0 0.2 0.1 0.0 0.1 0.1 0.4 0.6 0.5 0.5 0.5 0.4 0.1 0.0 0.1 0.5 1.1 1.1 2.8 2.8 1.8 1.5 1.6 1.5 1.7 1.5 1.2 1.0 0.9 0.5 0.3 0.2 0.2 0.3 0.3 0.5 0.5 0.8 0.6 0.1 0.3 0.1
0.0 0.1 0.1 0.1 0.1 0.3 0.2 0.5 0.9 1.2 1.0 0.7 0.2 0.5 0.8 2.0 2.5 2.6 2.7 2.7 2.3 1.6 1.6 1.4 1.1 0.8 0.7 0.8 0.7 0.8 0.5 0.4 0.2 0.2 0.3 0.3 0.3 0.2 0.4 0.3 0.1 0.1 0.1
0.2 0.2 0.2 0.4 0.3 0.1 0.3 0.4 0.5 0.9 0.5 0.9 1.3 0.6 2.4 2.8 2.7 2.6 2.3 2.3 1.7 1.6 1.4 1.8 2.0 1.6 1.3 1.6 1.4 1.1 0.7 0.4 0.3 0.2 0.2 0.1 0.2 0.2 0.3 0.2 0.2 0.2 0.2
0.3 0.4 0.3 0.3 0.3 0.2 0.8 0.3 1.7 1.7 1.8 1.4 1.4 2.1 1.4 1.9 1.9 1.6 1.3 1.8 1.3 1.1 0.8 2.0 1.9 1.0 0.5 1.1 1.4 1.5 1.0 0.3 0.4 0.5 0.3 0.0 0.0 0.1 0.1 0.1 0.1 0.1 0.1
0.3 0.4 0.6 0.6 1.0 0.5 1.2 1.2 1.5 3.0 3.9 2.8 1.8 1.5 1.9 2.1 2.1 2.2 1.4 0.4 0.2 0.5 0.8 1.2 1.3 1.5 0.9 0.7 1.4 1.6 1.2 0.7 0.9 0.9 0.8 0.4 0.1 0.1 0.0 0.0 0.1 0.0 0.0
0.8 1.1 1.4 1.2 2.0 2.6 3.2 3.5 2.7 1.3 2.3 2.4 2.0 1.5 1.0 1.2 1.1 1.8 1.5 0.9 0.5 1.1 1.2 1.0 0.5 0.5 0.5 0.8 1.0 0.7 0.5 1.2 1.5 1.4 1.4 0.7 0.2 0.1 0.0 0.0 0.0 0.0 0.0
1.0 1.6 1.5 1.7 1.7 2.8 3.1 2.8 2.1 1.4 1.2 1.4 1.7 1.3 1.3 0.9 0.7 0.8 0.6 0.5 0.5 0.9 0.5 0.5 0.6 0.5 0.4 0.8 0.8 1.2 1.0 1.5 1.7 1.7 1.7 1.0 0.5 0.3 0.1 0.0 0.0 0.0 0.0

GFSGL_prec_kuchsnow_057.txt.gz
Snowfall_Accumulation
0.0 0.0 0.0 0.0 0.0 0.0 0.0 0.0 0.0 0.0 0.0 0.0 0.0 0.0 0.0 0.0 0.0 0.0 0.0 0.0 0.0 0.0 0.0 0.0 0.0 0.0 0.0 0.0 0.0 0.0 0.0 0.0 0.1 0.0 0.0 0.0 0.0 0.0 0.0 0.0 0.0 0.0 0.0
0.0 0.0 0.0 0.0 0.0 0.0 0.0 0.0 0.0 0.0 0.0 0.0 0.0 0.0 0.0 0.0 0.0 0.0 0.0 0.0 0.0 0.0 0.0 0.0 0.0 0.0 0.0 0.0 0.0 0.0 0.0 0.0 0.0 0.0 0.0 0.0 0.0 0.0 0.0 0.0 0.0 0.0 0.0
0.0 0.0 0.0 0.0 0.0 0.0 0.0 0.0 0.0 0.0 0.0 0.0 0.0 0.0 0.0 0.0 0.0 0.0 0.0 0.0 0.0 0.0 0.0 0.0 0.0 0.0 0.0 0.0 0.0 0.0 0.0 0.0 0.0 0.2 0.1 0.0 0.0 0.0 0.0 0.0 0.0 0.0 0.0
0.0 0.0 0.0 0.0 0.0 0.0 0.0 0.0 0.0 0.0 0.0 0.0 0.0 0.0 0.0 0.0 0.0 0.0 0.0 0.0 0.0 0.0 0.0 0.0 0.0 0.0 0.0 0.0 0.0 0.0 0.0 0.0 0.0 0.1 0.1 0.1 0.0 0.0 0.0 0.1 0.0 0.0 0.0
0.0 0.0 0.0 0.0 0.0 0.0 0.0 0.0 0.0 0.0 0.0 0.0 0.0 0.0 0.0 0.0 0.0 0.0 0.0 0.0 0.0 0.0 0.0 0.0 0.0 0.0 0.0 0.0 0.0 0.0 0.0 0.1 0.3 0.4 0.3 0.2 0.1 0.0 0.1 0.3 0.1 0.0 0.0
0.0 0.0 0.0 0.0 0.0 0.0 0.0 0.0 0.0 0.0 0.0 0.0 0.0 0.0 0.0 0.0 0.0 0.0 0.0 0.0 0.0 0.0 0.0 0.0 0.0 0.0 0.0 0.0 0.0 0.0 0.1 0.5 1.0 0.8 0.6 0.6 0.2 0.3 0.3 0.3 0.3 0.4 0.4
0.0 0.0 0.0 0.0 0.0 0.0 0.0 0.0 0.0 0.0 0.0 0.1 0.0 0.0 0.0 0.0 0.0 0.0 0.0 0.0 0.0 0.0 0.0 0.0 0.0 0.0 0.0 0.0 0.0 0.0 0.0 0.0 0.6 1.4 2.2 1.2 0.7 0.3 0.1 0.4 0.3 0.7 0.7
0.0 0.0 0.0 0.0 0.0 0.0 0.0 0.0 0.0 0.0 0.0 0.0 0.0 0.0 0.0 0.0 0.0 0.0 0.0 0.0 0.0 0.0 0.0 0.0 0.0 0.0 0.0 0.0 0.7 0.8 0.2 0.1 0.1 0.3 0.7 0.3 0.1 0.1 0.2 0.4 1.1 1.1 0.2
0.0 0.0 0.0 0.0 0.0 0.0 0.0 0.0 0.0 0.0 0.0 0.0 0.0 0.0 0.0 0.0 0.0 0.0 0.0 0.0 0.0 0.0 0.0 0.0 0.0 0.0 0.1 0.6 1.4 1.7 0.6 0.1 0.0 0.0 0.1 0.1 0.1 0.1 0.2 1.6 2.5 3.1 2.0
0.0 0.0 0.0 0.0 0.0 0.0 0.0 0.0 0.0 0.0 0.0 0.0 0.0 0.0 0.0 0.0 0.0 0.0 0.0 0.1 0.2 0.1 0.1 0.0 0.0 0.1 1.1 1.3 3.1 2.5 2.4 0.5 0.1 0.1 0.1 0.1 0.1 0.2 0.2 0.7 1.8 4.0 2.0
0.0 0.0 0.0 0.0 0.0 0.0 0.0 0.0 0.0 0.0 0.0 0.0 0.0 0.0 0.0 0.0 0.1 0.0 0.0 0.1 0.7 0.7 0.3 0.2 0.1 2.0 1.7 1.1 1.2 2.3 2.6 0.6 0.4 0.7 0.5 0.3 0.2 0.3 0.3 0.2 0.4 1.9 3.4
0.0 0.0 0.0 0.0 0.0 0.0 0.0 0.0 0.0 0.0 0.0 0.0 0.1 0.1 0.0 0.1 0.0 0.0 0.0 0.0 0.3 1.9 1.2 1.3 2.1 0.6 1.0 0.3 0.9 1.8 0.7 0.6 1.2 1.3 1.4 1.3 1.4 1.0 0.7 0.8 0.9 1.2 0.7
0.0 0.0 0.0 0.0 0.0 0.0 0.0 0.0 0.0 0.0 0.0 0.0 0.0 0.1 0.0 0.0 0.0 0.0 0.0 0.2 0.2 1.2 2.2 2.3 1.3 1.2 0.6 0.6 1.3 1.3 0.7 2.0 2.3 2.4 1.8 1.3 1.4 1.1 1.0 1.2 0.9 0.7 0.8
0.0 0.0 0.0 0.0 0.0 0.0 0.0 0.0 0.0 0.0 0.0 0.0 0.0 0.0 0.0 0.0 0.0 0.1 0.6 0.2 0.4 1.4 1.2 1.6 1.9 1.1 1.1 1.7 1.7 1.4 2.2 2.3 2.2 2.8 2.1 1.4 1.3 1.4 2.2 2.2 3.6 2.2 2.7
0.0 0.0 0.0 0.0 0.0 0.0 0.0 0.0 0.0 0.0 0.0 0.0 0.0 0.2 0.7 0.5 0.2 1.2 1.5 2.0 3.0 2.2 1.8 2.5 2.0 1.7 1.8 1.7 1.1 0.8 1.2 1.1 1.6 1.8 2.0 1.4 1.2 1.3 1.4 1.3 1.7 1.6 3.0
0.0 0.0 0.0 0.0 0.0 0.0 0.0 0.0 0.0 0.0 0.0 0.0 0.0 0.1 0.0 0.3 0.7 0.9 1.3 2.1 2.4 2.0 4.0 3.9 2.8 2.7 2.4 1.6 1.5 0.9 0.5 1.2 0.8 1.3 1.4 1.2 1.1 1.2 1.0 0.3 0.8 1.5 1.9
0.0 0.0 0.0 0.1 0.1 0.0 0.0 0.0 0.0 0.0 0.0 0.0 0.0 0.0 0.0 0.4 0.8 1.2 1.6 1.8 2.3 1.8 4.3 2.9 2.8 2.6 2.0 1.0 0.9 1.0 1.4 1.3 0.6 1.2 1.6 1.4 1.3 1.0 1.2 0.6 1.0 1.2 1.6
0.0 0.0 0.1 0.1 0.1 0.1 0.0 0.0 0.2 0.2 0.2 0.1 0.1 0.0 0.0 0.3 0.7 1.0 1.3 1.6 3.2 2.4 2.8 2.8 2.6 2.0 1.2 1.0 0.7 0.8 0.6 0.5 0.7 0.6 0.9 1.3 1.3 1.3 1.0 1.0 1.1 1.4 1.2
0.0 0.0 0.1 0.0 0.0 0.1 0.1 0.2 0.3 0.3 0.5 0.2 0.0 0.0 0.0 0.1 0.3 1.0 0.9 2.5 4.0 3.8 3.8 2.0 2.8 1.6 1.1 0.9 1.3 1.2 1.3 1.0 0.6 0.5 0.4 0.7 0.9 0.9 0.5 0.5 0.4 0.2 0.2
0.0 0.0 0.2 0.1 0.0 0.1 0.1 0.4 0.6 0.5 0.5 0.5 0.4 0.1 0.0 0.1 0.5 1.1 1.1 2.8 2.8 1.8 2.2 2.0 1.8 1.9 1.8 1.3 1.1 1.2 0.8 0.6 0.5 0.3 0.4 0.4 0.5 0.5 0.8 0.6 0.1 0.3 0.1
0.0 0.1 0.1 0.1 0.1 0.3 0.2 0.5 0.9 1.2 1.0 0.7 0.2 0.5 0.8 2.0 2.5 2.6 2.7 2.7 2.3 2.0 2.0 1.7 1.4 1.0 1.0 1.2 1.0 1.0 0.8 0.6 0.5 0.3 0.3 0.3 0.3 0.2 0.4 0.3 0.1 0.1 0.1
0.2 0.2 0.2 0.4 0.3 0.1 0.3 0.4 0.5 0.9 0.5 0.9 1.3 0.6 2.4 2.8 2.7 2.6 2.3 2.3 1.7 1.6 2.3 2.6 2.6 2.2 1.8 2.2 2.1 1.9 1.1 0.7 0.6 0.5 0.3 0.2 0.2 0.2 0.3 0.2 0.2 0.2 0.2
0.3 0.4 0.3 0.3 0.3 0.2 0.8 0.3 1.7 1.7 1.8 1.4 1.4 2.1 1.4 1.9 1.9 1.6 1.4 1.8 1.3 1.1 0.8 2.7 2.5 1.4 0.8 1.4 1.8 2.2 1.9 0.9 0.8 1.0 0.8 0.2 0.0 0.1 0.1 0.1 0.1 0.1 0.1
0.3 0.4 0.6 0.6 1.0 0.5 1.2 1.2 1.5 3.0 3.9 2.8 1.8 1.5 1.9 2.1 2.1 2.2 1.4 0.4 0.2 0.5 0.8 1.2 1.6 1.8 1.1 0.8 1.5 1.9 1.9 1.7 2.0 1.6 1.5 1.0 0.4 0.1 0.1 0.1 0.1 0.0 0.0
0.8 1.1 1.4 1.2 2.0 2.6 3.2 3.5 2.7 1.3 2.3 2.4 2.0 1.5 1.0 1.2 1.1 1.8 1.5 0.9 0.5 1.1 1.2 1.0 0.5 0.7 0.6 0.9 1.0 1.0 0.9 1.8 2.5 2.4 2.2 1.3 0.6 0.4 0.3 0.1 0.1 0.0 0.0
1.0 1.6 1.5 1.7 1.7 2.8 3.1 2.8 2.1 1.4 1.2 1.4 1.7 1.3 1.3 0.9 0.7 0.8 0.6 0.5 0.5 0.9 0.5 0.5 0.6 0.6 0.5 0.9 0.8 1.2 1.0 1.5 2.0 2.2 2.4 1.8 1.0 0.7 0.5 0.3 0.1 0.0 0.0

GFSGL_prec_kuchsnow_060.txt.gz
Snowfall_Accumulation
0.0 0.0 0.0 0.0 0.0 0.0 0.0 0.0 0.0 0.0 0.0 0.0 0.0 0.0 0.0 0.0 0.0 0.0 0.0 0.0 0.0 0.0 0.0 0.0 0.0 0.0 0.0 0.0 0.0 0.0 0.0 0.0 0.1 0.0 0.0 0.0 0.0 0.0 0.0 0.0 0.0 0.0 0.0
0.0 0.0 0.0 0.0 0.0 0.0 0.0 0.0 0.0 0.0 0.0 0.0 0.0 0.0 0.0 0.0 0.0 0.0 0.0 0.0 0.0 0.0 0.0 0.0 0.0 0.0 0.0 0.0 0.0 0.0 0.0 0.0 0.0 0.0 0.0 0.0 0.0 0.0 0.0 0.0 0.0 0.0 0.0
0.0 0.0 0.0 0.0 0.0 0.0 0.0 0.0 0.0 0.0 0.0 0.0 0.0 0.0 0.0 0.0 0.0 0.0 0.0 0.0 0.0 0.0 0.0 0.0 0.0 0.0 0.0 0.0 0.0 0.0 0.0 0.0 0.0 0.2 0.1 0.0 0.0 0.0 0.0 0.0 0.0 0.0 0.0
0.0 0.0 0.0 0.0 0.0 0.0 0.0 0.0 0.0 0.0 0.0 0.0 0.0 0.0 0.0 0.0 0.0 0.0 0.0 0.0 0.0 0.0 0.0 0.0 0.0 0.0 0.0 0.0 0.0 0.0 0.0 0.0 0.0 0.1 0.1 0.1 0.0 0.0 0.0 0.1 0.0 0.0 0.0
0.0 0.0 0.0 0.0 0.0 0.0 0.0 0.0 0.0 0.0 0.0 0.0 0.0 0.0 0.0 0.0 0.0 0.0 0.0 0.0 0.0 0.0 0.0 0.0 0.0 0.0 0.0 0.0 0.0 0.0 0.0 0.1 0.3 0.4 0.3 0.2 0.1 0.0 0.1 0.3 0.1 0.0 0.0
0.0 0.0 0.0 0.0 0.0 0.0 0.0 0.0 0.0 0.0 0.0 0.0 0.0 0.0 0.0 0.0 0.0 0.0 0.0 0.0 0.0 0.0 0.0 0.0 0.0 0.0 0.0 0.0 0.0 0.0 0.1 0.5 1.0 0.8 0.6 0.6 0.2 0.3 0.3 0.3 0.3 0.4 0.4
0.0 0.0 0.0 0.0 0.0 0.0 0.0 0.0 0.0 0.0 0.0 0.1 0.0 0.0 0.0 0.0 0.0 0.0 0.0 0.0 0.0 0.0 0.0 0.0 0.0 0.0 0.0 0.0 0.0 0.0 0.0 0.0 0.6 1.4 2.2 1.2 0.7 0.3 0.1 0.4 0.3 0.7 0.7
0.0 0.0 0.0 0.0 0.0 0.0 0.0 0.0 0.0 0.0 0.0 0.0 0.0 0.0 0.0 0.0 0.0 0.0 0.0 0.0 0.0 0.0 0.0 0.0 0.0 0.0 0.0 0.0 0.7 0.8 0.2 0.1 0.1 0.3 0.7 0.3 0.1 0.1 0.2 0.4 1.1 1.1 0.2
0.0 0.0 0.0 0.0 0.0 0.0 0.0 0.0 0.0 0.0 0.0 0.0 0.0 0.0 0.0 0.0 0.0 0.0 0.0 0.0 0.0 0.0 0.0 0.0 0.0 0.0 0.1 0.6 1.4 1.7 0.6 0.1 0.0 0.0 0.1 0.1 0.1 0.1 0.2 1.6 2.5 3.1 2.0
0.0 0.0 0.0 0.0 0.0 0.0 0.0 0.0 0.0 0.0 0.0 0.0 0.0 0.0 0.0 0.0 0.0 0.0 0.0 0.1 0.2 0.1 0.1 0.0 0.0 0.1 1.1 1.3 3.1 2.5 2.4 0.5 0.1 0.1 0.1 0.1 0.1 0.2 0.2 0.7 1.8 4.0 2.0
0.0 0.0 0.0 0.0 0.0 0.0 0.0 0.0 0.0 0.0 0.0 0.0 0.0 0.0 0.0 0.0 0.1 0.0 0.0 0.1 0.7 0.7 0.3 0.2 0.1 2.0 1.7 1.1 1.2 2.3 2.6 0.6 0.4 0.7 0.5 0.3 0.2 0.3 0.3 0.2 0.4 1.9 3.4
0.0 0.0 0.0 0.0 0.0 0.0 0.0 0.0 0.0 0.0 0.0 0.0 0.1 0.1 0.0 0.1 0.0 0.0 0.0 0.0 0.3 1.9 1.2 1.3 2.1 0.6 1.0 0.3 0.9 1.8 0.7 0.6 1.2 1.4 1.5 1.3 1.4 1.0 0.7 0.8 0.9 1.2 0.7
0.0 0.0 0.0 0.0 0.0 0.0 0.0 0.0 0.0 0.0 0.0 0.0 0.0 0.1 0.0 0.0 0.0 0.0 0.0 0.2 0.2 1.2 2.2 2.3 1.3 1.2 0.6 0.6 1.3 1.3 0.8 2.1 2.5 2.6 1.8 1.3 1.4 1.1 1.0 1.2 0.9 0.7 0.8
0.0 0.0 0.0 0.0 0.0 0.0 0.0 0.0 0.0 0.0 0.0 0.0 0.0 0.0 0.0 0.0 0.0 0.1 0.6 0.2 0.4 1.4 1.2 1.6 1.9 1.1 1.1 1.7 1.9 1.8 2.6 2.8 2.5 3.0 2.1 1.4 1.3 1.4 2.2 2.2 3.6 2.2 2.7
0.0 0.0 0.0 0.0 0.0 0.0 0.0 0.0 0.0 0.0 0.0 0.0 0.0 0.2 0.7 0.5 0.2 1.2 1.5 2.0 3.0 2.3 1.8 2.6 2.0 1.7 1.8 1.7 1.2 1.0 1.4 1.2 1.8 1.9 2.1 1.6 1.2 1.3 1.4 1.3 1.8 1.6 3.0
0.0 0.0 0.0 0.0 0.0 0.0 0.0 0.0 0.0 0.0 0.0 0.0 0.0 0.1 0.0 0.3 0.7 0.9 1.3 2.1 2.4 2.0 4.0 4.0 2.9 2.8 2.5 1.6 1.7 1.1 0.6 1.3 0.8 1.4 1.5 1.3 1.2 1.3 1.0 0.4 0.9 1.5 1.9
0.0 0.0 0.0 0.1 0.1 0.0 0.0 0.0 0.0 0.0 0.0 0.0 0.0 0.0 0.0 0.4 0.8 1.2 1.6 1.8 2.3 1.8 4.4 3.0 3.1 3.0 2.2 1.1 1.1 1.2 1.8 1.3 0.6 1.3 1.7 1.5 1.4 1.2 1.4 0.7 1.1 1.2 1.7
0.0 0.0 0.1 0.1 0.1 0.1 0.0 0.0 0.2 0.2 0.2 0.1 0.1 0.0 0.0 0.3 0.7 1.0 1.3 1.6 3.2 2.4 2.8 2.8 3.3 2.9 2.5 2.4 1.2 1.1 0.7 0.6 0.8 0.7 1.0 1.4 1.4 1.5 1.1 1.1 1.2 1.4 1.2
0.0 0.0 0.1 0.0 0.0 0.1 0.1 0.2 0.3 0.3 0.5 0.2 0.0 0.0 0.0 0.1 0.3 1.0 0.9 2.5 4.0 3.8 3.8 2.0 2.8 2.4 2.1 1.7 2.0 1.5 1.4 1.2 0.9 0.9 0.6 0.8 1.1 1.1 0.6 0.6 0.5 0.3 0.2
0.0 0.0 0.2 0.1 0.0 0.1 0.1 0.4 0.6 0.5 0.5 0.5 0.4 0.1 0.0 0.1 0.5 1.1 1.1 2.8 2.9 1.8 2.2 2.2 2.0 1.9 2.2 1.7 1.6 1.7 1.3 0.8 0.6 0.5 0.5 0.6 0.7 0.6 0.9 0.7 0.2 0.4 0.1
0.0 0.1 0.1 0.1 0.1 0.3 0.2 0.5 0.9 1.2 1.0 0.7 0.2 0.5 0.8 2.0 2.5 2.6 2.7 2.7 2.3 2.1 2.1 1.8 1.6 1.3 1.2 1.5 1.3 1.3 1.1 1.0 0.7 0.5 0.5 0.5 0.6 0.3 0.4 0.4 0.2 0.2 0.1
0.2 0.2 0.2 0.4 0.3 0.1 0.3 0.4 0.5 0.9 0.5 0.9 1.3 0.6 2.4 2.8 2.7 2.6 2.3 2.3 1.8 1.6 2.3 2.7 2.7 2.5 2.3 2.7 2.7 2.4 1.6 1.3 1.2 1.1 0.7 0.6 0.5 0.3 0.4 0.3 0.3 0.2 0.2
0.3 0.4 0.3 0.3 0.3 0.2 0.8 0.3 1.7 1.7 1.8 1.4 1.4 2.1 1.4 1.9 1.9 1.6 1.4 1.8 1.3 1.1 0.8 2.7 2.5 1.4 1.1 1.9 2.4 2.7 2.3 1.2 1.3 1.8 1.8 0.8 0.4 0.3 0.2 0.1 0.1 0.1 0.1
0.3 0.4 0.6 0.6 1.0 0.5 1.2 1.2 1.5 3.0 3.9 2.8 1.8 1.5 1.9 2.1 2.1 2.2 1.4 0.4 0.2 0.5 0.8 1.2 1.6 1.8 1.1 0.8 1.9 2.2 2.1 2.0 2.3 2.1 2.5 2.0 0.8 0.4 0.3 0.2 0.1 0.1 0.1
0.8 1.1 1.4 1.2 2.0 2.6 3.2 3.5 2.7 1.3 2.3 2.4 2.0 1.5 1.0 1.2 1.1 1.8 1.5 0.9 0.5 1.1 1.2 1.0 0.5 0.7 0.6 0.9 1.3 1.3 1.1 1.9 2.8 3.2 3.2 2.2 1.1 0.7 0.6 0.4 0.3 0.1 0.0
1.0 1.6 1.5 1.7 1.7 2.8 3.1 2.8 2.1 1.4 1.2 1.4 1.7 1.3 1.3 0.9 0.7 0.8 0.6 0.5 0.5 0.9 0.6 0.5 0.6 0.6 0.5 0.9 0.8 1.5 1.1 1.5 2.2 2.7 3.3 2.7 1.7 1.0 0.8 0.7 0.5 0.2 0.0

GFSGL_prec_kuchsnow_063.txt.gz
Snowfall_Accumulation
0.0 0.0 0.0 0.0 0.0 0.0 0.0 0.0 0.0 0.0 0.0 0.0 0.0 0.0 0.0 0.0 0.0 0.0 0.0 0.0 0.0 0.0 0.0 0.0 0.0 0.0 0.0 0.0 0.0 0.0 0.0 0.0 0.1 0.0 0.0 0.0 0.0 0.0 0.0 0.0 0.0 0.0 0.0
0.0 0.0 0.0 0.0 0.0 0.0 0.0 0.0 0.0 0.0 0.0 0.0 0.0 0.0 0.0 0.0 0.0 0.0 0.0 0.0 0.0 0.0 0.0 0.0 0.0 0.0 0.0 0.0 0.0 0.0 0.0 0.0 0.0 0.0 0.0 0.0 0.0 0.0 0.0 0.0 0.0 0.0 0.0
0.0 0.0 0.0 0.0 0.0 0.0 0.0 0.0 0.0 0.0 0.0 0.0 0.0 0.0 0.0 0.0 0.0 0.0 0.0 0.0 0.0 0.0 0.0 0.0 0.0 0.0 0.0 0.0 0.0 0.0 0.0 0.0 0.0 0.2 0.1 0.0 0.0 0.0 0.0 0.0 0.0 0.0 0.0
0.0 0.0 0.0 0.0 0.0 0.0 0.0 0.0 0.0 0.0 0.0 0.0 0.0 0.0 0.0 0.0 0.0 0.0 0.0 0.0 0.0 0.0 0.0 0.0 0.0 0.0 0.0 0.0 0.0 0.0 0.0 0.0 0.0 0.1 0.1 0.1 0.0 0.0 0.0 0.1 0.0 0.0 0.0
0.0 0.0 0.0 0.0 0.0 0.0 0.0 0.0 0.0 0.0 0.0 0.0 0.0 0.0 0.0 0.0 0.0 0.0 0.0 0.0 0.0 0.0 0.0 0.0 0.0 0.0 0.0 0.0 0.0 0.0 0.0 0.1 0.3 0.4 0.3 0.2 0.1 0.0 0.1 0.3 0.1 0.0 0.0
0.0 0.0 0.0 0.0 0.0 0.0 0.0 0.0 0.0 0.0 0.0 0.0 0.0 0.0 0.0 0.0 0.0 0.0 0.0 0.0 0.0 0.0 0.0 0.0 0.0 0.0 0.0 0.0 0.0 0.0 0.1 0.5 1.0 0.8 0.6 0.6 0.2 0.3 0.3 0.3 0.3 0.4 0.4
0.0 0.0 0.0 0.0 0.0 0.0 0.0 0.0 0.0 0.0 0.0 0.1 0.0 0.0 0.0 0.0 0.0 0.0 0.0 0.0 0.0 0.0 0.0 0.0 0.0 0.0 0.0 0.0 0.0 0.0 0.0 0.0 0.6 1.4 2.2 1.2 0.7 0.3 0.1 0.4 0.3 0.7 0.7
0.0 0.0 0.0 0.0 0.0 0.0 0.0 0.0 0.0 0.0 0.0 0.0 0.0 0.0 0.0 0.0 0.0 0.0 0.0 0.0 0.0 0.0 0.0 0.0 0.0 0.0 0.0 0.0 0.7 0.8 0.2 0.1 0.1 0.3 0.7 0.3 0.1 0.1 0.2 0.4 1.1 1.1 0.2
0.0 0.0 0.0 0.0 0.0 0.0 0.0 0.0 0.0 0.0 0.0 0.0 0.0 0.0 0.0 0.0 0.0 0.0 0.0 0.0 0.0 0.0 0.0 0.0 0.0 0.0 0.1 0.6 1.4 1.7 0.6 0.1 0.0 0.0 0.1 0.1 0.1 0.1 0.2 1.6 2.5 3.1 2.0
0.0 0.0 0.0 0.0 0.0 0.0 0.0 0.0 0.0 0.0 0.0 0.0 0.0 0.0 0.0 0.0 0.0 0.0 0.0 0.1 0.2 0.1 0.1 0.0 0.0 0.1 1.1 1.3 3.1 2.5 2.4 0.5 0.1 0.1 0.1 0.1 0.1 0.2 0.2 0.7 1.8 4.0 2.0
0.0 0.0 0.0 0.0 0.0 0.0 0.0 0.0 0.0 0.0 0.0 0.0 0.0 0.0 0.0 0.0 0.1 0.0 0.0 0.1 0.7 0.7 0.3 0.2 0.1 2.0 1.7 1.1 1.2 2.3 2.6 0.6 0.4 0.7 0.5 0.3 0.2 0.3 0.3 0.2 0.4 1.9 3.4
0.0 0.0 0.0 0.0 0.0 0.0 0.0 0.0 0.0 0.0 0.0 0.0 0.1 0.1 0.0 0.1 0.0 0.0 0.0 0.0 0.3 1.9 1.2 1.3 2.1 0.6 1.0 0.3 0.9 1.8 0.7 0.6 1.3 1.5 1.7 1.3 1.4 1.0 0.7 0.8 0.9 1.2 0.7
0.0 0.0 0.0 0.0 0.0 0.0 0.0 0.0 0.0 0.0 0.0 0.0 0.0 0.1 0.0 0.0 0.0 0.0 0.0 0.2 0.2 1.2 2.2 2.3 1.3 1.2 0.6 0.6 1.3 1.3 0.8 2.1 3.0 3.3 2.3 1.5 1.4 1.1 1.0 1.2 0.9 0.7 0.8
0.0 0.0 0.0 0.0 0.0 0.0 0.0 0.0 0.0 0.0 0.0 0.0 0.0 0.0 0.0 0.0 0.0 0.1 0.6 0.2 0.4 1.4 1.2 1.6 1.9 1.1 1.1 1.7 1.9 1.8 2.6 2.8 2.9 3.4 2.3 1.5 1.3 1.4 2.3 2.2 3.6 2.3 2.7
0.0 0.0 0.0 0.0 0.0 0.0 0.0 0.0 0.0 0.0 0.0 0.0 0.0 0.2 0.7 0.5 0.2 1.2 1.5 2.0 3.0 2.3 1.8 2.6 2.1 1.8 1.9 1.7 1.2 1.0 1.4 1.3 1.8 1.9 2.6 1.9 1.5 1.4 1.6 1.3 1.8 1.7 3.1
0.0 0.0 0.0 0.0 0.0 0.0 0.0 0.0 0.0 0.0 0.0 0.0 0.0 0.1 0.0 0.3 0.7 0.9 1.3 2.1 2.4 2.0 4.0 4.0 3.1 3.0 2.7 1.8 1.8 1.3 0.7 1.3 0.8 1.6 1.7 1.4 1.3 1.4 1.2 0.5 1.0 1.7 2.0
0.0 0.0 0.0 0.1 0.1 0.0 0.0 0.0 0.0 0.0 0.0 0.0 0.0 0.0 0.0 0.4 0.8 1.2 1.6 1.8 2.3 1.8 4.4 3.0 3.2 3.1 2.4 1.4 1.5 1.9 2.5 1.5 0.8 1.5 1.7 1.5 1.5 1.3 1.5 0.9 1.3 1.3 1.7
0.0 0.0 0.1 0.1 0.1 0.1 0.0 0.0 0.2 0.2 0.2 0.1 0.1 0.0 0.0 0.3 0.7 1.0 1.3 1.6 3.2 2.4 2.8 2.8 3.3 3.0 2.7 2.8 2.3 2.7 2.1 1.5 1.1 0.9 1.0 1.6 1.6 1.6 1.4 1.4 1.3 1.6 1.3
0.0 0.0 0.1 0.0 0.0 0.1 0.1 0.2 0.3 0.3 0.5 0.2 0.0 0.0 0.0 0.1 0.3 1.0 0.9 2.5 4.0 3.8 3.8 2.0 2.8 2.4 2.1 1.9 2.4 2.2 2.2 1.9 1.4 1.1 0.8 1.0 1.4 1.3 0.9 0.8 0.6 0.3 0.2
0.0 0.0 0.2 0.1 0.0 0.1 0.1 0.4 0.6 0.5 0.5 0.5 0.4 0.1 0.0 0.1 0.5 1.1 1.1 2.8 2.9 1.8 2.2 2.2 2.0 1.9 2.3 1.9 1.8 2.0 1.7 1.5 1.5 1.2 0.8 0.8 0.9 0.9 1.2 0.9 0.4 0.5 0.1
0.0 0.1 0.1 0.1 0.1 0.3 0.2 0.5 0.9 1.2 1.0 0.7 0.2 0.5 0.8 2.0 2.5 2.6 2.7 2.7 2.3 2.1 2.1 1.9 1.6 1.3 1.3 1.6 1.5 1.6 1.6 1.4 1.2 1.1 1.1 1.0 0.9 0.8 0.7 0.6 0.3 0.3 0.2
0.2 0.2 0.2 0.4 0.3 0.1 0.3 0.4 0.5 0.9 0.5 0.9 1.3 0.6 2.4 2.8 2.7 2.6 2.3 2.3 1.8 1.7 2.3 2.7 2.8 2.6 2.3 2.9 2.9 2.7 2.0 1.8 1.8 1.7 1.2 1.1 1.3 1.0 0.9 0.5 0.5 0.4 0.2
0.3 0.4 0.3 0.3 0.3 0.2 0.8 0.3 1.7 1.7 1.8 1.4 1.4 2.1 1.4 1.9 1.9 1.6 1.4 1.8 1.3 1.1 0.8 2.7 2.5 1.5 1.1 2.0 2.6 3.1 2.8 1.8 1.9 2.3 2.2 1.3 1.1 1.3 0.8 0.5 0.3 0.3 0.2
0.3 0.4 0.6 0.6 1.0 0.5 1.2 1.2 1.5 3.0 3.9 2.8 1.8 1.5 2.0 2.2 2.1 2.2 1.4 0.5 0.3 0.5 0.8 1.3 1.7 1.9 1.1 0.8 2.0 2.4 2.4 2.4 2.7 2.4 3.0 2.5 1.4 1.3 1.4 0.7 0.4 0.2 0.1
0.8 1.1 1.4 1.2 2.0 2.6 3.2 3.5 2.7 1.3 2.3 2.4 2.0 1.6 1.0 1.3 1.1 1.8 1.5 1.0 0.6 1.1 1.3 1.0 0.6 0.8 0.7 0.9 1.4 1.4 1.1 2.3 3.2 3.5 3.5 2.6 1.7 0.7 1.6 1.2 0.7 0.3 0.2
1.0 1.6 1.5 1.7 1.7 2.9 3.2 2.8 2.2 1.5 1.3 1.4 1.8 1.3 1.3 0.9 0.7 0.8 0.6 0.5 0.5 0.9 0.6 0.5 0.7 0.6 0.6 0.9 0.8 1.5 1.3 1.5 2.5 3.0 3.6 3.0 2.3 1.8 1.7 1.4 1.0 0.5 0.2

GFSGL_prec_kuchsnow_066.txt.gz
Snowfall_Accumulation
0.0 0.0 0.0 0.0 0.0 0.0 0.0 0.0 0.0 0.0 0.0 0.0 0.0 0.0 0.0 0.0 0.0 0.0 0.0 0.0 0.0 0.0 0.0 0.0 0.0 0.0 0.0 0.0 0.0 0.0 0.0 0.0 0.1 0.0 0.0 0.0 0.0 0.0 0.0 0.0 0.0 0.0 0.0
0.0 0.0 0.0 0.0 0.0 0.0 0.0 0.0 0.0 0.0 0.0 0.0 0.0 0.0 0.0 0.0 0.0 0.0 0.0 0.0 0.0 0.0 0.0 0.0 0.0 0.0 0.0 0.0 0.0 0.0 0.0 0.0 0.0 0.0 0.0 0.0 0.0 0.0 0.0 0.0 0.0 0.0 0.0
0.0 0.0 0.0 0.0 0.0 0.0 0.0 0.0 0.0 0.0 0.0 0.0 0.0 0.0 0.0 0.0 0.0 0.0 0.0 0.0 0.0 0.0 0.0 0.0 0.0 0.0 0.0 0.0 0.0 0.0 0.0 0.0 0.0 0.2 0.1 0.0 0.0 0.0 0.0 0.0 0.0 0.0 0.0
0.0 0.0 0.0 0.0 0.0 0.0 0.0 0.0 0.0 0.0 0.0 0.0 0.0 0.0 0.0 0.0 0.0 0.0 0.0 0.0 0.0 0.0 0.0 0.0 0.0 0.0 0.0 0.0 0.0 0.0 0.0 0.0 0.0 0.1 0.1 0.1 0.0 0.0 0.0 0.1 0.0 0.0 0.0
0.0 0.0 0.0 0.0 0.0 0.0 0.0 0.0 0.0 0.0 0.0 0.0 0.0 0.0 0.0 0.0 0.0 0.0 0.0 0.0 0.0 0.0 0.0 0.0 0.0 0.0 0.0 0.0 0.0 0.0 0.0 0.1 0.3 0.4 0.3 0.2 0.1 0.0 0.1 0.3 0.1 0.0 0.0
0.0 0.0 0.0 0.0 0.0 0.0 0.0 0.0 0.0 0.0 0.0 0.0 0.0 0.0 0.0 0.0 0.0 0.0 0.0 0.0 0.0 0.0 0.0 0.0 0.0 0.0 0.0 0.0 0.0 0.0 0.1 0.5 1.0 0.8 0.6 0.6 0.2 0.3 0.3 0.3 0.3 0.4 0.4
0.0 0.0 0.0 0.0 0.0 0.0 0.0 0.0 0.0 0.0 0.0 0.1 0.0 0.0 0.0 0.0 0.0 0.0 0.0 0.0 0.0 0.0 0.0 0.0 0.0 0.0 0.0 0.0 0.0 0.0 0.0 0.0 0.6 1.4 2.2 1.2 0.7 0.3 0.1 0.4 0.3 0.7 0.7
0.0 0.0 0.0 0.0 0.0 0.0 0.0 0.0 0.0 0.0 0.0 0.0 0.0 0.0 0.0 0.0 0.0 0.0 0.0 0.0 0.0 0.0 0.0 0.0 0.0 0.0 0.0 0.0 0.7 0.8 0.2 0.1 0.1 0.3 0.7 0.3 0.1 0.1 0.2 0.4 1.1 1.1 0.2
0.0 0.0 0.0 0.0 0.0 0.0 0.0 0.0 0.0 0.0 0.0 0.0 0.0 0.0 0.0 0.0 0.0 0.0 0.0 0.0 0.0 0.0 0.0 0.0 0.0 0.0 0.1 0.6 1.4 1.7 0.6 0.1 0.0 0.0 0.1 0.1 0.1 0.1 0.2 1.6 2.5 3.1 2.0
0.0 0.0 0.0 0.0 0.0 0.0 0.0 0.0 0.0 0.0 0.0 0.0 0.0 0.0 0.0 0.0 0.0 0.0 0.0 0.1 0.2 0.1 0.1 0.0 0.0 0.1 1.1 1.3 3.1 2.5 2.4 0.5 0.1 0.1 0.1 0.1 0.1 0.2 0.2 0.7 1.8 4.0 2.0
0.0 0.0 0.0 0.0 0.0 0.0 0.0 0.0 0.0 0.0 0.0 0.0 0.0 0.0 0.0 0.0 0.1 0.0 0.0 0.1 0.7 0.7 0.3 0.2 0.1 2.0 1.7 1.1 1.2 2.3 2.6 0.6 0.4 0.7 0.5 0.3 0.2 0.3 0.3 0.2 0.4 1.9 3.4
0.0 0.0 0.0 0.0 0.0 0.0 0.0 0.0 0.0 0.0 0.0 0.0 0.1 0.1 0.0 0.1 0.0 0.0 0.0 0.0 0.3 1.9 1.2 1.3 2.1 0.6 1.0 0.3 0.9 1.8 0.7 0.6 1.3 1.5 1.8 1.3 1.6 1.3 0.8 0.8 0.9 1.2 0.7
0.0 0.0 0.0 0.0 0.0 0.0 0.0 0.0 0.0 0.0 0.0 0.0 0.0 0.1 0.0 0.0 0.0 0.0 0.0 0.2 0.2 1.2 2.2 2.3 1.3 1.2 0.6 0.6 1.3 1.3 0.8 2.1 3.0 3.3 2.5 1.5 1.4 1.2 1.0 1.3 1.0 0.7 0.8
0.0 0.0 0.0 0.0 0.0 0.0 0.0 0.0 0.0 0.0 0.0 0.0 0.0 0.0 0.0 0.0 0.0 0.1 0.6 0.2 0.4 1.4 1.2 1.6 1.9 1.1 1.1 1.7 1.9 1.8 2.6 2.8 3.0 3.4 2.3 1.5 1.3 1.7 2.7 2.5 3.7 2.3 2.7
0.0 0.0 0.0 0.0 0.0 0.0 0.0 0.0 0.0 0.0 0.0 0.0 0.0 0.2 0.7 0.5 0.2 1.2 1.5 2.0 3.0 2.3 1.8 2.6 2.1 1.8 1.9 1.7 1.2 1.0 1.4 1.3 1.8 2.0 2.6 1.9 1.5 2.4 2.4 1.7 2.0 1.7 3.3
0.0 0.0 0.0 0.0 0.0 0.0 0.0 0.0 0.0 0.0 0.0 0.0 0.0 0.1 0.0 0.3 0.7 0.9 1.3 2.1 2.4 2.0 4.0 4.0 3.1 3.0 2.7 1.8 1.8 1.3 0.7 1.3 1.0 1.8 1.9 1.4 1.8 2.1 1.5 0.5 1.1 1.8 2.1
0.0 0.0 0.0 0.1 0.1 0.0 0.0 0.0 0.0 0.0 0.0 0.0 0.0 0.0 0.0 0.4 0.8 1.2 1.6 1.8 2.3 1.8 4.4 3.0 3.2 3.1 2.4 1.4 1.5 1.9 2.5 1.5 2.4 2.7 2.6 2.3 2.0 1.5 1.6 0.9 1.3 1.5 1.8
0.0 0.0 0.1 0.1 0.1 0.1 0.0 0.0 0.2 0.2 0.2 0.1 0.1 0.0 0.0 0.3 0.7 1.0 1.3 1.6 3.2 2.4 2.8 2.8 3.3 3.0 2.7 2.8 2.3 2.7 2.3 1.5 1.1 2.3 2.1 1.9 1.6 1.6 1.6 1.5 1.6 1.9 1.6
0.0 0.0 0.1 0.0 0.0 0.1 0.1 0.2 0.3 0.3 0.5 0.2 0.0 0.0 0.0 0.1 0.3 1.0 0.9 2.5 4.0 3.8 3.8 2.0 2.8 2.4 2.1 1.9 2.4 2.2 2.2 2.2 1.4 2.1 1.6 1.5 1.7 1.5 0.9 0.9 0.8 0.5 0.4
0.2 0.0 0.3 0.2 0.1 0.1 0.1 0.4 0.6 0.5 0.5 0.5 0.4 0.1 0.0 0.1 0.5 1.1 1.1 2.8 2.9 1.8 2.2 2.2 2.0 1.9 2.3 1.9 1.8 2.0 1.7 1.5 1.5 2.1 2.2 1.9 1.8 1.4 1.5 0.9 0.7 0.8 0.2
0.5 0.5 0.4 0.1 0.1 0.3 0.2 0.5 0.9 1.2 1.0 0.7 0.2 0.5 0.8 2.0 2.5 2.6 2.7 2.7 2.3 2.1 2.1 1.9 1.6 1.3 1.3 1.6 1.5 1.6 1.6 1.5 1.2 1.1 1.7 1.6 1.7 1.6 0.7 1.2 0.8 0.6 0.4
0.3 0.2 0.2 0.4 0.3 0.1 0.3 0.4 0.5 0.9 0.5 0.9 1.3 0.6 2.4 2.8 2.7 2.6 2.3 2.3 1.8 1.7 2.3 2.7 2.8 2.6 2.3 3.0 2.9 2.7 2.2 1.8 2.1 2.2 1.5 1.3 1.6 1.2 1.5 1.7 1.2 0.9 0.4
0.4 0.4 0.3 0.3 0.3 0.2 0.8 0.3 1.7 1.7 1.8 1.4 1.4 2.1 1.4 1.9 1.9 1.6 1.4 1.8 1.3 1.1 0.8 2.7 2.5 1.5 1.1 2.0 2.6 3.2 3.0 2.0 1.9 2.3 2.7 1.6 1.4 1.6 1.6 1.9 1.5 0.9 0.5
0.3 0.4 0.6 0.6 1.0 0.5 1.2 1.2 1.5 3.0 3.9 2.8 1.8 1.5 2.0 2.2 2.1 2.2 1.4 0.5 0.3 0.5 0.8 1.3 1.8 1.9 1.1 0.8 2.1 2.4 2.4 2.4 2.7 2.4 3.6 2.9 1.6 1.5 1.9 1.9 1.7 0.9 0.5
0.8 1.1 1.4 1.2 2.0 2.6 3.2 3.5 2.7 1.3 2.3 2.4 2.0 1.6 1.0 1.3 1.1 1.8 1.5 1.0 0.6 1.1 1.3 1.0 0.6 0.8 0.7 0.9 1.4 1.4 1.1 2.5 3.5 3.5 3.5 2.6 1.9 0.8 1.9 1.9 1.9 1.6 0.7
1.0 1.6 1.5 1.7 1.7 2.9 3.2 2.8 2.2 1.5 1.3 1.4 1.8 1.3 1.3 0.9 0.7 0.8 0.6 0.5 0.5 1.0 0.6 0.5 0.7 0.6 0.6 0.9 0.8 1.5 1.3 1.5 2.5 3.0 3.6 3.4 2.6 1.9 2.0 2.1 2.2 2.1 0.8

GFSGL_prec_kuchsnow_069.txt.gz
Snowfall_Accumulation
0.0 0.0 0.0 0.0 0.0 0.0 0.0 0.0 0.0 0.0 0.0 0.0 0.0 0.0 0.0 0.0 0.0 0.0 0.0 0.0 0.0 0.0 0.0 0.0 0.0 0.0 0.0 0.0 0.0 0.0 0.0 0.0 0.1 0.0 0.0 0.0 0.0 0.0 0.0 0.0 0.0 0.0 0.0
0.0 0.0 0.0 0.0 0.0 0.0 0.0 0.0 0.0 0.0 0.0 0.0 0.0 0.0 0.0 0.0 0.0 0.0 0.0 0.0 0.0 0.0 0.0 0.0 0.0 0.0 0.0 0.0 0.0 0.0 0.0 0.0 0.0 0.0 0.0 0.0 0.0 0.0 0.0 0.0 0.0 0.0 0.0
0.0 0.0 0.0 0.0 0.0 0.0 0.0 0.0 0.0 0.0 0.0 0.0 0.0 0.0 0.0 0.0 0.0 0.0 0.0 0.0 0.0 0.0 0.0 0.0 0.0 0.0 0.0 0.0 0.0 0.0 0.0 0.0 0.0 0.2 0.1 0.0 0.0 0.0 0.0 0.0 0.0 0.0 0.0
0.0 0.0 0.0 0.0 0.0 0.0 0.0 0.0 0.0 0.0 0.0 0.0 0.0 0.0 0.0 0.0 0.0 0.0 0.0 0.0 0.0 0.0 0.0 0.0 0.0 0.0 0.0 0.0 0.0 0.0 0.0 0.0 0.0 0.1 0.1 0.1 0.0 0.0 0.0 0.1 0.0 0.0 0.0
0.0 0.0 0.0 0.0 0.0 0.0 0.0 0.0 0.0 0.0 0.0 0.0 0.0 0.0 0.0 0.0 0.0 0.0 0.0 0.0 0.0 0.0 0.0 0.0 0.0 0.0 0.0 0.0 0.0 0.0 0.0 0.1 0.3 0.4 0.3 0.2 0.1 0.0 0.1 0.3 0.1 0.0 0.0
0.0 0.0 0.0 0.0 0.0 0.0 0.0 0.0 0.0 0.0 0.0 0.0 0.0 0.0 0.0 0.0 0.0 0.0 0.0 0.0 0.0 0.0 0.0 0.0 0.0 0.0 0.0 0.0 0.0 0.0 0.1 0.5 1.0 0.8 0.6 0.6 0.2 0.3 0.3 0.3 0.3 0.4 0.5
0.0 0.0 0.0 0.0 0.0 0.0 0.0 0.0 0.0 0.0 0.0 0.1 0.0 0.0 0.0 0.0 0.0 0.0 0.0 0.0 0.0 0.0 0.0 0.0 0.0 0.0 0.0 0.0 0.0 0.0 0.0 0.0 0.6 1.4 2.2 1.2 0.7 0.3 0.1 0.4 0.3 0.8 0.8
0.0 0.0 0.0 0.0 0.0 0.0 0.0 0.0 0.0 0.0 0.0 0.0 0.0 0.0 0.0 0.0 0.0 0.0 0.0 0.0 0.0 0.0 0.0 0.0 0.0 0.0 0.0 0.0 0.7 0.8 0.2 0.1 0.1 0.3 0.7 0.3 0.1 0.1 0.2 0.4 1.1 1.2 0.2
0.0 0.0 0.0 0.0 0.0 0.0 0.0 0.0 0.0 0.0 0.0 0.0 0.0 0.0 0.0 0.0 0.0 0.0 0.0 0.0 0.0 0.0 0.0 0.0 0.0 0.0 0.1 0.6 1.4 1.7 0.6 0.1 0.0 0.0 0.1 0.1 0.1 0.1 0.2 1.7 2.7 3.4 2.3
0.0 0.0 0.0 0.0 0.0 0.0 0.0 0.0 0.0 0.0 0.0 0.0 0.0 0.0 0.0 0.0 0.0 0.0 0.0 0.1 0.2 0.1 0.1 0.0 0.0 0.1 1.1 1.3 3.1 2.5 2.4 0.5 0.1 0.1 0.1 0.1 0.1 0.2 0.2 0.7 1.9 4.6 2.4
0.0 0.0 0.0 0.0 0.0 0.0 0.0 0.0 0.0 0.0 0.0 0.0 0.0 0.0 0.0 0.0 0.1 0.0 0.0 0.1 0.7 0.7 0.3 0.2 0.1 2.0 1.7 1.1 1.2 2.3 2.6 0.6 0.4 0.7 0.5 0.3 0.2 0.3 0.3 0.3 0.5 2.1 3.7
0.0 0.0 0.0 0.0 0.0 0.0 0.0 0.0 0.0 0.0 0.0 0.0 0.1 0.1 0.0 0.1 0.0 0.0 0.0 0.0 0.3 1.9 1.2 1.3 2.1 0.6 1.0 0.3 0.9 1.8 0.7 0.6 1.3 1.5 1.8 1.3 1.6 1.3 0.8 0.8 0.9 1.2 0.7
0.0 0.0 0.0 0.0 0.0 0.0 0.0 0.0 0.0 0.0 0.0 0.0 0.0 0.1 0.0 0.0 0.0 0.0 0.0 0.2 0.2 1.2 2.2 2.3 1.3 1.2 0.6 0.6 1.3 1.3 0.8 2.1 3.0 3.3 2.5 1.5 1.4 1.2 1.0 1.4 1.1 0.9 0.9
0.0 0.0 0.0 0.0 0.0 0.0 0.0 0.0 0.0 0.0 0.0 0.0 0.0 0.0 0.0 0.0 0.0 0.1 0.6 0.2 0.4 1.4 1.2 1.6 1.9 1.1 1.1 1.7 1.9 1.8 2.6 2.8 3.0 3.4 2.6 1.5 1.3 1.7 2.9 2.5 4.5 3.1 3.4
0.0 0.0 0.0 0.0 0.0 0.0 0.0 0.0 0.0 0.0 0.0 0.0 0.0 0.2 0.7 0.5 0.2 1.2 1.5 2.0 3.0 2.3 1.8 2.6 2.1 1.8 1.9 1.7 1.2 1.0 1.4 1.3 1.8 2.0 2.6 2.1 1.5 2.5 2.6 2.1 2.8 2.7 3.8
0.0 0.0 0.0 0.0 0.0 0.0 0.0 0.0 0.0 0.0 0.0 0.0 0.0 0.1 0.0 0.3 0.7 0.9 1.3 2.1 2.4 2.0 4.0 4.0 3.1 3.0 2.7 1.8 1.8 1.3 0.7 1.3 1.0 1.8 1.9 1.4 2.3 3.0 3.0 2.0 2.5 2.7 2.3
0.0 0.0 0.0 0.1 0.1 0.0 0.0 0.0 0.0 0.0 0.0 0.0 0.0 0.0 0.0 0.4 0.8 1.2 1.6 1.8 2.3 1.8 4.4 3.0 3.2 3.1 2.4 1.4 1.5 1.9 2.5 1.5 2.4 2.7 2.6 3.7 3.7 3.8 3.2 1.3 1.3 1.5 1.8
0.0 0.0 0.1 0.1 0.1 0.1 0.0 0.0 0.2 0.2 0.2 0.1 0.1 0.0 0.0 0.3 0.7 1.0 1.3 1.6 3.2 2.4 2.8 2.8 3.3 3.0 2.7 2.8 2.3 2.7 2.3 1.5 1.1 2.3 2.1 1.9 2.6 2.5 2.6 2.1 1.8 1.9 1.6
0.0 0.0 0.1 0.1 0.1 0.1 0.4 0.4 0.3 0.3 0.5 0.2 0.0 0.0 0.0 0.1 0.3 1.0 0.9 2.5 4.0 3.8 3.8 2.0 2.8 2.4 2.1 1.9 2.4 2.2 2.2 2.2 1.4 2.1 1.6 1.5 2.3 2.7 1.7 1.5 1.1 0.6 0.4
0.5 0.5 0.9 0.7 0.7 0.5 0.2 0.5 0.6 0.5 0.5 0.5 0.4 0.1 0.0 0.1 0.5 1.1 1.1 2.8 2.9 1.8 2.2 2.2 2.0 1.9 2.3 1.9 1.8 2.0 1.7 1.5 1.5 2.1 2.2 2.5 1.8 2.4 2.7 2.0 1.7 1.5 0.4
2.6 2.0 1.4 0.7 0.4 0.4 0.3 0.6 0.9 1.2 1.0 0.7 0.2 0.5 0.8 2.0 2.5 2.6 2.7 2.7 2.3 2.1 2.1 1.9 1.6 1.3 1.3 1.6 1.5 1.7 1.6 1.5 1.2 1.1 1.8 1.6 1.7 2.7 1.5 1.9 1.5 1.2 0.7
1.9 1.2 0.7 0.7 0.4 0.2 0.4 0.4 0.5 0.9 0.5 0.9 1.3 0.6 2.4 2.8 2.7 2.6 2.3 2.3 1.8 1.7 2.3 2.7 2.8 2.6 2.3 3.0 2.9 2.7 2.2 1.9 2.1 2.2 1.6 1.3 1.6 1.8 2.1 1.9 1.7 1.8 1.3
0.7 0.5 0.4 0.4 0.3 0.2 0.8 0.3 1.7 1.7 1.8 1.4 1.4 2.1 1.4 1.9 1.9 1.6 1.4 1.8 1.3 1.1 0.8 2.7 2.5 1.5 1.1 2.0 2.6 3.3 3.2 2.0 1.9 2.3 2.7 1.8 1.7 1.6 2.0 2.3 2.0 2.3 2.0
0.3 0.4 0.6 0.6 1.0 0.5 1.2 1.2 1.5 3.0 3.9 2.8 1.8 1.5 2.0 2.2 2.1 2.2 1.4 0.5 0.3 0.5 0.8 1.3 1.8 1.9 1.1 0.8 2.1 2.4 2.4 2.4 2.8 2.6 3.9 2.9 1.6 1.5 2.4 2.2 2.1 1.9 1.8
0.8 1.1 1.4 1.2 2.0 2.6 3.2 3.5 2.7 1.3 2.3 2.4 2.0 1.6 1.0 1.3 1.1 1.8 1.5 1.0 0.6 1.1 1.3 1.0 0.6 0.8 0.7 0.9 1.4 1.4 1.1 2.5 3.6 3.5 3.5 2.6 2.0 0.8 2.3 2.4 2.3 2.3 1.8
1.0 1.6 1.5 1.7 1.7 2.9 3.2 2.8 2.2 1.5 1.3 1.4 1.8 1.3 1.3 0.9 0.7 0.8 0.6 0.5 0.5 1.0 0.6 0.5 0.7 0.6 0.6 0.9 0.8 1.5 1.3 1.5 2.5 3.1 3.7 3.5 2.7 1.9 2.4 2.5 2.6 2.7 1.6

GFSGL_prec_kuchsnow_072.txt.gz
Snowfall_Accumulation
0.0 0.0 0.0 0.0 0.0 0.0 0.0 0.0 0.0 0.0 0.0 0.0 0.0 0.0 0.0 0.0 0.0 0.0 0.0 0.0 0.0 0.0 0.0 0.0 0.0 0.0 0.0 0.0 0.0 0.0 0.0 0.0 0.1 0.0 0.0 0.0 0.0 0.0 0.0 0.0 0.0 0.0 0.0
0.0 0.0 0.0 0.0 0.0 0.0 0.0 0.0 0.0 0.0 0.0 0.0 0.0 0.0 0.0 0.0 0.0 0.0 0.0 0.0 0.0 0.0 0.0 0.0 0.0 0.0 0.0 0.0 0.0 0.0 0.0 0.0 0.0 0.0 0.0 0.0 0.0 0.0 0.0 0.0 0.0 0.0 0.0
0.0 0.0 0.0 0.0 0.0 0.0 0.0 0.0 0.0 0.0 0.0 0.0 0.0 0.0 0.0 0.0 0.0 0.0 0.0 0.0 0.0 0.0 0.0 0.0 0.0 0.0 0.0 0.0 0.0 0.0 0.0 0.0 0.0 0.2 0.1 0.0 0.0 0.0 0.0 0.0 0.0 0.0 0.0
0.0 0.0 0.0 0.0 0.0 0.0 0.0 0.0 0.0 0.0 0.0 0.0 0.0 0.0 0.0 0.0 0.0 0.0 0.0 0.0 0.0 0.0 0.0 0.0 0.0 0.0 0.0 0.0 0.0 0.0 0.0 0.0 0.0 0.1 0.1 0.1 0.0 0.0 0.0 0.1 0.0 0.0 0.0
0.0 0.0 0.0 0.0 0.0 0.0 0.0 0.0 0.0 0.0 0.0 0.0 0.0 0.0 0.0 0.0 0.0 0.0 0.0 0.0 0.0 0.0 0.0 0.0 0.0 0.0 0.0 0.0 0.0 0.0 0.0 0.1 0.3 0.4 0.3 0.2 0.1 0.0 0.1 0.3 0.1 0.0 0.0
0.0 0.0 0.0 0.0 0.0 0.0 0.0 0.0 0.0 0.0 0.0 0.0 0.0 0.0 0.0 0.0 0.0 0.0 0.0 0.0 0.0 0.0 0.0 0.0 0.0 0.0 0.0 0.0 0.0 0.0 0.1 0.5 1.0 0.8 0.6 0.6 0.2 0.3 0.3 0.3 0.3 0.5 0.6
0.0 0.0 0.0 0.0 0.0 0.0 0.0 0.0 0.0 0.0 0.0 0.1 0.0 0.0 0.0 0.0 0.0 0.0 0.0 0.0 0.0 0.0 0.0 0.0 0.0 0.0 0.0 0.0 0.0 0.0 0.0 0.0 0.6 1.4 2.2 1.2 0.7 0.3 0.1 0.4 0.4 0.9 0.9
0.0 0.0 0.0 0.0 0.0 0.0 0.0 0.0 0.0 0.0 0.0 0.0 0.0 0.0 0.0 0.0 0.0 0.0 0.0 0.0 0.0 0.0 0.0 0.0 0.0 0.0 0.0 0.0 0.7 0.8 0.2 0.1 0.1 0.3 0.7 0.3 0.1 0.1 0.2 0.4 1.1 1.2 0.2
0.0 0.0 0.0 0.0 0.0 0.0 0.0 0.0 0.0 0.0 0.0 0.0 0.0 0.0 0.0 0.0 0.0 0.0 0.0 0.0 0.0 0.0 0.0 0.0 0.0 0.0 0.1 0.6 1.4 1.7 0.6 0.1 0.0 0.0 0.1 0.1 0.1 0.1 0.2 1.7 2.7 3.4 2.3
0.0 0.0 0.0 0.0 0.0 0.0 0.0 0.0 0.0 0.0 0.0 0.0 0.0 0.0 0.0 0.0 0.0 0.0 0.0 0.1 0.2 0.1 0.1 0.0 0.0 0.1 1.1 1.3 3.1 2.5 2.4 0.5 0.1 0.1 0.1 0.1 0.1 0.2 0.2 0.7 1.9 4.7 2.6
0.0 0.0 0.0 0.0 0.0 0.0 0.0 0.0 0.0 0.0 0.0 0.0 0.0 0.0 0.0 0.0 0.1 0.0 0.0 0.1 0.7 0.7 0.3 0.2 0.1 2.0 1.7 1.1 1.2 2.3 2.6 0.6 0.4 0.7 0.5 0.3 0.2 0.3 0.3 0.3 0.5 2.1 3.9
0.0 0.0 0.0 0.0 0.0 0.0 0.0 0.0 0.0 0.0 0.0 0.0 0.1 0.1 0.0 0.1 0.0 0.0 0.0 0.0 0.3 1.9 1.2 1.3 2.1 0.6 1.0 0.3 0.9 1.8 0.7 0.6 1.3 1.5 1.8 1.3 1.6 1.3 0.8 0.8 0.9 1.2 0.7
0.0 0.0 0.0 0.0 0.0 0.0 0.0 0.0 0.0 0.0 0.0 0.0 0.0 0.1 0.0 0.0 0.0 0.0 0.0 0.2 0.2 1.2 2.2 2.3 1.3 1.2 0.6 0.6 1.3 1.3 0.8 2.1 3.0 3.3 2.5 1.5 1.4 1.2 1.0 1.4 1.1 0.9 1.0
0.0 0.0 0.0 0.0 0.0 0.0 0.0 0.0 0.0 0.0 0.0 0.0 0.0 0.0 0.0 0.0 0.0 0.1 0.6 0.2 0.4 1.4 1.2 1.6 1.9 1.1 1.1 1.7 1.9 1.8 2.6 2.8 3.0 3.4 2.6 1.5 1.3 1.7 2.9 2.5 4.6 3.2 3.7
0.0 0.0 0.0 0.0 0.0 0.0 0.0 0.0 0.0 0.0 0.0 0.0 0.0 0.2 0.7 0.5 0.2 1.2 1.5 2.0 3.0 2.3 1.8 2.6 2.1 1.8 1.9 1.7 1.2 1.0 1.4 1.3 1.8 2.0 2.6 2.1 1.5 2.5 2.6 2.1 2.8 3.1 4.5
0.0 0.0 0.0 0.0 0.0 0.0 0.0 0.0 0.0 0.0 0.0 0.0 0.0 0.1 0.0 0.3 0.7 0.9 1.3 2.1 2.4 2.0 4.0 4.0 3.1 3.0 2.7 1.8 1.8 1.3 0.7 1.3 1.0 1.8 1.9 1.4 2.3 3.0 3.2 2.0 2.5 3.6 3.6
0.0 0.0 0.0 0.1 0.1 0.0 0.0 0.0 0.0 0.0 0.0 0.0 0.0 0.0 0.0 0.4 0.8 1.2 1.6 1.8 2.3 1.8 4.4 3.0 3.2 3.1 2.4 1.4 1.5 1.9 2.5 1.5 2.4 2.7 2.6 3.7 3.7 3.8 3.2 3.6 3.6 2.2 2.1
0.0 0.1 0.1 0.1 0.2 0.1 0.1 0.0 0.2 0.5 0.6 0.4 0.1 0.0 0.0 0.3 0.7 1.0 1.3 1.6 3.2 2.4 2.8 2.8 3.3 3.0 2.7 2.8 2.3 2.7 2.3 1.5 1.1 2.3 2.1 1.9 2.6 2.5 2.6 2.1 3.5 3.7 2.2
0.2 0.2 0.3 0.3 0.5 0.6 1.1 1.1 0.8 0.6 0.6 0.3 0.0 0.0 0.0 0.1 0.3 1.0 0.9 2.5 4.0 3.8 3.8 2.0 2.8 2.4 2.1 1.9 2.4 2.2 2.2 2.2 1.4 2.1 1.6 1.5 2.4 2.7 1.7 1.5 1.8 1.4 1.1
1.0 1.2 1.8 1.9 2.0 1.7 1.3 1.3 1.1 0.8 0.7 0.7 0.5 0.2 0.0 0.1 0.5 1.1 1.1 2.8 2.9 1.8 2.2 2.2 2.0 1.9 2.3 1.9 1.8 2.0 1.7 1.5 1.5 2.1 2.2 2.5 1.8 2.4 2.7 2.5 2.4 2.2 1.2
3.6 3.1 2.7 2.1 1.8 1.7 1.3 1.2 1.3 1.6 1.3 0.9 0.3 0.5 0.8 2.0 2.5 2.6 2.7 2.7 2.3 2.1 2.1 1.9 1.6 1.3 1.3 1.6 1.5 1.7 1.6 1.5 1.2 1.2 1.9 1.6 1.7 2.8 1.5 2.5 2.3 2.0 1.2
2.8 2.0 1.5 1.4 1.1 0.8 0.8 0.6 0.6 1.0 0.6 1.0 1.3 0.6 2.4 2.8 2.7 2.6 2.3 2.3 1.8 1.7 2.3 2.7 2.8 2.6 2.3 3.0 2.9 2.7 2.2 1.9 2.2 2.2 1.6 1.3 1.6 1.8 2.4 1.9 1.7 2.4 1.7
1.3 1.1 0.8 0.7 0.6 0.3 0.8 0.3 1.7 1.7 1.8 1.4 1.4 2.1 1.4 1.9 1.9 1.6 1.5 1.8 1.3 1.1 0.8 2.7 2.5 1.5 1.1 2.0 2.6 3.3 3.2 2.0 1.9 2.3 2.9 1.9 1.7 1.7 2.0 2.3 2.0 2.9 2.3
0.3 0.4 0.6 0.6 1.0 0.5 1.2 1.2 1.5 3.0 3.9 2.8 1.8 1.5 2.0 2.2 2.1 2.2 1.4 0.5 0.3 0.5 0.8 1.3 1.8 1.9 1.1 0.8 2.1 2.4 2.4 2.4 2.8 2.8 4.1 3.2 1.7 1.5 2.4 2.2 2.1 2.2 2.1
0.8 1.1 1.4 1.2 2.0 2.6 3.2 3.5 2.7 1.3 2.3 2.4 2.0 1.6 1.0 1.3 1.1 1.8 1.5 1.0 0.6 1.1 1.3 1.0 0.6 0.8 0.7 0.9 1.4 1.4 1.1 2.5 3.7 3.6 3.6 2.8 2.2 0.8 2.5 2.4 2.3 2.6 2.1
1.0 1.6 1.5 1.7 1.7 2.9 3.2 2.8 2.2 1.5 1.3 1.4 1.8 1.3 1.3 0.9 0.7 0.8 0.6 0.5 0.5 1.0 0.6 0.5 0.7 0.6 0.6 0.9 0.8 1.5 1.3 1.5 2.5 3.2 3.9 3.8 2.8 2.0 2.5 2.6 2.6 3.1 1.9

GFSGL_prec_kuchsnow_075.txt.gz
Snowfall_Accumulation
0.0 0.0 0.0 0.0 0.0 0.0 0.0 0.0 0.0 0.0 0.0 0.0 0.0 0.0 0.0 0.0 0.0 0.0 0.0 0.0 0.0 0.0 0.0 0.0 0.0 0.0 0.0 0.0 0.0 0.0 0.0 0.0 0.1 0.0 0.0 0.0 0.0 0.0 0.0 0.0 0.0 0.0 0.0
0.0 0.0 0.0 0.0 0.0 0.0 0.0 0.0 0.0 0.0 0.0 0.0 0.0 0.0 0.0 0.0 0.0 0.0 0.0 0.0 0.0 0.0 0.0 0.0 0.0 0.0 0.0 0.0 0.0 0.0 0.0 0.0 0.0 0.0 0.0 0.0 0.0 0.0 0.0 0.0 0.0 0.0 0.0
0.0 0.0 0.0 0.0 0.0 0.0 0.0 0.0 0.0 0.0 0.0 0.0 0.0 0.0 0.0 0.0 0.0 0.0 0.0 0.0 0.0 0.0 0.0 0.0 0.0 0.0 0.0 0.0 0.0 0.0 0.0 0.0 0.0 0.2 0.1 0.0 0.0 0.0 0.0 0.0 0.0 0.0 0.0
0.0 0.0 0.0 0.0 0.0 0.0 0.0 0.0 0.0 0.0 0.0 0.0 0.0 0.0 0.0 0.0 0.0 0.0 0.0 0.0 0.0 0.0 0.0 0.0 0.0 0.0 0.0 0.0 0.0 0.0 0.0 0.0 0.0 0.1 0.1 0.1 0.0 0.0 0.0 0.1 0.0 0.0 0.0
0.0 0.0 0.0 0.0 0.0 0.0 0.0 0.0 0.0 0.0 0.0 0.0 0.0 0.0 0.0 0.0 0.0 0.0 0.0 0.0 0.0 0.0 0.0 0.0 0.0 0.0 0.0 0.0 0.0 0.0 0.0 0.1 0.3 0.4 0.3 0.2 0.1 0.0 0.1 0.3 0.1 0.0 0.0
0.0 0.0 0.0 0.0 0.0 0.0 0.0 0.0 0.0 0.0 0.0 0.0 0.0 0.0 0.0 0.0 0.0 0.0 0.0 0.0 0.0 0.0 0.0 0.0 0.0 0.0 0.0 0.0 0.0 0.0 0.1 0.5 1.0 0.8 0.6 0.6 0.2 0.3 0.3 0.3 0.3 0.5 0.6
0.0 0.0 0.0 0.0 0.0 0.0 0.0 0.0 0.0 0.0 0.0 0.1 0.0 0.0 0.0 0.0 0.0 0.0 0.0 0.0 0.0 0.0 0.0 0.0 0.0 0.0 0.0 0.0 0.0 0.0 0.0 0.0 0.6 1.4 2.2 1.2 0.7 0.3 0.1 0.4 0.4 0.9 0.9
0.0 0.0 0.0 0.0 0.0 0.0 0.0 0.0 0.0 0.0 0.0 0.0 0.0 0.0 0.0 0.0 0.0 0.0 0.0 0.0 0.0 0.0 0.0 0.0 0.0 0.0 0.0 0.0 0.7 0.8 0.2 0.1 0.1 0.3 0.7 0.3 0.1 0.1 0.2 0.4 1.1 1.2 0.2
0.0 0.0 0.0 0.0 0.0 0.0 0.0 0.0 0.0 0.0 0.0 0.0 0.0 0.0 0.0 0.0 0.0 0.0 0.0 0.0 0.0 0.0 0.0 0.0 0.0 0.0 0.1 0.6 1.4 1.7 0.6 0.1 0.0 0.0 0.1 0.1 0.1 0.1 0.2 1.7 2.7 3.5 2.3
0.0 0.0 0.0 0.0 0.0 0.0 0.0 0.0 0.0 0.0 0.0 0.0 0.0 0.0 0.0 0.0 0.0 0.0 0.0 0.1 0.2 0.1 0.1 0.0 0.0 0.1 1.1 1.3 3.1 2.5 2.4 0.5 0.1 0.1 0.1 0.1 0.1 0.2 0.2 0.7 1.9 5.0 2.7
0.0 0.0 0.0 0.0 0.0 0.0 0.0 0.0 0.0 0.0 0.0 0.0 0.0 0.0 0.0 0.0 0.1 0.0 0.0 0.1 0.7 0.7 0.3 0.2 0.1 2.0 1.7 1.1 1.2 2.3 2.6 0.6 0.4 0.7 0.5 0.3 0.2 0.3 0.3 0.3 0.5 2.3 4.2
0.0 0.0 0.0 0.0 0.0 0.0 0.0 0.0 0.0 0.0 0.0 0.0 0.1 0.1 0.0 0.1 0.0 0.0 0.0 0.0 0.3 1.9 1.2 1.3 2.1 0.6 1.0 0.3 0.9 1.8 0.7 0.6 1.3 1.5 1.8 1.3 1.6 1.3 0.8 0.8 0.9 1.2 0.7
0.0 0.0 0.0 0.0 0.0 0.0 0.0 0.0 0.0 0.0 0.0 0.0 0.0 0.1 0.0 0.0 0.0 0.0 0.0 0.2 0.2 1.2 2.2 2.3 1.3 1.2 0.6 0.6 1.3 1.3 0.8 2.1 3.0 3.3 2.5 1.5 1.4 1.2 1.0 1.4 1.1 0.9 1.0
0.0 0.0 0.0 0.0 0.0 0.0 0.0 0.0 0.0 0.0 0.0 0.0 0.0 0.0 0.0 0.0 0.0 0.1 0.6 0.2 0.4 1.4 1.2 1.6 1.9 1.1 1.1 1.7 1.9 1.8 2.6 2.8 3.0 3.4 2.6 1.5 1.3 1.7 2.9 2.5 4.6 3.2 3.7
0.0 0.0 0.0 0.0 0.0 0.0 0.0 0.0 0.0 0.0 0.0 0.0 0.0 0.2 0.7 0.5 0.2 1.2 1.5 2.0 3.0 2.3 1.8 2.6 2.1 1.8 1.9 1.7 1.2 1.0 1.4 1.3 1.8 2.0 2.6 2.1 1.5 2.5 2.6 2.1 2.8 3.1 4.8
0.0 0.0 0.0 0.0 0.0 0.0 0.0 0.0 0.0 0.0 0.0 0.0 0.0 0.1 0.0 0.3 0.7 0.9 1.3 2.1 2.4 2.0 4.0 4.0 3.1 3.0 2.7 1.8 1.8 1.3 0.7 1.3 1.0 1.8 1.9 1.4 2.3 3.0 3.2 2.0 2.5 3.6 3.9
0.0 0.0 0.0 0.1 0.1 0.0 0.0 0.1 0.1 0.1 0.0 0.0 0.0 0.0 0.0 0.4 0.8 1.2 1.6 1.8 2.3 1.8 4.4 3.0 3.2 3.1 2.4 1.4 1.5 1.9 2.5 1.5 2.4 2.7 2.6 3.7 3.7 3.8 3.2 3.6 3.6 2.2 2.1
0.0 0.1 0.1 0.1 0.2 0.1 0.1 0.1 0.2 0.5 0.9 0.7 0.3 0.0 0.0 0.4 0.9 1.2 1.5 1.8 3.3 2.5 2.8 2.8 3.3 3.0 2.7 2.8 2.3 2.7 2.3 1.5 1.1 2.3 2.1 1.9 2.6 2.5 2.6 2.1 3.5 4.3 3.5
0.4 0.6 0.7 0.6 0.7 0.8 1.3 1.5 1.2 1.0 1.0 0.7 0.5 0.6 0.5 0.6 0.7 1.3 1.2 2.7 4.1 3.8 3.8 2.0 2.8 2.4 2.1 1.9 2.4 2.2 2.2 2.2 1.4 2.1 1.6 1.5 2.4 2.7 1.7 1.5 1.8 1.4 1.1
1.7 1.7 2.2 2.3 2.4 2.1 1.6 1.6 1.4 1.2 1.2 1.2 1.1 0.8 0.6 0.5 0.6 1.2 1.2 2.9 2.9 1.8 2.2 2.2 2.0 1.9 2.3 1.9 1.8 2.0 1.7 1.5 1.5 2.1 2.2 2.5 1.8 2.4 2.7 2.5 2.4 2.4 1.2
3.9 3.5 3.0 2.4 2.1 1.7 1.3 1.2 1.3 1.6 1.8 0.9 0.7 0.9 1.1 2.3 2.7 2.8 2.8 2.7 2.3 2.1 2.1 1.9 1.6 1.3 1.3 1.6 1.5 1.7 1.6 1.5 1.2 1.2 1.9 1.6 1.7 2.8 1.5 2.5 2.3 2.0 1.2
3.0 2.3 1.8 1.7 1.1 0.8 0.8 0.6 0.6 1.3 1.0 1.4 1.8 0.9 2.6 2.9 2.7 2.6 2.3 2.3 1.8 1.7 2.3 2.7 2.8 2.6 2.3 3.0 2.9 2.7 2.2 1.9 2.2 2.2 1.6 1.3 1.6 1.8 2.4 1.9 1.7 2.4 1.7
1.3 1.1 0.8 0.7 0.6 0.3 0.8 0.3 1.7 1.7 1.8 1.4 1.4 2.1 1.4 1.9 1.9 1.6 1.6 1.8 1.3 1.1 0.8 2.7 2.5 1.5 1.1 2.0 2.6 3.3 3.2 2.0 1.9 2.3 3.0 1.9 1.7 1.7 2.1 2.3 2.0 2.9 2.3
0.3 0.4 0.6 0.6 1.0 0.5 1.2 1.2 1.5 3.0 3.9 2.8 1.8 1.5 2.0 2.2 2.1 2.2 1.4 0.5 0.3 0.5 0.8 1.3 1.8 1.9 1.1 0.8 2.1 2.4 2.4 2.4 2.9 2.9 4.3 3.4 1.9 1.5 2.4 2.3 2.1 2.2 2.1
0.8 1.1 1.4 1.2 2.0 2.6 3.2 3.5 2.7 1.3 2.3 2.4 2.0 1.6 1.0 1.3 1.1 1.8 1.5 1.0 0.6 1.1 1.3 1.0 0.6 0.8 0.7 0.9 1.4 1.4 1.1 2.5 3.7 3.7 3.9 3.0 2.3 0.8 2.5 2.4 2.3 2.6 2.1
1.0 1.6 1.5 1.7 1.7 2.9 3.2 2.8 2.2 1.5 1.3 1.4 1.8 1.3 1.3 0.9 0.7 0.8 0.6 0.5 0.5 1.0 0.6 0.5 0.7 0.6 0.6 0.9 0.8 1.5 1.3 1.5 2.5 3.4 4.2 4.1 3.0 2.0 2.5 2.7 2.6 3.2 1.9

GFSGL_prec_kuchsnow_078.txt.gz
Snowfall_Accumulation
0.0 0.0 0.0 0.0 0.0 0.0 0.0 0.0 0.0 0.0 0.0 0.0 0.0 0.0 0.0 0.0 0.0 0.0 0.0 0.0 0.0 0.0 0.0 0.0 0.0 0.0 0.0 0.0 0.0 0.0 0.0 0.0 0.1 0.0 0.0 0.0 0.0 0.0 0.0 0.0 0.0 0.0 0.0
0.0 0.0 0.0 0.0 0.0 0.0 0.0 0.0 0.0 0.0 0.0 0.0 0.0 0.0 0.0 0.0 0.0 0.0 0.0 0.0 0.0 0.0 0.0 0.0 0.0 0.0 0.0 0.0 0.0 0.0 0.0 0.0 0.0 0.0 0.0 0.0 0.0 0.0 0.0 0.0 0.0 0.0 0.0
0.0 0.0 0.0 0.0 0.0 0.0 0.0 0.0 0.0 0.0 0.0 0.0 0.0 0.0 0.0 0.0 0.0 0.0 0.0 0.0 0.0 0.0 0.0 0.0 0.0 0.0 0.0 0.0 0.0 0.0 0.0 0.0 0.0 0.2 0.1 0.0 0.0 0.0 0.0 0.0 0.0 0.0 0.0
0.0 0.0 0.0 0.0 0.0 0.0 0.0 0.0 0.0 0.0 0.0 0.0 0.0 0.0 0.0 0.0 0.0 0.0 0.0 0.0 0.0 0.0 0.0 0.0 0.0 0.0 0.0 0.0 0.0 0.0 0.0 0.0 0.0 0.1 0.1 0.1 0.0 0.0 0.0 0.1 0.0 0.0 0.0
0.0 0.0 0.0 0.0 0.0 0.0 0.0 0.0 0.0 0.0 0.0 0.0 0.0 0.0 0.0 0.0 0.0 0.0 0.0 0.0 0.0 0.0 0.0 0.0 0.0 0.0 0.0 0.0 0.0 0.0 0.0 0.1 0.3 0.4 0.3 0.2 0.1 0.0 0.1 0.3 0.1 0.0 0.0
0.0 0.0 0.0 0.0 0.0 0.0 0.0 0.0 0.0 0.0 0.0 0.0 0.0 0.0 0.0 0.0 0.0 0.0 0.0 0.0 0.0 0.0 0.0 0.0 0.0 0.0 0.0 0.0 0.0 0.0 0.1 0.5 1.0 0.8 0.6 0.6 0.2 0.3 0.3 0.3 0.3 0.5 0.6
0.0 0.0 0.0 0.0 0.0 0.0 0.0 0.0 0.0 0.0 0.0 0.1 0.0 0.0 0.0 0.0 0.0 0.0 0.0 0.0 0.0 0.0 0.0 0.0 0.0 0.0 0.0 0.0 0.0 0.0 0.0 0.0 0.6 1.4 2.2 1.2 0.7 0.3 0.1 0.4 0.4 0.9 0.9
0.0 0.0 0.0 0.0 0.0 0.0 0.0 0.0 0.0 0.0 0.0 0.0 0.0 0.0 0.0 0.0 0.0 0.0 0.0 0.0 0.0 0.0 0.0 0.0 0.0 0.0 0.0 0.1 0.7 0.8 0.2 0.1 0.1 0.3 0.7 0.3 0.1 0.1 0.2 0.4 1.1 1.2 0.2
0.0 0.0 0.0 0.0 0.0 0.0 0.0 0.0 0.0 0.0 0.0 0.0 0.0 0.0 0.0 0.0 0.0 0.0 0.0 0.0 0.0 0.0 0.0 0.0 0.0 0.1 0.1 0.6 1.4 1.7 0.6 0.1 0.0 0.0 0.1 0.1 0.1 0.1 0.2 1.7 2.7 3.5 2.3
0.0 0.0 0.0 0.0 0.0 0.0 0.0 0.0 0.0 0.0 0.0 0.0 0.0 0.0 0.0 0.0 0.0 0.0 0.0 0.1 0.2 0.1 0.1 0.0 0.0 0.1 1.1 1.3 3.1 2.5 2.4 0.5 0.1 0.1 0.1 0.1 0.1 0.2 0.2 0.7 2.0 5.1 2.7
0.0 0.0 0.0 0.0 0.0 0.0 0.0 0.0 0.0 0.0 0.0 0.0 0.0 0.0 0.0 0.0 0.1 0.0 0.0 0.1 0.7 0.7 0.3 0.2 0.1 2.0 1.7 1.1 1.2 2.3 2.6 0.6 0.4 0.7 0.5 0.3 0.2 0.3 0.3 0.3 0.5 2.3 4.2
0.0 0.0 0.0 0.0 0.0 0.0 0.0 0.0 0.0 0.0 0.0 0.0 0.1 0.1 0.0 0.1 0.1 0.1 0.0 0.0 0.3 1.9 1.2 1.3 2.1 0.6 1.0 0.3 0.9 1.8 0.7 0.6 1.3 1.5 1.8 1.3 1.6 1.3 0.8 0.8 0.9 1.2 0.7
0.0 0.0 0.0 0.0 0.0 0.0 0.0 0.0 0.0 0.0 0.0 0.0 0.0 0.1 0.0 0.0 0.1 0.0 0.0 0.2 0.2 1.2 2.2 2.3 1.3 1.2 0.6 0.6 1.3 1.3 0.8 2.1 3.0 3.3 2.5 1.5 1.4 1.2 1.0 1.4 1.1 0.9 1.0
0.0 0.0 0.0 0.0 0.0 0.0 0.0 0.0 0.0 0.0 0.0 0.0 0.0 0.0 0.0 0.0 0.0 0.1 0.6 0.2 0.4 1.4 1.2 1.6 1.9 1.1 1.1 1.7 1.9 1.8 2.6 2.8 3.0 3.4 2.6 1.5 1.3 1.7 2.9 2.5 4.6 3.2 3.7
0.0 0.0 0.0 0.0 0.0 0.0 0.0 0.0 0.0 0.0 0.0 0.0 0.0 0.3 0.9 0.7 0.3 1.2 1.5 2.0 3.0 2.3 1.8 2.6 2.1 1.8 1.9 1.7 1.2 1.0 1.4 1.3 1.8 2.0 2.6 2.1 1.5 2.5 2.6 2.1 2.8 3.1 4.8
0.0 0.0 0.0 0.0 0.0 0.0 0.0 0.0 0.1 0.2 0.3 0.3 0.4 0.5 0.3 0.4 0.7 0.9 1.3 2.1 2.4 2.0 4.0 4.0 3.1 3.0 2.7 1.8 1.8 1.3 0.7 1.3 1.0 1.8 1.9 1.4 2.3 3.0 3.2 2.0 2.5 3.6 3.9
0.0 0.0 0.0 0.1 0.1 0.3 0.3 0.6 0.8 0.6 0.0 0.0 0.0 0.0 0.0 0.4 0.8 1.2 1.6 1.8 2.3 1.8 4.5 3.0 3.2 3.1 2.4 1.4 1.5 1.9 2.5 1.5 2.4 2.7 2.6 3.7 3.7 3.8 3.2 3.6 3.6 2.2 2.1
0.0 0.1 0.1 0.1 0.2 0.3 0.2 0.3 0.2 0.5 0.9 1.1 0.6 0.2 0.4 0.9 1.4 1.7 2.0 2.3 3.9 2.9 3.1 3.1 3.5 3.2 2.9 2.9 2.4 2.7 2.3 1.5 1.1 2.3 2.1 1.9 2.6 2.5 2.6 2.1 3.5 4.3 3.5
0.7 1.1 1.3 1.2 1.3 1.2 1.3 1.5 1.2 1.0 1.5 1.2 1.1 1.3 1.1 1.0 1.1 1.7 1.5 3.1 4.6 4.4 4.3 2.6 3.3 2.8 2.3 1.9 2.4 2.2 2.2 2.2 1.4 2.1 1.6 1.5 2.4 2.7 1.7 1.5 1.8 1.4 1.1
2.4 2.5 2.7 2.6 2.7 2.3 1.8 1.6 1.4 1.2 1.5 1.5 1.5 1.3 1.1 0.8 0.9 1.4 1.4 3.1 3.2 2.1 2.4 2.3 2.1 1.9 2.3 1.9 1.8 2.0 1.7 1.5 1.5 2.1 2.2 2.5 1.8 2.4 2.7 2.5 2.4 2.4 1.2
4.5 3.9 3.3 2.6 2.3 1.7 1.3 1.2 1.3 1.6 1.8 1.0 0.9 1.1 1.3 2.5 2.9 3.0 3.0 2.7 2.3 2.1 2.2 2.0 1.7 1.3 1.3 1.7 1.6 1.7 1.6 1.5 1.2 1.2 1.9 1.6 1.7 2.8 1.5 2.5 2.3 2.0 1.2
3.3 2.5 1.9 1.8 1.1 0.8 0.8 0.6 0.6 1.3 1.0 1.4 1.9 0.9 2.6 2.9 2.7 2.6 2.3 2.3 1.8 1.7 2.3 2.7 2.8 2.6 2.3 3.0 2.9 2.7 2.2 1.9 2.2 2.2 1.6 1.3 1.6 1.8 2.4 1.9 1.7 2.4 1.7
1.3 1.2 0.8 0.7 0.6 0.3 0.8 0.3 1.7 1.7 1.8 1.4 1.4 2.1 1.4 1.9 1.9 1.6 1.6 1.8 1.3 1.1 0.8 2.7 2.5 1.5 1.1 2.0 2.6 3.3 3.2 2.0 1.9 2.4 3.1 2.0 1.7 1.7 2.1 2.4 2.0 2.9 2.3
0.3 0.4 0.6 0.6 1.0 0.5 1.2 1.2 1.5 3.0 3.9 2.8 1.8 1.5 2.0 2.2 2.1 2.2 1.4 0.5 0.3 0.5 0.8 1.3 1.8 1.9 1.1 0.8 2.1 2.4 2.4 2.4 2.9 3.0 4.4 3.5 1.9 1.5 2.4 2.4 2.2 2.2 2.1
0.8 1.1 1.4 1.2 2.0 2.6 3.2 3.5 2.7 1.3 2.3 2.4 2.0 1.6 1.0 1.3 1.1 1.8 1.5 1.0 0.6 1.1 1.3 1.0 0.6 0.8 0.7 0.9 1.4 1.4 1.1 2.5 3.8 3.8 4.1 3.2 2.4 0.8 2.7 2.6 2.3 2.7 2.1
1.0 1.6 1.5 1.7 1.7 2.9 3.2 2.8 2.2 1.5 1.3 1.4 1.8 1.3 1.3 0.9 0.7 0.8 0.6 0.5 0.5 1.0 0.6 0.5 0.7 0.6 0.6 0.9 0.8 1.5 1.3 1.5 2.5 3.5 4.6 4.3 3.0 2.0 2.5 2.9 2.6 3.3 1.9

GFSGL_prec_kuchsnow_081.txt.gz
Snowfall_Accumulation
0.0 0.0 0.0 0.0 0.0 0.0 0.0 0.0 0.0 0.0 0.0 0.0 0.0 0.0 0.0 0.0 0.0 0.0 0.0 0.0 0.0 0.0 0.0 0.0 0.0 0.0 0.0 0.0 0.0 0.0 0.0 0.0 0.1 0.0 0.0 0.0 0.0 0.0 0.0 0.0 0.0 0.0 0.0
0.0 0.0 0.0 0.0 0.0 0.0 0.0 0.0 0.0 0.0 0.0 0.0 0.0 0.0 0.0 0.0 0.0 0.0 0.0 0.0 0.0 0.0 0.0 0.0 0.0 0.0 0.0 0.0 0.0 0.0 0.0 0.0 0.0 0.0 0.0 0.0 0.0 0.0 0.0 0.0 0.0 0.0 0.0
0.0 0.0 0.0 0.0 0.0 0.0 0.0 0.0 0.0 0.0 0.0 0.0 0.0 0.0 0.0 0.0 0.0 0.0 0.0 0.0 0.0 0.0 0.0 0.0 0.0 0.0 0.0 0.0 0.0 0.0 0.0 0.0 0.0 0.2 0.1 0.0 0.0 0.0 0.0 0.0 0.0 0.0 0.0
0.0 0.0 0.0 0.0 0.0 0.0 0.0 0.0 0.0 0.0 0.0 0.0 0.0 0.0 0.0 0.0 0.0 0.0 0.0 0.0 0.0 0.0 0.0 0.0 0.0 0.0 0.0 0.0 0.0 0.0 0.0 0.0 0.0 0.1 0.1 0.1 0.0 0.0 0.0 0.1 0.0 0.0 0.0
0.0 0.0 0.0 0.0 0.0 0.0 0.0 0.0 0.0 0.0 0.0 0.0 0.0 0.0 0.0 0.0 0.0 0.0 0.0 0.0 0.0 0.0 0.0 0.0 0.0 0.0 0.0 0.0 0.0 0.0 0.0 0.1 0.3 0.4 0.3 0.2 0.1 0.0 0.1 0.3 0.1 0.0 0.0
0.0 0.0 0.0 0.0 0.0 0.0 0.0 0.0 0.0 0.0 0.0 0.0 0.0 0.0 0.0 0.0 0.0 0.0 0.0 0.0 0.0 0.0 0.0 0.0 0.0 0.0 0.0 0.0 0.0 0.0 0.1 0.5 1.0 0.8 0.6 0.6 0.2 0.3 0.3 0.3 0.3 0.5 0.6
0.0 0.0 0.0 0.0 0.0 0.0 0.0 0.0 0.0 0.0 0.0 0.1 0.0 0.0 0.0 0.0 0.0 0.0 0.0 0.0 0.0 0.0 0.0 0.0 0.0 0.0 0.0 0.0 0.0 0.0 0.1 0.0 0.6 1.4 2.2 1.2 0.7 0.3 0.1 0.4 0.4 0.9 0.9
0.0 0.0 0.0 0.0 0.0 0.0 0.0 0.0 0.0 0.0 0.0 0.0 0.0 0.0 0.0 0.0 0.0 0.0 0.0 0.0 0.0 0.0 0.0 0.0 0.0 0.0 0.0 0.1 0.7 0.8 0.2 0.1 0.1 0.3 0.7 0.3 0.1 0.1 0.2 0.4 1.1 1.2 0.2
0.0 0.0 0.0 0.0 0.0 0.0 0.0 0.0 0.0 0.0 0.0 0.0 0.0 0.0 0.0 0.0 0.0 0.0 0.0 0.0 0.0 0.0 0.0 0.0 0.0 0.1 0.2 0.6 1.4 1.7 0.6 0.1 0.0 0.0 0.1 0.1 0.1 0.1 0.2 1.7 2.7 3.5 2.3
0.0 0.0 0.0 0.0 0.0 0.0 0.0 0.0 0.0 0.0 0.0 0.0 0.0 0.0 0.0 0.0 0.0 0.0 0.0 0.1 0.2 0.1 0.1 0.0 0.1 0.1 1.1 1.3 3.1 2.5 2.4 0.5 0.1 0.1 0.1 0.1 0.1 0.2 0.2 0.7 2.0 5.1 2.7
0.0 0.0 0.0 0.0 0.0 0.0 0.0 0.0 0.0 0.0 0.0 0.0 0.0 0.0 0.0 0.0 0.1 0.0 0.0 0.1 0.7 0.7 0.3 0.2 0.1 2.0 1.7 1.1 1.2 2.3 2.6 0.6 0.4 0.7 0.5 0.3 0.2 0.3 0.3 0.3 0.5 2.3 4.2
0.0 0.0 0.0 0.0 0.0 0.0 0.0 0.0 0.0 0.0 0.0 0.0 0.1 0.1 0.0 0.1 0.1 0.1 0.1 0.0 0.3 1.9 1.2 1.3 2.1 0.6 1.0 0.3 0.9 1.8 0.7 0.6 1.3 1.5 1.8 1.3 1.6 1.3 0.8 0.8 0.9 1.2 0.7
0.0 0.0 0.0 0.0 0.0 0.0 0.0 0.0 0.0 0.0 0.0 0.0 0.0 0.1 0.0 0.0 0.1 0.2 0.0 0.2 0.2 1.2 2.2 2.3 1.3 1.2 0.6 0.6 1.3 1.3 0.8 2.1 3.0 3.3 2.5 1.5 1.4 1.2 1.0 1.4 1.1 0.9 1.0
0.0 0.0 0.0 0.0 0.0 0.0 0.0 0.0 0.0 0.0 0.0 0.0 0.0 0.0 0.1 0.1 0.1 0.1 0.9 0.4 0.4 1.4 1.2 1.6 1.9 1.1 1.1 1.7 1.9 1.8 2.6 2.8 3.0 3.4 2.6 1.5 1.3 1.7 2.9 2.5 4.6 3.2 3.7
0.0 0.0 0.0 0.0 0.0 0.0 0.0 0.0 0.0 0.0 0.0 0.0 0.0 0.6 1.3 1.3 0.9 1.7 1.8 2.1 3.0 2.3 1.8 2.6 2.1 1.8 1.9 1.7 1.2 1.0 1.4 1.3 1.8 2.0 2.6 2.1 1.5 2.5 2.6 2.1 2.8 3.1 4.8
0.0 0.0 0.0 0.0 0.0 0.0 0.0 0.2 0.6 0.8 0.9 0.9 1.0 1.0 0.8 0.7 0.7 0.9 1.3 2.1 2.4 2.0 4.0 4.0 3.1 3.0 2.7 1.8 1.8 1.3 0.7 1.3 1.0 1.8 1.9 1.4 2.3 3.0 3.2 2.0 2.5 3.6 3.9
0.0 0.0 0.0 0.1 0.1 0.3 0.3 0.6 1.2 0.9 0.0 0.0 0.0 0.0 0.0 0.4 0.8 1.2 1.6 1.8 2.3 1.8 4.5 3.0 3.2 3.1 2.4 1.4 1.5 1.9 2.5 1.5 2.4 2.7 2.6 3.7 3.7 3.8 3.2 3.6 3.6 2.2 2.1
0.0 0.1 0.3 0.2 0.3 0.5 0.5 0.4 0.2 0.6 0.9 1.1 0.6 0.3 0.4 1.0 1.5 1.7 2.0 2.3 3.9 2.9 3.1 3.1 3.6 3.3 3.0 3.1 2.6 2.9 2.3 1.5 1.1 2.3 2.1 1.9 2.6 2.5 2.6 2.1 3.5 4.3 3.5
1.2 1.6 1.9 1.7 1.7 1.4 1.3 1.5 1.2 1.0 1.6 1.3 1.1 1.3 1.1 1.0 1.1 1.7 1.5 3.1 4.6 4.6 4.5 2.8 3.5 3.0 2.4 2.0 2.5 2.3 2.2 2.2 1.4 2.1 1.6 1.5 2.4 2.7 1.7 1.5 1.8 1.4 1.1
3.1 3.2 3.1 2.9 2.9 2.5 1.9 1.6 1.4 1.2 1.5 1.5 1.6 1.5 1.2 0.8 0.9 1.4 1.4 3.1 3.2 2.1 2.4 2.3 2.2 2.0 2.4 2.0 1.9 2.1 1.8 1.5 1.5 2.1 2.2 2.5 1.8 2.5 2.8 2.6 2.4 2.4 1.2
5.0 4.4 3.6 2.7 2.3 1.7 1.3 1.2 1.3 1.6 1.8 1.0 1.0 1.1 1.3 2.5 2.9 3.0 3.0 2.7 2.3 2.1 2.2 2.0 1.7 1.3 1.3 1.7 1.6 1.7 1.6 1.5 1.2 1.2 1.9 1.6 1.8 2.9 1.5 2.6 2.3 2.0 1.2
3.5 2.7 1.9 1.8 1.1 0.8 0.8 0.6 0.6 1.3 1.0 1.4 1.9 0.9 2.6 2.9 2.7 2.6 2.3 2.3 1.8 1.7 2.3 2.7 2.8 2.6 2.3 3.0 2.9 2.7 2.2 1.9 2.2 2.2 1.6 1.4 1.6 1.8 2.4 2.0 1.8 2.5 1.7
1.5 1.3 0.8 0.7 0.6 0.3 0.8 0.3 1.7 1.7 1.8 1.4 1.4 2.1 1.4 1.9 1.9 1.6 1.6 1.8 1.3 1.1 0.8 2.7 2.5 1.5 1.1 2.0 2.6 3.3 3.2 2.0 1.9 2.5 3.2 2.1 1.8 1.8 2.2 2.5 2.1 3.1 2.4
0.3 0.4 0.6 0.6 1.0 0.5 1.2 1.2 1.5 3.0 3.9 2.8 1.8 1.5 2.0 2.2 2.1 2.2 1.4 0.5 0.3 0.5 0.8 1.3 1.8 1.9 1.1 0.8 2.1 2.4 2.4 2.4 2.9 3.2 4.5 3.7 2.0 1.6 2.6 2.5 2.3 2.4 2.2
0.8 1.1 1.4 1.2 2.0 2.6 3.2 3.5 2.7 1.3 2.3 2.4 2.0 1.6 1.0 1.3 1.1 1.8 1.5 1.0 0.6 1.1 1.3 1.0 0.6 0.8 0.7 0.9 1.4 1.4 1.1 2.5 3.9 4.0 4.3 3.3 2.4 0.9 2.7 2.7 2.5 2.9 2.2
1.0 1.6 1.5 1.7 1.7 2.9 3.2 2.8 2.2 1.5 1.3 1.4 1.8 1.3 1.3 0.9 0.7 0.8 0.6 0.5 0.5 1.0 0.6 0.5 0.7 0.6 0.6 0.9 0.8 1.5 1.3 1.5 2.6 3.7 4.8 4.4 3.1 2.0 2.6 3.0 2.7 3.5 2.1

GFSGL_prec_kuchsnow_084.txt.gz
Snowfall_Accumulation
0.0 0.0 0.0 0.0 0.0 0.0 0.0 0.0 0.0 0.0 0.0 0.0 0.0 0.0 0.0 0.0 0.0 0.0 0.0 0.0 0.0 0.0 0.0 0.0 0.0 0.0 0.0 0.0 0.0 0.0 0.0 0.0 0.1 0.0 0.0 0.0 0.0 0.0 0.0 0.0 0.0 0.0 0.0
0.0 0.0 0.0 0.0 0.0 0.0 0.0 0.0 0.0 0.0 0.0 0.0 0.0 0.0 0.0 0.0 0.0 0.0 0.0 0.0 0.0 0.0 0.0 0.0 0.0 0.0 0.0 0.0 0.0 0.0 0.0 0.0 0.0 0.0 0.0 0.0 0.0 0.0 0.0 0.0 0.0 0.0 0.0
0.0 0.0 0.0 0.0 0.0 0.0 0.0 0.0 0.0 0.0 0.0 0.0 0.0 0.0 0.0 0.0 0.0 0.0 0.0 0.0 0.0 0.0 0.0 0.0 0.0 0.0 0.0 0.0 0.0 0.0 0.0 0.0 0.0 0.2 0.1 0.0 0.0 0.0 0.0 0.0 0.0 0.0 0.0
0.0 0.0 0.0 0.0 0.0 0.0 0.0 0.0 0.0 0.0 0.0 0.0 0.0 0.0 0.0 0.0 0.0 0.0 0.0 0.0 0.0 0.0 0.0 0.0 0.0 0.0 0.0 0.0 0.0 0.0 0.0 0.0 0.0 0.1 0.1 0.1 0.0 0.0 0.0 0.1 0.0 0.0 0.0
0.0 0.0 0.0 0.0 0.0 0.0 0.0 0.0 0.0 0.0 0.0 0.0 0.0 0.0 0.0 0.0 0.0 0.0 0.0 0.0 0.0 0.0 0.0 0.0 0.0 0.0 0.0 0.0 0.0 0.0 0.0 0.1 0.3 0.4 0.3 0.2 0.1 0.0 0.1 0.3 0.1 0.0 0.0
0.0 0.0 0.0 0.0 0.0 0.0 0.0 0.0 0.0 0.0 0.0 0.0 0.0 0.0 0.0 0.0 0.0 0.0 0.0 0.0 0.0 0.0 0.0 0.0 0.0 0.0 0.0 0.0 0.0 0.0 0.1 0.5 1.0 0.8 0.6 0.6 0.2 0.3 0.3 0.3 0.3 0.5 0.6
0.0 0.0 0.0 0.0 0.0 0.0 0.0 0.0 0.0 0.0 0.0 0.1 0.0 0.0 0.0 0.0 0.0 0.0 0.0 0.0 0.0 0.0 0.0 0.0 0.0 0.0 0.0 0.0 0.0 0.0 0.1 0.0 0.6 1.4 2.2 1.2 0.7 0.3 0.1 0.4 0.4 0.9 0.9
0.0 0.0 0.0 0.0 0.0 0.0 0.0 0.0 0.0 0.0 0.0 0.0 0.0 0.0 0.0 0.0 0.0 0.0 0.0 0.0 0.0 0.0 0.0 0.0 0.0 0.0 0.0 0.1 0.7 0.8 0.2 0.1 0.1 0.3 0.7 0.3 0.1 0.1 0.2 0.4 1.1 1.2 0.2
0.0 0.0 0.0 0.0 0.0 0.0 0.0 0.0 0.0 0.0 0.0 0.0 0.0 0.0 0.0 0.0 0.0 0.0 0.0 0.0 0.0 0.0 0.0 0.0 0.0 0.1 0.2 0.6 1.4 1.8 0.6 0.1 0.0 0.0 0.1 0.1 0.1 0.1 0.2 1.7 2.7 3.5 2.3
0.0 0.0 0.0 0.0 0.0 0.0 0.0 0.0 0.0 0.0 0.0 0.0 0.0 0.0 0.0 0.0 0.0 0.0 0.0 0.1 0.2 0.1 0.1 0.0 0.1 0.1 1.2 1.3 3.1 2.5 2.4 0.5 0.1 0.1 0.1 0.1 0.1 0.2 0.2 0.7 2.0 5.1 2.7
0.0 0.0 0.0 0.0 0.0 0.0 0.0 0.0 0.0 0.0 0.0 0.0 0.0 0.0 0.0 0.0 0.1 0.0 0.0 0.1 0.7 0.7 0.3 0.2 0.2 2.1 1.7 1.1 1.2 2.3 2.6 0.6 0.4 0.7 0.5 0.3 0.2 0.3 0.3 0.3 0.5 2.3 4.2
0.0 0.0 0.0 0.0 0.0 0.0 0.0 0.0 0.0 0.0 0.0 0.0 0.1 0.1 0.0 0.1 0.1 0.1 0.1 0.0 0.3 1.9 1.2 1.3 2.1 0.6 1.0 0.3 0.9 1.8 0.7 0.6 1.3 1.5 1.8 1.3 1.6 1.3 0.8 0.8 0.9 1.2 0.7
0.0 0.0 0.0 0.0 0.0 0.0 0.0 0.0 0.0 0.0 0.0 0.0 0.0 0.1 0.0 0.0 0.1 0.2 0.1 0.2 0.2 1.2 2.2 2.3 1.3 1.2 0.6 0.6 1.3 1.3 0.8 2.1 3.0 3.3 2.5 1.5 1.4 1.2 1.0 1.4 1.1 0.9 1.0
0.0 0.0 0.0 0.0 0.0 0.0 0.0 0.0 0.0 0.0 0.0 0.0 0.0 0.0 0.1 0.1 0.1 0.1 1.3 0.7 0.5 1.5 1.2 1.6 1.9 1.1 1.1 1.7 1.9 1.8 2.6 2.8 3.0 3.4 2.6 1.5 1.3 1.7 2.9 2.5 4.6 3.2 3.7
0.0 0.0 0.0 0.0 0.0 0.0 0.0 0.0 0.0 0.0 0.0 0.0 0.0 0.9 1.7 1.8 1.4 2.1 2.0 2.2 3.1 2.3 1.8 2.6 2.1 1.8 1.9 1.7 1.2 1.0 1.4 1.3 1.8 2.0 2.7 2.1 1.5 2.5 2.6 2.1 2.8 3.1 4.8
0.0 0.0 0.0 0.0 0.0 0.0 0.0 0.2 0.6 1.1 1.3 1.3 1.3 1.2 1.1 0.9 0.7 0.9 1.3 2.1 2.4 2.0 4.0 4.0 3.1 3.1 2.7 1.8 1.8 1.3 0.7 1.4 1.1 1.8 1.9 1.4 2.4 3.0 3.2 2.0 2.5 3.6 3.9
0.0 0.0 0.0 0.1 0.1 0.7 0.8 1.0 1.7 1.8 0.5 0.2 0.1 0.0 0.0 0.4 0.8 1.2 1.6 1.8 2.3 1.8 4.5 3.0 3.2 3.2 2.5 1.4 1.5 1.9 2.6 1.5 2.4 2.7 2.6 3.7 3.7 3.8 3.2 3.6 3.6 2.2 2.1
0.0 0.1 2.3 2.1 1.8 1.7 1.2 1.0 0.6 1.0 1.3 1.4 0.8 0.4 0.5 1.0 1.5 1.7 2.0 2.3 3.9 2.9 3.1 3.1 3.6 3.3 3.0 3.1 2.6 2.9 2.4 1.5 1.1 2.3 2.2 1.9 2.7 2.6 2.7 2.1 3.5 4.3 3.5
2.9 3.3 3.3 2.7 2.3 1.7 1.5 1.6 1.3 1.1 1.6 1.4 1.1 1.3 1.1 1.0 1.1 1.7 1.5 3.1 4.6 4.6 4.5 2.8 3.5 3.0 2.4 2.0 2.5 2.3 2.4 2.2 1.4 2.3 1.7 1.6 2.5 2.8 1.8 1.6 1.8 1.4 1.1
4.3 4.2 3.7 3.4 3.3 2.6 1.9 1.6 1.4 1.2 1.5 1.6 1.7 1.6 1.2 0.8 0.9 1.4 1.4 3.1 3.2 2.1 2.4 2.3 2.2 2.0 2.4 2.1 2.0 2.1 1.8 1.5 1.5 2.2 2.3 2.5 1.8 2.5 2.9 2.6 2.5 2.5 1.2
6.2 5.4 4.1 2.9 2.4 1.8 1.4 1.3 1.3 1.6 1.8 1.0 1.0 1.1 1.3 2.5 2.9 3.0 3.0 2.7 2.3 2.1 2.2 2.0 1.7 1.3 1.3 1.7 1.6 1.7 1.6 1.6 1.3 1.3 1.9 1.6 1.8 3.0 1.6 2.6 2.5 2.1 1.2
3.9 3.0 2.0 1.9 1.2 0.9 0.8 0.6 0.6 1.3 1.0 1.4 1.9 0.9 2.6 2.9 2.7 2.6 2.3 2.3 1.8 1.7 2.3 2.7 2.8 2.6 2.3 3.0 2.9 2.8 2.2 1.9 2.2 2.3 1.6 1.4 1.7 1.8 2.4 2.1 1.9 2.6 1.9
1.6 1.4 0.8 0.7 0.6 0.3 0.8 0.3 1.7 1.7 1.8 1.4 1.4 2.1 1.4 1.9 1.9 1.6 1.6 1.9 1.3 1.1 0.8 2.7 2.5 1.5 1.1 2.0 2.6 3.3 3.2 2.1 2.0 2.6 3.3 2.2 1.9 2.0 2.4 2.7 2.3 3.2 2.6
0.3 0.4 0.6 0.6 1.0 0.5 1.2 1.2 1.5 3.0 3.9 2.8 1.8 1.5 2.0 2.2 2.1 2.2 1.4 0.5 0.3 0.5 0.8 1.3 1.8 1.9 1.1 0.8 2.1 2.4 2.4 2.4 2.9 3.2 4.7 3.8 2.1 1.7 2.7 2.6 2.4 2.5 2.4
0.8 1.1 1.4 1.2 2.0 2.6 3.2 3.5 2.7 1.3 2.3 2.4 2.0 1.6 1.0 1.3 1.1 1.8 1.5 1.0 0.6 1.1 1.3 1.0 0.6 0.8 0.7 0.9 1.4 1.4 1.1 2.5 3.9 4.0 4.4 3.4 2.5 1.0 2.9 2.9 2.6 3.1 2.3
1.0 1.6 1.5 1.7 1.7 2.9 3.2 2.8 2.2 1.5 1.3 1.4 1.8 1.3 1.3 0.9 0.7 0.8 0.6 0.5 0.5 1.0 0.6 0.5 0.7 0.6 0.6 0.9 0.8 1.5 1.3 1.5 2.6 3.7 5.0 4.6 3.2 2.1 2.7 3.2 2.8 3.7 2.2

GFSGL_prec_kuchsnow_087.txt.gz
Snowfall_Accumulation
0.0 0.0 0.0 0.0 0.0 0.0 0.0 0.0 0.0 0.0 0.0 0.0 0.0 0.0 0.0 0.0 0.0 0.0 0.0 0.0 0.0 0.0 0.0 0.0 0.0 0.0 0.0 0.0 0.0 0.0 0.0 0.0 0.1 0.0 0.0 0.0 0.0 0.0 0.0 0.0 0.0 0.0 0.0
0.0 0.0 0.0 0.0 0.0 0.0 0.0 0.0 0.0 0.0 0.0 0.0 0.0 0.0 0.0 0.0 0.0 0.0 0.0 0.0 0.0 0.0 0.0 0.0 0.0 0.0 0.0 0.0 0.0 0.0 0.0 0.0 0.0 0.0 0.0 0.0 0.0 0.0 0.0 0.0 0.0 0.0 0.0
0.0 0.0 0.0 0.0 0.0 0.0 0.0 0.0 0.0 0.0 0.0 0.0 0.0 0.0 0.0 0.0 0.0 0.0 0.0 0.0 0.0 0.0 0.0 0.0 0.0 0.0 0.0 0.0 0.0 0.0 0.0 0.0 0.0 0.2 0.1 0.0 0.0 0.0 0.0 0.0 0.0 0.0 0.0
0.0 0.0 0.0 0.0 0.0 0.0 0.0 0.0 0.0 0.0 0.0 0.0 0.0 0.0 0.0 0.0 0.0 0.0 0.0 0.0 0.0 0.0 0.0 0.0 0.0 0.0 0.0 0.0 0.0 0.0 0.0 0.0 0.0 0.1 0.1 0.1 0.0 0.0 0.0 0.1 0.0 0.0 0.0
0.0 0.0 0.0 0.0 0.0 0.0 0.0 0.0 0.0 0.0 0.0 0.0 0.0 0.0 0.0 0.0 0.0 0.0 0.0 0.0 0.0 0.0 0.0 0.0 0.0 0.0 0.0 0.0 0.0 0.0 0.0 0.1 0.3 0.4 0.3 0.2 0.1 0.0 0.1 0.3 0.1 0.0 0.0
0.0 0.0 0.0 0.0 0.0 0.0 0.0 0.0 0.0 0.0 0.0 0.0 0.0 0.0 0.0 0.0 0.0 0.0 0.0 0.0 0.0 0.0 0.0 0.0 0.0 0.0 0.0 0.0 0.0 0.0 0.1 0.5 1.0 0.8 0.6 0.6 0.2 0.3 0.3 0.3 0.3 0.5 0.6
0.0 0.0 0.0 0.0 0.0 0.0 0.0 0.0 0.0 0.0 0.0 0.1 0.0 0.0 0.0 0.0 0.0 0.0 0.0 0.0 0.0 0.0 0.0 0.0 0.0 0.0 0.0 0.0 0.0 0.0 0.1 0.0 0.6 1.4 2.2 1.2 0.7 0.3 0.1 0.4 0.4 0.9 0.9
0.0 0.0 0.0 0.0 0.0 0.0 0.0 0.0 0.0 0.0 0.0 0.0 0.0 0.0 0.0 0.0 0.0 0.0 0.0 0.0 0.0 0.0 0.0 0.0 0.0 0.0 0.0 0.1 0.7 0.8 0.2 0.1 0.1 0.3 0.7 0.3 0.1 0.1 0.2 0.4 1.1 1.2 0.2
0.0 0.0 0.0 0.0 0.0 0.0 0.0 0.0 0.0 0.0 0.0 0.0 0.0 0.0 0.0 0.0 0.0 0.0 0.0 0.0 0.0 0.0 0.0 0.0 0.0 0.1 0.2 0.6 1.4 1.8 0.7 0.2 0.0 0.1 0.1 0.1 0.1 0.1 0.2 1.7 2.7 3.5 2.3
0.0 0.0 0.0 0.0 0.0 0.0 0.0 0.0 0.0 0.0 0.0 0.0 0.0 0.0 0.0 0.0 0.0 0.0 0.0 0.1 0.2 0.1 0.1 0.0 0.1 0.1 1.2 1.3 3.2 2.5 2.4 0.5 0.1 0.1 0.1 0.1 0.1 0.2 0.2 0.7 2.0 5.1 2.7
0.0 0.0 0.0 0.0 0.0 0.0 0.0 0.0 0.0 0.0 0.0 0.0 0.0 0.0 0.0 0.0 0.1 0.0 0.0 0.1 0.7 0.7 0.3 0.2 0.2 2.2 1.7 1.1 1.2 2.3 2.6 0.6 0.4 0.7 0.5 0.3 0.2 0.3 0.3 0.3 0.5 2.3 4.2
0.0 0.0 0.0 0.0 0.0 0.0 0.0 0.0 0.0 0.0 0.0 0.0 0.1 0.1 0.0 0.1 0.1 0.1 0.1 0.0 0.3 1.9 1.2 1.3 2.1 0.6 1.0 0.3 0.9 1.8 0.7 0.6 1.3 1.5 1.8 1.3 1.6 1.3 0.8 0.8 0.9 1.2 0.7
0.0 0.0 0.0 0.0 0.0 0.0 0.0 0.0 0.0 0.0 0.0 0.0 0.0 0.1 0.0 0.0 0.1 0.2 0.1 0.2 0.2 1.2 2.2 2.3 1.3 1.2 0.6 0.6 1.3 1.3 0.8 2.1 3.0 3.3 2.5 1.5 1.4 1.2 1.0 1.4 1.1 0.9 1.0
0.0 0.0 0.0 0.0 0.0 0.0 0.0 0.0 0.0 0.0 0.0 0.0 0.0 0.0 0.1 0.1 0.1 0.1 1.4 0.9 0.6 1.5 1.2 1.7 1.9 1.1 1.1 1.7 1.9 1.8 2.6 2.8 3.0 3.4 2.6 1.5 1.3 1.7 2.9 2.5 4.6 3.2 3.7
0.0 0.0 0.0 0.0 0.0 0.0 0.0 0.0 0.0 0.0 0.0 0.0 0.0 0.9 1.7 2.0 1.9 2.4 2.2 2.3 3.2 2.4 1.8 2.6 2.1 1.8 1.9 1.7 1.2 1.0 1.4 1.3 1.8 2.0 2.7 2.1 1.5 2.5 2.6 2.1 2.9 3.2 4.9
0.0 0.0 0.0 0.0 0.0 0.0 0.0 0.2 0.6 1.1 1.9 2.2 2.5 2.3 2.3 1.8 1.3 1.1 1.3 2.1 2.4 2.0 4.0 4.0 3.2 3.1 2.7 1.8 1.8 1.3 0.7 1.5 1.2 1.8 2.0 1.5 2.4 3.1 3.2 2.0 2.5 3.6 4.0
0.0 0.0 0.0 0.1 0.1 0.7 0.8 1.0 1.7 4.4 2.8 2.4 2.0 1.4 0.9 0.9 0.9 1.2 1.6 1.8 2.3 1.8 4.5 3.1 3.3 3.3 2.5 1.4 1.5 1.9 2.6 1.5 2.4 2.8 2.7 3.8 3.7 3.8 3.2 3.7 3.7 2.3 2.2
0.0 0.1 2.3 4.7 4.9 5.0 4.5 4.0 3.1 3.1 2.8 2.7 1.6 0.7 0.6 1.0 1.5 1.7 2.0 2.3 3.9 2.9 3.1 3.1 3.6 3.3 3.0 3.1 2.6 2.9 2.4 1.5 1.1 2.4 2.2 2.0 2.8 2.8 2.8 2.2 3.5 4.4 3.5
5.3 6.6 6.4 5.1 3.8 2.9 2.5 2.5 2.0 1.6 2.0 1.8 1.4 1.4 1.2 1.0 1.1 1.7 1.5 3.1 4.6 4.6 4.5 2.8 3.5 3.0 2.4 2.0 2.5 2.3 2.4 2.2 1.4 2.3 1.7 1.7 2.6 2.9 1.9 1.6 1.8 1.5 1.2
6.5 6.3 5.1 4.5 4.3 3.6 2.8 2.3 1.9 1.5 1.8 1.9 2.0 1.9 1.3 0.8 0.9 1.4 1.4 3.1 3.2 2.1 2.4 2.3 2.2 2.0 2.4 2.1 2.0 2.1 1.8 1.5 1.5 2.2 2.3 2.5 1.9 2.6 3.0 2.7 2.6 2.7 1.3
7.6 6.9 5.5 4.0 3.1 2.3 1.7 1.6 1.5 1.7 1.9 1.1 1.0 1.1 1.3 2.5 2.9 3.0 3.0 2.7 2.3 2.1 2.2 2.0 1.7 1.3 1.3 1.7 1.6 1.7 1.6 1.6 1.3 1.3 1.9 1.6 1.9 3.1 1.7 2.7 2.5 2.2 1.2
4.2 3.3 2.3 2.1 1.4 1.1 0.9 0.6 0.6 1.3 1.0 1.4 1.9 0.9 2.6 2.9 2.7 2.6 2.3 2.3 1.8 1.7 2.3 2.7 2.8 2.6 2.3 3.0 2.9 2.8 2.2 1.9 2.2 2.3 1.7 1.4 1.7 1.9 2.5 2.2 2.0 2.7 2.0
1.7 1.4 0.9 0.7 0.6 0.3 0.8 0.3 1.7 1.7 1.8 1.4 1.4 2.1 1.4 1.9 1.9 1.6 1.6 1.9 1.3 1.1 0.8 2.7 2.5 1.5 1.1 2.0 2.6 3.3 3.3 2.1 2.0 2.6 3.4 2.3 2.0 2.1 2.5 2.8 2.4 3.4 2.7
0.3 0.4 0.6 0.6 1.0 0.5 1.2 1.2 1.5 3.0 3.9 2.8 1.8 1.5 2.0 2.2 2.1 2.2 1.4 0.5 0.3 0.5 0.8 1.3 1.8 1.9 1.1 0.8 2.1 2.4 2.4 2.4 2.9 3.2 4.8 3.9 2.2 1.7 2.8 2.7 2.5 2.6 2.5
0.8 1.1 1.4 1.2 2.0 2.6 3.2 3.5 2.7 1.3 2.3 2.4 2.0 1.6 1.0 1.3 1.1 1.8 1.5 1.0 0.6 1.1 1.3 1.0 0.6 0.8 0.7 0.9 1.4 1.4 1.1 2.5 3.9 4.0 4.4 3.5 2.7 1.1 3.0 3.0 2.7 3.2 2.4
1.0 1.6 1.5 1.7 1.7 2.9 3.2 2.8 2.2 1.5 1.3 1.4 1.8 1.3 1.3 0.9 0.7 0.8 0.6 0.5 0.5 1.0 0.6 0.5 0.7 0.6 0.6 0.9 0.8 1.5 1.3 1.5 2.6 3.7 5.0 4.7 3.3 2.3 2.9 3.3 3.0 3.8 2.3

GFSGL_prec_kuchsnow_093.txt.gz
Snowfall_Accumulation
0.0 0.0 0.0 0.0 0.0 0.0 0.0 0.0 0.0 0.0 0.0 0.0 0.0 0.0 0.0 0.0 0.0 0.0 0.0 0.0 0.0 0.0 0.0 0.0 0.0 0.0 0.0 0.0 0.0 0.0 0.0 0.0 0.1 0.0 0.0 0.0 0.0 0.0 0.0 0.0 0.0 0.0 0.0
0.0 0.0 0.0 0.0 0.0 0.0 0.0 0.0 0.0 0.0 0.0 0.0 0.0 0.0 0.0 0.0 0.0 0.0 0.0 0.0 0.0 0.0 0.0 0.0 0.0 0.0 0.0 0.0 0.0 0.0 0.0 0.0 0.0 0.0 0.0 0.0 0.0 0.0 0.0 0.0 0.0 0.0 0.0
0.0 0.0 0.0 0.0 0.0 0.0 0.0 0.0 0.0 0.0 0.0 0.0 0.0 0.0 0.0 0.0 0.0 0.0 0.0 0.0 0.0 0.0 0.0 0.0 0.0 0.0 0.0 0.0 0.0 0.0 0.0 0.0 0.0 0.2 0.1 0.0 0.0 0.0 0.0 0.0 0.0 0.0 0.0
0.0 0.0 0.0 0.0 0.0 0.0 0.0 0.0 0.0 0.0 0.0 0.0 0.0 0.0 0.0 0.0 0.0 0.0 0.0 0.0 0.0 0.0 0.0 0.0 0.0 0.0 0.0 0.0 0.0 0.0 0.0 0.0 0.0 0.1 0.1 0.1 0.0 0.0 0.0 0.1 0.0 0.0 0.0
0.0 0.0 0.0 0.0 0.0 0.0 0.0 0.0 0.0 0.0 0.0 0.0 0.0 0.0 0.0 0.0 0.0 0.0 0.0 0.0 0.0 0.0 0.0 0.0 0.0 0.0 0.0 0.0 0.0 0.0 0.0 0.1 0.3 0.4 0.3 0.2 0.1 0.0 0.1 0.3 0.1 0.0 0.0
0.0 0.0 0.0 0.0 0.0 0.0 0.0 0.0 0.0 0.0 0.0 0.0 0.0 0.0 0.0 0.0 0.0 0.0 0.0 0.0 0.0 0.0 0.0 0.0 0.0 0.0 0.0 0.0 0.0 0.0 0.1 0.5 1.0 0.8 0.6 0.6 0.2 0.3 0.3 0.3 0.3 0.6 0.7
0.0 0.0 0.0 0.0 0.0 0.0 0.0 0.0 0.0 0.0 0.0 0.1 0.0 0.0 0.0 0.0 0.0 0.0 0.0 0.0 0.0 0.0 0.0 0.0 0.0 0.0 0.0 0.0 0.0 0.0 0.1 0.0 0.6 1.4 2.2 1.2 0.7 0.3 0.7 1.6 1.3 1.6 1.4
0.0 0.0 0.0 0.0 0.0 0.0 0.0 0.0 0.0 0.0 0.0 0.0 0.0 0.0 0.0 0.0 0.0 0.0 0.0 0.0 0.0 0.0 0.0 0.0 0.0 0.0 0.0 0.1 0.7 0.8 0.2 0.1 0.1 0.8 0.7 1.0 1.2 0.7 0.3 0.4 1.1 1.2 0.2
0.0 0.0 0.0 0.0 0.0 0.0 0.0 0.0 0.0 0.0 0.0 0.0 0.0 0.0 0.0 0.0 0.0 0.0 0.0 0.0 0.0 0.0 0.0 0.0 0.0 0.1 0.2 0.6 1.4 1.8 0.7 0.2 0.5 0.1 0.3 0.3 0.2 0.1 0.2 1.7 2.7 3.5 2.3
0.0 0.0 0.0 0.0 0.0 0.0 0.0 0.0 0.0 0.0 0.0 0.0 0.0 0.0 0.0 0.0 0.0 0.0 0.0 0.1 0.2 0.1 0.1 0.0 0.1 0.1 1.2 1.3 3.2 2.5 2.5 0.5 0.1 0.2 0.1 0.1 0.1 0.2 0.2 0.7 2.0 5.1 2.7
0.0 0.0 0.0 0.0 0.0 0.0 0.0 0.0 0.0 0.0 0.0 0.0 0.0 0.0 0.0 0.0 0.1 0.0 0.0 0.1 0.7 0.7 0.3 0.2 0.2 2.2 1.7 1.2 1.2 2.3 2.6 0.7 0.5 0.7 0.5 0.3 0.2 0.3 0.3 0.3 0.5 2.3 4.2
0.0 0.0 0.0 0.0 0.0 0.0 0.0 0.0 0.0 0.0 0.0 0.0 0.1 0.1 0.0 0.1 0.1 0.1 0.1 0.0 0.3 1.9 1.2 1.3 2.3 0.8 1.2 0.5 1.0 1.8 0.7 0.7 1.3 1.5 1.8 1.3 1.6 1.3 0.8 0.8 0.9 1.2 0.7
0.0 0.0 0.0 0.0 0.0 0.0 0.0 0.0 0.0 0.0 0.0 0.0 0.0 0.1 0.0 0.0 0.1 0.2 0.1 0.2 0.2 1.2 2.3 3.4 2.6 2.0 0.9 0.9 1.8 1.7 1.0 2.2 3.0 3.3 2.5 1.5 1.4 1.2 1.0 1.4 1.1 0.9 1.0
0.0 0.0 0.0 0.0 0.0 0.0 0.0 0.0 0.0 0.0 0.0 0.0 0.0 0.0 0.1 0.1 0.1 0.1 1.4 1.3 2.4 3.4 3.5 3.9 4.1 3.0 2.8 3.0 2.6 2.0 2.6 2.8 3.0 3.4 2.6 1.5 1.3 1.7 2.9 2.5 4.6 3.2 3.7
0.0 0.0 0.0 0.0 0.0 0.0 0.0 0.0 0.0 0.0 0.0 0.0 0.0 0.9 1.7 2.0 1.9 7.9 7.4 8.1 8.2 6.7 5.4 5.7 4.5 3.3 2.5 1.9 1.3 1.1 1.4 1.3 1.8 2.0 2.7 2.1 1.5 2.5 2.6 2.1 2.9 3.2 4.9
0.0 0.0 0.0 0.0 0.0 0.0 0.0 0.2 0.6 1.1 2.6 5.4 3.4 5.9 7.8 7.4 7.0 6.1 5.4 5.5 5.1 4.1 5.4 4.9 3.8 3.5 3.0 1.8 1.8 1.3 0.7 1.5 1.2 1.8 2.0 1.5 2.4 3.1 3.2 2.0 2.5 3.6 4.0
0.0 0.0 1.6 1.5 1.4 2.0 0.8 1.0 1.7 6.8 8.6 8.7 8.5 8.0 7.3 7.4 5.7 4.3 3.4 3.0 3.0 2.2 4.9 3.5 3.5 3.3 2.5 1.4 1.5 1.9 2.6 1.5 2.4 2.8 2.7 3.8 3.7 3.8 3.2 3.7 3.7 2.3 2.2
0.0 3.4 8.3 12.9 14.8 15.3 15.1 14.4 12.9 13.0 12.6 12.4 9.7 6.9 4.5 3.4 3.5 3.4 3.3 3.1 4.5 3.1 3.3 3.1 3.6 3.3 3.0 3.1 2.6 2.9 2.4 1.5 1.1 2.4 2.2 2.0 2.8 2.8 2.8 2.2 3.5 4.4 3.5
6.4 8.7 10.1 10.2 9.4 8.5 8.1 8.1 8.0 7.5 7.5 6.8 5.7 4.8 3.7 2.7 2.2 2.3 1.8 3.3 4.7 4.6 4.5 2.8 3.5 3.0 2.4 2.0 2.5 2.3 2.4 2.2 1.4 2.3 1.7 1.7 2.6 2.9 1.9 1.6 1.8 1.5 1.2
7.6 7.8 6.8 6.6 7.1 6.6 5.6 5.0 4.4 3.7 3.7 3.6 3.8 3.8 2.6 1.0 0.9 1.4 1.4 3.1 3.2 2.1 2.4 2.3 2.2 2.0 2.4 2.1 2.0 2.1 1.8 1.5 1.5 2.2 2.3 2.5 1.9 2.6 3.0 2.7 2.6 2.7 1.3
8.1 7.6 5.7 4.8 4.2 3.5 2.7 2.3 2.1 2.2 2.1 1.3 1.1 1.1 1.3 2.5 2.9 3.0 3.0 2.7 2.3 2.1 2.2 2.0 1.7 1.3 1.3 1.7 1.6 1.7 1.6 1.6 1.3 1.3 1.9 1.6 1.9 3.1 1.7 2.7 2.5 2.2 1.2
4.5 3.6 2.6 2.5 1.6 1.3 1.1 0.7 0.6 1.3 1.0 1.4 1.9 0.9 2.6 2.9 2.7 2.6 2.3 2.3 1.8 1.7 2.3 2.7 2.8 2.6 2.3 3.0 2.9 2.8 2.2 1.9 2.2 2.3 1.7 1.4 1.7 1.9 2.5 2.2 2.0 2.7 2.0
2.1 1.7 1.0 0.8 0.7 0.3 0.8 0.3 1.7 1.7 1.8 1.4 1.4 2.1 1.4 1.9 1.9 1.6 1.6 1.9 1.3 1.1 0.8 2.7 2.5 1.5 1.1 2.0 2.6 3.3 3.3 2.1 2.0 2.6 3.4 2.3 2.0 2.1 2.5 2.8 2.4 3.4 2.7
0.4 0.4 0.6 0.6 1.0 0.5 1.2 1.2 1.5 3.0 3.9 2.8 1.8 1.5 2.0 2.2 2.1 2.2 1.4 0.5 0.3 0.5 0.8 1.3 1.8 1.9 1.1 0.8 2.1 2.4 2.4 2.4 2.9 3.2 4.8 3.9 2.2 1.7 2.8 2.7 2.5 2.6 2.5
0.8 1.1 1.4 1.2 2.0 2.6 3.2 3.5 2.7 1.3 2.3 2.4 2.0 1.6 1.0 1.3 1.1 1.8 1.5 1.0 0.6 1.1 1.3 1.0 0.6 0.8 0.7 0.9 1.4 1.4 1.2 2.5 3.9 4.0 4.4 3.5 2.7 1.1 3.0 3.0 2.7 3.3 2.4
1.0 1.6 1.5 1.7 1.7 2.9 3.2 2.8 2.2 1.5 1.3 1.4 1.8 1.3 1.3 0.9 0.7 0.8 0.6 0.5 0.5 1.0 0.6 0.5 0.7 0.6 0.6 0.9 0.9 1.5 1.3 1.5 2.6 3.7 5.1 4.8 3.4 2.3 3.0 3.5 3.1 4.0 2.3

GFSGL_prec_kuchsnow_096.txt.gz
Snowfall_Accumulation
0.0 0.0 0.0 0.0 0.0 0.0 0.0 0.0 0.0 0.0 0.0 0.0 0.0 0.0 0.0 0.0 0.0 0.0 0.0 0.0 0.0 0.0 0.0 0.0 0.0 0.0 0.0 0.0 0.0 0.0 0.0 0.0 0.1 0.0 0.0 0.0 0.0 0.0 0.0 0.0 0.0 0.0 0.0
0.0 0.0 0.0 0.0 0.0 0.0 0.0 0.0 0.0 0.0 0.0 0.0 0.0 0.0 0.0 0.0 0.0 0.0 0.0 0.0 0.0 0.0 0.0 0.0 0.0 0.0 0.0 0.0 0.0 0.0 0.0 0.0 0.0 0.0 0.0 0.0 0.0 0.0 0.0 0.0 0.0 0.0 0.0
0.0 0.0 0.0 0.0 0.0 0.0 0.0 0.0 0.0 0.0 0.0 0.0 0.0 0.0 0.0 0.0 0.0 0.0 0.0 0.0 0.0 0.0 0.0 0.0 0.0 0.0 0.0 0.0 0.0 0.0 0.0 0.0 0.0 0.2 0.1 0.0 0.0 0.0 0.0 0.0 0.0 0.0 0.0
0.0 0.0 0.0 0.0 0.0 0.0 0.0 0.0 0.0 0.0 0.0 0.0 0.0 0.0 0.0 0.0 0.0 0.0 0.0 0.0 0.0 0.0 0.0 0.0 0.0 0.0 0.0 0.0 0.0 0.0 0.0 0.0 0.0 0.1 0.1 0.1 0.0 0.0 0.0 0.1 0.0 0.0 0.0
0.0 0.0 0.0 0.0 0.0 0.0 0.0 0.0 0.0 0.0 0.0 0.0 0.0 0.0 0.0 0.0 0.0 0.0 0.0 0.0 0.0 0.0 0.0 0.0 0.0 0.0 0.0 0.0 0.0 0.0 0.0 0.1 0.3 0.4 0.3 0.2 0.1 0.0 0.1 0.3 0.1 0.0 0.0
0.0 0.0 0.0 0.0 0.0 0.0 0.0 0.0 0.0 0.0 0.0 0.0 0.0 0.0 0.0 0.0 0.0 0.0 0.0 0.0 0.0 0.0 0.0 0.0 0.0 0.0 0.0 0.0 0.0 0.0 0.1 0.5 1.0 0.8 0.6 0.6 0.2 0.3 0.3 0.3 0.3 0.6 0.7
0.0 0.0 0.0 0.0 0.0 0.0 0.0 0.0 0.0 0.0 0.0 0.1 0.0 0.0 0.0 0.0 0.0 0.0 0.0 0.0 0.0 0.0 0.0 0.0 0.0 0.0 0.0 0.0 0.0 0.0 0.1 0.0 0.6 1.4 2.2 1.2 0.7 0.3 0.7 1.6 1.3 1.6 1.4
0.0 0.0 0.0 0.0 0.0 0.0 0.0 0.0 0.0 0.0 0.0 0.0 0.0 0.0 0.0 0.0 0.0 0.0 0.0 0.0 0.0 0.0 0.0 0.0 0.0 0.0 0.0 0.1 0.7 0.8 0.2 0.1 0.1 0.8 0.7 1.0 1.2 0.7 0.3 0.4 1.1 1.2 0.2
0.0 0.0 0.0 0.0 0.0 0.0 0.0 0.0 0.0 0.0 0.0 0.0 0.0 0.0 0.0 0.0 0.0 0.0 0.0 0.0 0.0 0.0 0.0 0.0 0.0 0.1 0.2 0.6 1.4 1.8 0.7 0.2 0.5 0.1 0.3 0.3 0.2 0.1 0.2 1.7 2.7 3.5 2.3
0.0 0.0 0.0 0.0 0.0 0.0 0.0 0.0 0.0 0.0 0.0 0.0 0.0 0.0 0.0 0.0 0.0 0.0 0.0 0.1 0.2 0.1 0.1 0.0 0.1 0.1 1.2 1.3 3.2 2.5 2.5 0.5 0.1 0.6 0.3 0.2 0.2 0.2 0.2 0.7 2.0 5.1 2.7
0.0 0.0 0.0 0.0 0.0 0.0 0.0 0.0 0.0 0.0 0.0 0.0 0.0 0.0 0.0 0.0 0.1 0.0 0.0 0.1 0.7 0.7 0.3 0.2 0.2 2.2 1.7 1.2 1.2 2.3 2.6 2.0 1.6 1.3 0.7 0.4 0.2 0.3 0.3 0.3 0.5 2.3 4.2
0.0 0.0 0.0 0.0 0.0 0.0 0.0 0.0 0.0 0.0 0.0 0.0 0.1 0.1 0.0 0.1 0.1 0.1 0.1 0.0 0.3 1.9 1.2 1.3 2.3 0.8 1.2 0.5 1.0 3.3 2.2 2.1 2.7 2.7 2.4 1.4 1.6 1.3 0.8 0.8 0.9 1.2 0.7
0.0 0.0 0.0 0.0 0.0 0.0 0.0 0.0 0.0 0.0 0.0 0.0 0.0 0.1 0.0 0.0 0.1 0.2 0.1 0.2 0.2 1.2 2.3 3.4 2.6 4.5 3.6 4.0 4.6 4.5 3.9 4.7 4.8 4.1 2.7 1.5 1.4 1.2 1.0 1.4 1.1 0.9 1.0
0.0 0.0 0.0 0.0 0.0 0.0 0.0 0.0 0.0 0.0 0.0 0.0 0.0 0.0 0.1 0.1 0.1 0.1 1.4 1.3 2.4 3.4 8.5 9.3 10.9 9.8 8.9 8.2 6.8 4.6 4.0 3.5 3.2 3.5 2.6 1.5 1.3 1.7 2.9 2.5 4.6 3.2 3.7
0.0 0.0 0.0 0.0 0.0 0.0 0.0 0.0 0.0 0.0 0.0 0.0 0.0 0.9 1.7 2.0 1.9 12.1 11.7 8.1 13.5 12.7 11.7 11.7 10.2 8.3 6.5 4.9 3.2 1.9 1.6 1.4 1.8 2.0 2.7 2.1 1.5 2.5 2.6 2.1 2.9 3.2 4.9
0.0 0.0 0.0 0.0 0.0 0.0 0.0 0.2 0.6 1.1 2.6 7.3 3.4 8.8 11.5 7.4 10.9 9.7 9.2 9.2 8.7 7.3 8.3 7.6 6.0 5.1 3.9 2.3 2.0 1.3 0.7 1.5 1.2 1.8 2.0 1.5 2.4 3.1 3.2 2.0 2.5 3.6 4.0
0.0 0.0 1.6 1.5 1.4 2.0 0.8 1.0 1.7 10.7 13.3 12.8 11.9 10.8 9.8 10.4 8.7 7.3 6.1 5.1 4.7 3.5 6.3 4.7 4.2 3.7 2.7 1.5 1.6 1.9 2.6 1.5 2.4 2.8 2.7 3.8 3.7 3.8 3.2 3.7 3.7 2.3 2.2
0.0 3.4 8.3 12.9 14.8 15.3 15.1 16.9 16.0 16.3 15.8 16.1 13.6 10.6 7.8 6.2 5.8 5.4 5.0 4.5 6.0 4.3 4.2 3.7 4.0 3.5 3.0 3.1 2.6 2.9 2.4 1.5 1.1 2.4 2.2 2.0 2.8 2.8 2.8 2.2 3.5 4.4 3.5
6.4 8.7 10.2 10.5 9.9 8.5 8.1 9.4 9.8 9.7 9.6 8.9 7.9 6.8 5.5 4.1 3.2 3.0 2.2 3.5 4.9 4.6 4.5 2.8 3.5 3.0 2.4 2.0 2.5 2.3 2.4 2.2 1.4 2.3 1.7 1.7 2.6 2.9 1.9 1.6 1.8 1.5 1.2
7.7 7.9 6.8 6.7 7.2 6.6 5.6 5.0 5.2 4.4 4.3 4.3 4.5 4.5 3.0 1.0 0.9 1.4 1.4 3.1 3.2 2.1 2.4 2.3 2.2 2.0 2.4 2.1 2.0 2.1 1.8 1.5 1.5 2.2 2.3 2.5 1.9 2.6 3.0 2.7 2.6 2.7 1.3
8.4 7.8 5.8 4.8 4.3 3.6 2.7 2.5 2.3 2.4 2.3 1.5 1.3 1.1 1.3 2.5 2.9 3.0 3.0 2.7 2.3 2.1 2.2 2.0 1.7 1.3 1.3 1.7 1.6 1.7 1.6 1.6 1.3 1.3 1.9 1.6 1.9 3.1 1.7 2.7 2.5 2.2 1.2
4.8 3.9 2.9 2.7 1.8 1.4 1.2 0.8 0.7 1.4 1.0 1.4 1.9 0.9 2.6 2.9 2.7 2.6 2.3 2.3 1.8 1.7 2.3 2.7 2.8 2.6 2.3 3.0 2.9 2.8 2.2 1.9 2.2 2.3 1.7 1.4 1.7 1.9 2.5 2.2 2.0 2.7 2.0
2.4 2.0 1.2 1.0 0.8 0.5 0.9 0.3 1.7 1.7 1.8 1.4 1.4 2.1 1.4 1.9 1.9 1.6 1.6 1.9 1.3 1.1 0.8 2.7 2.5 1.5 1.1 2.0 2.6 3.3 3.3 2.1 2.0 2.6 3.4 2.3 2.0 2.1 2.5 2.8 2.4 3.4 2.7
0.9 0.8 0.9 0.6 1.0 0.5 1.2 1.2 1.5 3.0 3.9 2.8 1.8 1.5 2.0 2.2 2.1 2.2 1.4 0.5 0.3 0.5 0.8 1.3 1.8 1.9 1.1 0.8 2.1 2.4 2.4 2.4 2.9 3.2 4.8 3.9 2.2 1.7 2.8 2.7 2.5 2.6 2.5
0.8 1.1 1.4 1.2 2.0 2.6 3.2 3.5 2.7 1.3 2.3 2.4 2.0 1.6 1.0 1.3 1.1 1.8 1.5 1.0 0.6 1.1 1.3 1.0 0.6 0.8 0.7 0.9 1.4 1.4 1.2 2.5 3.9 4.0 4.4 3.5 2.7 1.1 3.0 3.0 2.7 3.3 2.4
1.0 1.6 1.5 1.7 1.7 2.9 3.2 2.8 2.2 1.5 1.3 1.4 1.8 1.3 1.3 0.9 0.7 0.8 0.6 0.5 0.5 1.0 0.6 0.5 0.7 0.6 0.6 0.9 0.9 1.5 1.3 1.5 2.6 3.7 5.1 4.8 3.4 2.3 3.0 3.5 3.1 4.0 2.3

GFSGL_prec_kuchsnow_099.txt.gz
Snowfall_Accumulation
0.0 0.0 0.0 0.0 0.0 0.0 0.0 0.0 0.0 0.0 0.0 0.0 0.0 0.0 0.0 0.0 0.0 0.0 0.0 0.0 0.0 0.0 0.0 0.0 0.0 0.0 0.0 0.0 0.0 0.0 0.0 0.0 0.1 0.0 0.0 0.0 0.0 0.0 0.0 0.0 0.0 0.0 0.0
0.0 0.0 0.0 0.0 0.0 0.0 0.0 0.0 0.0 0.0 0.0 0.0 0.0 0.0 0.0 0.0 0.0 0.0 0.0 0.0 0.0 0.0 0.0 0.0 0.0 0.0 0.0 0.0 0.0 0.0 0.0 0.0 0.0 0.0 0.0 0.0 0.0 0.0 0.0 0.0 0.0 0.0 0.0
0.0 0.0 0.0 0.0 0.0 0.0 0.0 0.0 0.0 0.0 0.0 0.0 0.0 0.0 0.0 0.0 0.0 0.0 0.0 0.0 0.0 0.0 0.0 0.0 0.0 0.0 0.0 0.0 0.0 0.0 0.0 0.0 0.0 0.2 0.1 0.0 0.0 0.0 0.0 0.0 0.0 0.0 0.0
0.0 0.0 0.0 0.0 0.0 0.0 0.0 0.0 0.0 0.0 0.0 0.0 0.0 0.0 0.0 0.0 0.0 0.0 0.0 0.0 0.0 0.0 0.0 0.0 0.0 0.0 0.0 0.0 0.0 0.0 0.0 0.0 0.0 0.1 0.1 0.1 0.0 0.0 0.0 0.1 0.0 0.0 0.0
0.0 0.0 0.0 0.0 0.0 0.0 0.0 0.0 0.0 0.0 0.0 0.0 0.0 0.0 0.0 0.0 0.0 0.0 0.0 0.0 0.0 0.0 0.0 0.0 0.0 0.0 0.0 0.0 0.0 0.0 0.0 0.1 0.3 0.4 0.3 0.2 0.1 0.0 0.1 0.3 0.1 0.0 0.0
0.0 0.0 0.0 0.0 0.0 0.0 0.0 0.0 0.0 0.0 0.0 0.0 0.0 0.0 0.0 0.0 0.0 0.0 0.0 0.0 0.0 0.0 0.0 0.0 0.0 0.0 0.0 0.0 0.0 0.0 0.1 0.5 1.0 0.8 0.6 0.6 0.2 0.3 0.3 0.3 0.3 0.6 0.7
0.0 0.0 0.0 0.0 0.0 0.0 0.0 0.0 0.0 0.0 0.0 0.1 0.0 0.0 0.0 0.0 0.0 0.0 0.0 0.0 0.0 0.0 0.0 0.0 0.0 0.0 0.0 0.0 0.0 0.0 0.1 0.0 0.6 1.4 2.2 1.2 0.7 0.3 0.7 1.6 1.3 1.6 1.4
0.0 0.0 0.0 0.0 0.0 0.0 0.0 0.0 0.0 0.0 0.0 0.0 0.0 0.0 0.0 0.0 0.0 0.0 0.0 0.0 0.0 0.0 0.0 0.0 0.0 0.0 0.0 0.1 0.7 0.8 0.2 0.1 0.1 0.8 0.7 1.0 1.2 0.7 0.3 0.4 1.3 1.2 0.3
0.0 0.0 0.0 0.0 0.0 0.0 0.0 0.0 0.0 0.0 0.0 0.0 0.0 0.0 0.0 0.0 0.0 0.0 0.0 0.0 0.0 0.0 0.0 0.0 0.0 0.1 0.2 0.6 1.4 1.8 0.7 0.2 0.5 0.1 0.3 0.3 0.2 0.1 0.2 2.1 3.2 4.1 2.7
0.0 0.0 0.0 0.0 0.0 0.0 0.0 0.0 0.0 0.0 0.0 0.0 0.0 0.0 0.0 0.0 0.0 0.0 0.0 0.1 0.2 0.1 0.1 0.0 0.1 0.1 1.2 1.3 3.2 2.5 2.5 0.5 0.1 0.6 0.3 0.2 0.2 1.2 1.2 1.5 2.6 5.5 2.9
0.0 0.0 0.0 0.0 0.0 0.0 0.0 0.0 0.0 0.0 0.0 0.0 0.0 0.0 0.0 0.0 0.1 0.0 0.0 0.1 0.7 0.7 0.3 0.2 0.2 2.2 1.7 1.2 1.2 2.3 2.6 2.0 1.6 3.7 3.3 2.5 1.8 1.4 1.0 0.7 0.7 2.4 4.3
0.0 0.0 0.0 0.0 0.0 0.0 0.0 0.0 0.0 0.0 0.0 0.0 0.1 0.1 0.0 0.1 0.1 0.1 0.1 0.0 0.3 1.9 1.2 1.3 2.3 0.8 1.2 0.5 1.0 3.3 4.1 4.3 4.7 4.9 4.8 3.9 3.7 2.6 1.3 0.9 0.9 1.2 0.7
0.0 0.0 0.0 0.0 0.0 0.0 0.0 0.0 0.0 0.0 0.0 0.0 0.0 0.1 0.0 0.0 0.1 0.2 0.1 0.2 0.2 1.2 2.3 3.4 2.6 4.5 3.6 6.2 7.7 7.8 7.1 8.0 8.3 7.7 5.6 3.4 2.4 1.5 1.1 1.5 1.2 0.9 1.0
0.0 0.0 0.0 0.0 0.0 0.0 0.0 0.0 0.0 0.0 0.0 0.0 0.0 0.0 0.1 0.1 0.1 0.1 1.4 1.3 2.4 3.4 8.5 9.3 10.9 15.8 14.1 14.3 13.1 10.6 9.5 8.0 6.4 5.7 3.8 2.2 1.6 1.9 3.0 2.5 4.6 3.2 3.7
0.0 0.0 0.0 0.0 0.0 0.0 0.0 0.0 0.0 0.0 0.0 0.0 0.0 0.9 1.7 2.0 1.9 12.1 13.7 8.1 16.6 12.7 11.7 17.7 16.5 14.2 11.9 9.4 6.6 4.3 3.1 2.1 2.3 2.0 2.7 2.1 1.5 2.5 2.6 2.1 2.9 3.2 4.9
0.0 0.0 0.0 0.0 0.0 0.0 0.0 0.2 0.6 1.1 2.6 7.3 3.4 11.4 14.8 10.6 13.9 12.3 12.3 12.8 12.6 11.5 12.5 11.2 9.1 7.6 5.7 3.5 2.7 1.6 0.8 1.5 1.2 1.8 2.0 1.5 2.4 3.1 3.2 2.0 2.5 3.6 4.0
0.0 0.0 1.6 1.5 1.4 2.0 0.8 1.0 1.7 10.7 13.3 16.0 15.7 14.8 13.9 14.8 12.9 11.2 9.6 8.1 7.0 4.9 7.4 6.0 5.5 4.7 3.3 1.9 1.9 2.1 2.7 1.6 2.4 2.8 2.7 3.8 3.7 3.8 3.2 3.7 3.7 2.3 2.2
0.0 3.4 8.3 12.9 14.8 15.3 15.1 17.0 16.0 16.3 15.8 16.8 14.8 12.4 10.3 9.1 8.8 8.2 7.4 6.2 7.4 5.4 4.9 4.3 4.4 3.7 3.1 3.1 2.6 2.9 2.4 1.5 1.1 2.4 2.2 2.0 2.8 2.8 2.8 2.2 3.5 4.4 3.5
6.4 8.7 10.2 10.5 9.9 8.5 8.1 9.4 9.8 9.7 9.8 9.4 8.6 7.6 6.6 5.0 4.1 3.8 2.9 3.9 5.2 4.6 4.5 2.8 3.5 3.0 2.4 2.0 2.5 2.3 2.4 2.2 1.4 2.3 1.7 1.7 2.6 2.9 1.9 1.6 1.8 1.5 1.2
7.7 7.9 6.8 6.7 7.2 6.6 5.6 5.0 5.2 4.4 4.6 4.7 4.9 5.1 3.6 1.2 1.0 1.4 1.4 3.1 3.2 2.1 2.4 2.3 2.2 2.0 2.4 2.1 2.0 2.1 1.8 1.5 1.5 2.2 2.3 2.5 1.9 2.6 3.0 2.7 2.6 2.7 1.3
8.5 7.9 5.8 4.8 4.3 3.6 2.7 2.5 2.3 2.6 2.5 1.7 1.6 1.1 1.3 2.5 2.9 3.0 3.0 2.7 2.3 2.1 2.2 2.0 1.7 1.3 1.3 1.7 1.6 1.7 1.6 1.6 1.3 1.3 1.9 1.6 1.9 3.1 1.7 2.7 2.5 2.2 1.2
4.9 4.0 3.0 2.9 1.9 1.6 1.2 1.0 0.9 1.4 1.0 1.4 1.9 0.9 2.6 2.9 2.7 2.6 2.3 2.3 1.8 1.7 2.3 2.7 2.8 2.6 2.3 3.0 2.9 2.8 2.2 1.9 2.2 2.3 1.7 1.4 1.7 1.9 2.5 2.2 2.0 2.7 2.0
2.6 2.2 1.6 1.3 1.2 0.8 1.1 0.5 1.7 1.7 1.8 1.4 1.4 2.1 1.4 1.9 1.9 1.6 1.6 1.9 1.3 1.1 0.8 2.7 2.5 1.5 1.1 2.0 2.6 3.3 3.3 2.1 2.0 2.6 3.4 2.3 2.0 2.1 2.5 2.8 2.4 3.4 2.7
0.9 1.0 1.1 0.6 1.0 0.5 1.2 1.2 1.5 3.0 3.9 2.8 1.8 1.5 2.0 2.2 2.1 2.2 1.4 0.5 0.3 0.5 0.8 1.3 1.8 1.9 1.1 0.8 2.1 2.4 2.4 2.4 2.9 3.2 4.8 3.9 2.2 1.7 2.8 2.7 2.5 2.6 2.5
0.8 1.1 1.4 1.2 2.0 2.6 3.2 3.5 2.7 1.3 2.3 2.4 2.0 1.6 1.0 1.3 1.1 1.8 1.5 1.0 0.6 1.1 1.3 1.0 0.6 0.8 0.7 0.9 1.4 1.4 1.2 2.5 3.9 4.0 4.4 3.5 2.7 1.1 3.0 3.0 2.7 3.3 2.4
1.0 1.6 1.5 1.7 1.7 2.9 3.2 2.8 2.2 1.5 1.3 1.4 1.8 1.3 1.3 0.9 0.7 0.8 0.6 0.5 0.5 1.0 0.6 0.5 0.7 0.6 0.6 0.9 0.9 1.5 1.3 1.5 2.6 3.7 5.1 4.8 3.4 2.3 3.0 3.5 3.1 4.0 2.3

GFSGL_prec_kuchsnow_102.txt.gz
Snowfall_Accumulation
0.0 0.0 0.0 0.0 0.0 0.0 0.0 0.0 0.0 0.0 0.0 0.0 0.0 0.0 0.0 0.0 0.0 0.0 0.0 0.0 0.0 0.0 0.0 0.0 0.0 0.0 0.0 0.0 0.0 0.0 0.0 0.0 0.1 0.0 0.0 0.0 0.0 0.0 0.0 0.0 0.0 0.0 0.0
0.0 0.0 0.0 0.0 0.0 0.0 0.0 0.0 0.0 0.0 0.0 0.0 0.0 0.0 0.0 0.0 0.0 0.0 0.0 0.0 0.0 0.0 0.0 0.0 0.0 0.0 0.0 0.0 0.0 0.0 0.0 0.0 0.0 0.0 0.0 0.0 0.0 0.0 0.0 0.0 0.0 0.0 0.0
0.0 0.0 0.0 0.0 0.0 0.0 0.0 0.0 0.0 0.0 0.0 0.0 0.0 0.0 0.0 0.0 0.0 0.0 0.0 0.0 0.0 0.0 0.0 0.0 0.0 0.0 0.0 0.0 0.0 0.0 0.0 0.0 0.0 0.2 0.1 0.0 0.0 0.0 0.0 0.0 0.0 0.0 0.0
0.0 0.0 0.0 0.0 0.0 0.0 0.0 0.0 0.0 0.0 0.0 0.0 0.0 0.0 0.0 0.0 0.0 0.0 0.0 0.0 0.0 0.0 0.0 0.0 0.0 0.0 0.0 0.0 0.0 0.0 0.0 0.0 0.0 0.1 0.1 0.1 0.0 0.0 0.0 0.1 0.0 0.0 0.0
0.0 0.0 0.0 0.0 0.0 0.0 0.0 0.0 0.0 0.0 0.0 0.0 0.0 0.0 0.0 0.0 0.0 0.0 0.0 0.0 0.0 0.0 0.0 0.0 0.0 0.0 0.0 0.0 0.0 0.0 0.0 0.1 0.3 0.4 0.3 0.2 0.1 0.0 0.1 0.3 0.1 0.0 0.0
0.0 0.0 0.0 0.0 0.0 0.0 0.0 0.0 0.0 0.0 0.0 0.0 0.0 0.0 0.0 0.0 0.0 0.0 0.0 0.0 0.0 0.0 0.0 0.0 0.0 0.0 0.0 0.0 0.0 0.0 0.1 0.5 1.0 0.8 0.6 0.6 0.2 0.3 0.3 0.3 0.3 0.6 0.7
0.0 0.0 0.0 0.0 0.0 0.0 0.0 0.0 0.0 0.0 0.0 0.1 0.0 0.0 0.0 0.0 0.0 0.0 0.0 0.0 0.0 0.0 0.0 0.0 0.0 0.0 0.0 0.0 0.0 0.0 0.1 0.0 0.6 1.4 2.2 1.2 0.7 0.3 0.7 1.6 1.3 1.6 1.4
0.0 0.0 0.0 0.0 0.0 0.0 0.0 0.0 0.0 0.0 0.0 0.0 0.0 0.0 0.0 0.0 0.0 0.0 0.0 0.0 0.0 0.0 0.0 0.0 0.0 0.0 0.0 0.1 0.7 0.8 0.2 0.1 0.1 0.8 0.7 1.0 1.2 0.7 0.3 0.4 1.3 1.2 0.3
0.0 0.0 0.0 0.0 0.0 0.0 0.0 0.0 0.0 0.0 0.0 0.0 0.0 0.0 0.0 0.0 0.0 0.0 0.0 0.0 0.0 0.0 0.0 0.0 0.0 0.1 0.2 0.6 1.4 1.8 0.7 0.2 0.5 0.1 0.3 0.3 0.2 0.1 0.2 2.1 3.2 4.1 3.3
0.0 0.0 0.0 0.0 0.0 0.0 0.0 0.0 0.0 0.0 0.0 0.0 0.0 0.0 0.0 0.0 0.0 0.0 0.0 0.1 0.2 0.1 0.1 0.0 0.1 0.1 1.2 1.3 3.2 2.5 2.5 0.5 0.1 0.6 0.3 0.2 0.2 1.2 1.2 2.5 3.8 7.0 4.4
0.0 0.0 0.0 0.0 0.0 0.0 0.0 0.0 0.0 0.0 0.0 0.0 0.0 0.0 0.0 0.0 0.1 0.0 0.0 0.1 0.7 0.7 0.3 0.2 0.2 2.2 1.7 1.2 1.2 2.3 2.6 2.0 1.6 3.7 3.3 2.5 3.3 3.1 2.7 1.9 1.6 3.1 4.9
0.0 0.0 0.0 0.0 0.0 0.0 0.0 0.0 0.0 0.0 0.0 0.0 0.1 0.1 0.0 0.1 0.1 0.1 0.1 0.0 0.3 1.9 1.2 1.3 2.3 0.8 1.2 0.5 1.0 3.3 4.1 4.3 6.4 6.8 7.1 6.2 6.0 4.8 3.2 2.2 1.7 1.8 0.7
0.0 0.0 0.0 0.0 0.0 0.0 0.0 0.0 0.0 0.0 0.0 0.0 0.0 0.1 0.0 0.0 0.1 0.2 0.1 0.2 0.2 1.2 2.3 3.4 2.6 4.5 3.6 6.2 7.7 10.0 9.5 10.8 11.5 11.2 9.1 6.8 4.9 3.1 2.2 2.2 1.6 1.1 1.0
0.0 0.0 0.0 0.0 0.0 0.0 0.0 0.0 0.0 0.0 0.0 0.0 0.0 0.0 0.1 0.1 0.1 0.1 1.4 1.3 2.4 3.4 8.5 14.8 16.5 20.6 19.1 19.8 19.0 16.7 15.0 12.8 10.2 8.6 5.7 3.4 2.4 2.3 3.3 2.7 4.7 3.3 3.7
0.0 0.0 0.0 0.0 0.0 0.0 0.0 0.0 0.0 0.0 0.0 0.0 0.0 0.9 1.7 2.0 1.9 12.1 15.4 10.0 18.6 15.4 14.9 21.9 21.6 19.4 16.9 14.1 10.6 7.3 5.2 3.5 3.2 2.7 3.1 2.4 1.6 2.6 2.7 2.1 2.9 3.2 4.9
0.0 0.0 0.0 0.0 0.0 0.0 0.0 0.2 0.6 1.1 2.6 7.3 3.4 11.4 14.8 11.8 15.8 14.8 15.2 16.2 16.5 15.7 16.7 15.1 12.2 10.3 8.2 5.6 4.1 2.5 1.5 2.0 1.2 2.0 2.2 1.6 2.4 3.1 3.2 2.0 2.5 3.6 4.0
0.0 0.0 1.6 1.5 1.4 2.0 0.8 1.0 1.7 10.7 13.4 16.2 15.9 14.8 14.3 15.8 12.9 13.2 12.1 11.1 10.6 8.7 10.8 9.2 8.2 7.0 5.1 3.0 2.7 2.6 3.0 1.7 2.4 2.8 2.7 3.8 3.7 3.8 3.2 3.7 3.7 2.3 2.2
0.0 3.4 8.3 12.9 14.8 15.3 15.1 17.0 16.0 16.3 15.8 17.1 15.1 12.6 10.5 9.4 8.8 8.2 7.4 6.2 8.4 6.5 6.0 5.2 5.1 4.2 3.4 3.3 2.6 2.9 2.4 1.5 1.1 2.4 2.2 2.0 2.8 2.8 2.8 2.2 3.5 4.4 3.5
6.4 8.7 10.2 10.5 9.9 8.5 8.1 9.4 9.8 9.7 9.8 9.5 8.8 7.8 7.1 5.0 4.1 3.8 2.9 3.9 5.2 4.6 4.5 2.8 3.5 3.0 2.4 2.0 2.5 2.3 2.4 2.2 1.4 2.3 1.7 1.7 2.6 2.9 1.9 1.6 1.8 1.5 1.2
7.7 8.0 6.8 6.7 7.2 6.6 5.7 5.0 5.2 4.4 4.6 4.7 4.9 5.4 3.6 1.2 1.0 1.4 1.4 3.1 3.2 2.1 2.4 2.3 2.2 2.0 2.4 2.1 2.0 2.1 1.8 1.5 1.5 2.2 2.3 2.5 1.9 2.6 3.0 2.7 2.6 2.7 1.3
8.7 8.1 6.0 4.9 4.3 3.7 2.9 2.6 2.3 2.6 2.5 1.7 1.7 1.1 1.3 2.5 2.9 3.0 3.0 2.7 2.3 2.1 2.2 2.0 1.7 1.3 1.3 1.7 1.6 1.7 1.6 1.6 1.3 1.3 1.9 1.6 1.9 3.1 1.7 2.7 2.5 2.2 1.2
5.1 4.2 3.2 3.0 2.1 1.8 1.4 1.1 0.9 1.4 1.0 1.4 1.9 0.9 2.6 2.9 2.7 2.6 2.3 2.3 1.8 1.7 2.3 2.7 2.8 2.6 2.3 3.0 2.9 2.8 2.2 1.9 2.2 2.3 1.7 1.4 1.7 1.9 2.5 2.2 2.0 2.7 2.0
2.9 2.5 1.7 1.5 1.3 0.9 1.1 0.5 1.7 1.7 1.8 1.4 1.4 2.1 1.4 1.9 1.9 1.6 1.6 1.9 1.3 1.1 0.8 2.7 2.5 1.5 1.1 2.0 2.6 3.3 3.3 2.1 2.0 2.6 3.4 2.3 2.0 2.1 2.5 2.8 2.4 3.4 2.7
1.1 1.2 1.2 0.6 1.0 0.5 1.2 1.2 1.5 3.0 3.9 2.8 1.8 1.5 2.0 2.2 2.1 2.2 1.4 0.5 0.3 0.5 0.8 1.3 1.8 1.9 1.1 0.8 2.1 2.4 2.4 2.4 2.9 3.2 4.8 3.9 2.2 1.7 2.8 2.7 2.5 2.6 2.5
0.8 1.1 1.4 1.2 2.0 2.6 3.2 3.5 2.7 1.3 2.3 2.4 2.0 1.6 1.0 1.3 1.1 1.8 1.5 1.0 0.6 1.1 1.3 1.0 0.6 0.8 0.7 0.9 1.4 1.4 1.2 2.5 3.9 4.0 4.4 3.5 2.7 1.1 3.0 3.0 2.7 3.3 2.4
1.0 1.6 1.5 1.7 1.7 2.9 3.2 2.8 2.2 1.5 1.3 1.4 1.8 1.3 1.3 0.9 0.7 0.8 0.6 0.5 0.5 1.0 0.6 0.5 0.7 0.6 0.6 0.9 0.9 1.5 1.3 1.5 2.6 3.7 5.1 4.8 3.4 2.3 3.0 3.5 3.1 4.0 2.3

GFSGL_prec_kuchsnow_105.txt.gz
Snowfall_Accumulation
0.0 0.0 0.0 0.0 0.0 0.0 0.0 0.0 0.0 0.0 0.0 0.0 0.0 0.0 0.0 0.0 0.0 0.0 0.0 0.0 0.0 0.0 0.0 0.0 0.0 0.0 0.0 0.0 0.0 0.0 0.0 0.0 0.1 0.0 0.0 0.0 0.0 0.0 0.0 0.0 0.0 0.0 0.0
0.0 0.0 0.0 0.0 0.0 0.0 0.0 0.0 0.0 0.0 0.0 0.0 0.0 0.0 0.0 0.0 0.0 0.0 0.0 0.0 0.0 0.0 0.0 0.0 0.0 0.0 0.0 0.0 0.0 0.0 0.0 0.0 0.0 0.0 0.0 0.0 0.0 0.0 0.0 0.0 0.0 0.0 0.0
0.0 0.0 0.0 0.0 0.0 0.0 0.0 0.0 0.0 0.0 0.0 0.0 0.0 0.0 0.0 0.0 0.0 0.0 0.0 0.0 0.0 0.0 0.0 0.0 0.0 0.0 0.0 0.0 0.0 0.0 0.0 0.0 0.0 0.2 0.1 0.0 0.0 0.0 0.0 0.0 0.0 0.0 0.0
0.0 0.0 0.0 0.0 0.0 0.0 0.0 0.0 0.0 0.0 0.0 0.0 0.0 0.0 0.0 0.0 0.0 0.0 0.0 0.0 0.0 0.0 0.0 0.0 0.0 0.0 0.0 0.0 0.0 0.0 0.0 0.0 0.0 0.1 0.1 0.1 0.0 0.0 0.0 0.1 0.0 0.0 0.0
0.0 0.0 0.0 0.0 0.0 0.0 0.0 0.0 0.0 0.0 0.0 0.0 0.0 0.0 0.0 0.0 0.0 0.0 0.0 0.0 0.0 0.0 0.0 0.0 0.0 0.0 0.0 0.0 0.0 0.0 0.0 0.1 0.3 0.4 0.3 0.2 0.1 0.0 0.1 0.3 0.1 0.0 0.0
0.0 0.0 0.0 0.0 0.0 0.0 0.0 0.0 0.0 0.0 0.0 0.0 0.0 0.0 0.0 0.0 0.0 0.0 0.0 0.0 0.0 0.0 0.0 0.0 0.0 0.0 0.0 0.0 0.0 0.0 0.1 0.5 1.0 0.8 0.6 0.6 0.2 0.3 0.3 0.3 0.3 0.6 0.7
0.0 0.0 0.0 0.0 0.0 0.0 0.0 0.0 0.0 0.0 0.0 0.1 0.0 0.0 0.0 0.0 0.0 0.0 0.0 0.0 0.0 0.0 0.0 0.0 0.0 0.0 0.0 0.0 0.0 0.0 0.1 0.0 0.6 1.4 2.2 1.2 0.7 0.3 0.7 1.6 1.3 1.6 1.4
0.0 0.0 0.0 0.0 0.0 0.0 0.0 0.0 0.0 0.0 0.0 0.0 0.0 0.0 0.0 0.0 0.0 0.0 0.0 0.0 0.0 0.0 0.0 0.0 0.0 0.0 0.0 0.1 0.7 0.8 0.2 0.1 0.1 0.8 0.7 1.0 1.2 0.7 0.3 0.4 1.3 1.2 0.3
0.0 0.0 0.0 0.0 0.0 0.0 0.0 0.0 0.0 0.0 0.0 0.0 0.0 0.0 0.0 0.0 0.0 0.0 0.0 0.0 0.0 0.0 0.0 0.0 0.0 0.1 0.2 0.6 1.4 1.8 0.7 0.2 0.5 0.1 0.3 0.3 0.2 0.1 0.2 2.1 3.2 4.1 3.3
0.0 0.0 0.0 0.0 0.0 0.0 0.0 0.0 0.0 0.0 0.0 0.0 0.0 0.0 0.0 0.0 0.0 0.0 0.0 0.1 0.2 0.1 0.1 0.0 0.1 0.1 1.2 1.3 3.2 2.5 2.5 0.5 0.1 0.6 0.3 0.2 0.2 1.2 1.2 2.5 3.8 7.6 5.4
0.0 0.0 0.0 0.0 0.0 0.0 0.0 0.0 0.0 0.0 0.0 0.0 0.0 0.0 0.0 0.0 0.1 0.0 0.0 0.1 0.7 0.7 0.3 0.2 0.2 2.2 1.7 1.2 1.2 2.3 2.6 2.0 1.6 3.7 3.3 2.5 3.9 3.9 3.7 3.3 2.9 4.1 6.1
0.0 0.0 0.0 0.0 0.0 0.0 0.0 0.0 0.0 0.0 0.0 0.0 0.1 0.1 0.0 0.1 0.1 0.1 0.1 0.0 0.3 1.9 1.2 1.3 2.3 0.8 1.2 0.5 1.0 3.3 4.1 5.2 7.0 7.7 8.2 7.7 7.7 6.4 4.6 3.3 2.7 2.5 1.1
0.0 0.0 0.0 0.0 0.0 0.0 0.0 0.0 0.0 0.0 0.0 0.0 0.0 0.1 0.0 0.0 0.1 0.2 0.1 0.2 0.2 1.2 2.3 3.4 2.6 4.5 3.6 6.2 7.7 13.6 13.1 14.0 15.1 15.5 13.9 11.4 8.7 5.8 4.0 3.4 2.2 1.3 1.1
0.0 0.0 0.0 0.0 0.0 0.0 0.0 0.0 0.0 0.0 0.0 0.0 0.0 0.0 0.1 0.1 0.1 0.1 1.4 1.3 2.4 3.4 8.5 14.8 16.5 24.5 23.3 25.3 25.2 23.6 21.9 19.5 16.1 13.4 9.5 5.9 4.1 3.3 3.9 3.0 4.9 3.4 3.7
0.0 0.0 0.0 0.0 0.0 0.0 0.0 0.0 0.0 0.0 0.0 0.0 0.0 0.9 1.7 2.0 1.9 12.1 15.4 10.0 18.6 15.4 14.9 23.1 23.1 21.4 19.5 17.3 14.3 11.2 8.8 6.3 5.2 4.2 4.2 3.2 2.2 3.0 3.0 2.2 2.9 3.2 4.9
0.0 0.0 0.0 0.0 0.0 0.0 0.0 0.2 0.6 1.1 2.6 7.3 3.4 11.5 15.1 11.8 15.9 14.8 15.3 16.2 16.5 15.7 16.7 15.1 12.2 10.3 8.2 5.6 5.5 2.5 1.5 2.0 1.2 2.0 2.2 1.6 2.4 3.1 3.2 2.0 2.5 3.6 4.0
0.0 0.0 1.6 1.5 1.4 2.0 0.8 1.0 1.7 10.7 13.4 16.2 16.0 14.9 14.4 15.9 12.9 13.2 12.1 11.1 10.6 8.7 10.8 9.2 8.2 7.0 5.1 3.0 2.7 2.6 3.0 1.7 2.4 2.8 2.7 3.8 3.7 3.8 3.2 3.7 3.7 2.3 2.2
0.0 3.4 8.3 12.9 14.8 15.3 15.1 17.0 16.0 16.3 15.8 17.3 15.5 13.0 10.7 9.6 8.9 8.3 7.4 6.2 8.4 6.5 6.0 5.2 5.1 4.2 3.4 3.3 2.6 2.9 2.4 1.5 1.1 2.4 2.2 2.0 2.8 2.8 2.8 2.2 3.5 4.4 3.5
6.4 8.7 10.2 10.5 9.9 8.5 8.1 9.4 9.8 9.7 9.8 9.6 8.8 7.8 7.1 5.0 4.1 3.8 2.9 3.9 5.2 4.6 4.5 2.8 3.5 3.0 2.4 2.0 2.5 2.3 2.4 2.2 1.4 2.3 1.7 1.7 2.6 2.9 1.9 1.6 1.8 1.5 1.2
7.8 8.0 6.8 6.7 7.2 6.6 5.7 5.0 5.2 4.4 4.6 4.7 4.9 5.5 3.6 1.2 1.0 1.4 1.4 3.1 3.2 2.1 2.4 2.3 2.2 2.0 2.4 2.1 2.0 2.1 1.8 1.5 1.5 2.2 2.3 2.5 1.9 2.6 3.0 2.7 2.6 2.7 1.3
8.7 8.2 6.0 4.9 4.3 3.7 2.9 2.6 2.3 2.6 2.5 1.7 1.7 1.1 1.3 2.5 2.9 3.0 3.0 2.7 2.3 2.1 2.2 2.0 1.7 1.3 1.3 1.7 1.6 1.7 1.6 1.6 1.3 1.3 1.9 1.6 1.9 3.1 1.7 2.7 2.5 2.2 1.2
5.2 4.3 3.3 3.1 2.2 1.9 1.4 1.1 0.9 1.4 1.0 1.4 1.9 0.9 2.6 2.9 2.7 2.6 2.3 2.3 1.8 1.7 2.3 2.7 2.8 2.6 2.3 3.0 2.9 2.8 2.2 1.9 2.2 2.3 1.7 1.4 1.7 1.9 2.5 2.2 2.0 2.7 2.0
3.0 2.6 1.8 1.7 1.4 0.9 1.1 0.5 1.7 1.7 1.8 1.4 1.4 2.1 1.4 1.9 1.9 1.6 1.6 1.9 1.3 1.1 0.8 2.7 2.5 1.5 1.1 2.0 2.6 3.3 3.3 2.1 2.0 2.6 3.4 2.3 2.0 2.1 2.5 2.8 2.4 3.4 2.7
1.2 1.3 1.3 0.7 1.0 0.5 1.2 1.2 1.5 3.0 3.9 2.8 1.8 1.5 2.0 2.2 2.1 2.2 1.4 0.5 0.3 0.5 0.8 1.3 1.8 1.9 1.1 0.8 2.1 2.4 2.4 2.4 2.9 3.2 4.8 3.9 2.2 1.7 2.8 2.7 2.5 2.6 2.5
0.8 1.1 1.4 1.2 2.0 2.6 3.2 3.5 2.7 1.3 2.3 2.4 2.0 1.6 1.0 1.3 1.1 1.8 1.5 1.0 0.6 1.1 1.3 1.0 0.6 0.8 0.7 0.9 1.4 1.4 1.2 2.5 3.9 4.0 4.4 3.5 2.7 1.1 3.0 3.0 2.7 3.3 2.4
1.0 1.6 1.5 1.7 1.7 2.9 3.2 2.8 2.2 1.5 1.3 1.4 1.8 1.3 1.3 0.9 0.7 0.8 0.6 0.5 0.5 1.0 0.6 0.5 0.7 0.6 0.6 0.9 0.9 1.5 1.3 1.5 2.6 3.7 5.1 4.8 3.4 2.3 3.0 3.5 3.1 4.0 2.3

GFSGL_prec_kuchsnow_108.txt.gz
Snowfall_Accumulation
0.0 0.0 0.0 0.0 0.0 0.0 0.0 0.0 0.0 0.0 0.0 0.0 0.0 0.0 0.0 0.0 0.0 0.0 0.0 0.0 0.0 0.0 0.0 0.0 0.0 0.0 0.0 0.0 0.0 0.0 0.0 0.0 0.1 0.0 0.0 0.0 0.0 0.0 0.0 0.0 0.0 0.0 0.0
0.0 0.0 0.0 0.0 0.0 0.0 0.0 0.0 0.0 0.0 0.0 0.0 0.0 0.0 0.0 0.0 0.0 0.0 0.0 0.0 0.0 0.0 0.0 0.0 0.0 0.0 0.0 0.0 0.0 0.0 0.0 0.0 0.0 0.0 0.0 0.0 0.0 0.0 0.0 0.0 0.0 0.0 0.0
0.0 0.0 0.0 0.0 0.0 0.0 0.0 0.0 0.0 0.0 0.0 0.0 0.0 0.0 0.0 0.0 0.0 0.0 0.0 0.0 0.0 0.0 0.0 0.0 0.0 0.0 0.0 0.0 0.0 0.0 0.0 0.0 0.0 0.2 0.1 0.0 0.0 0.0 0.0 0.0 0.0 0.0 0.0
0.0 0.0 0.0 0.0 0.0 0.0 0.0 0.0 0.0 0.0 0.0 0.0 0.0 0.0 0.0 0.0 0.0 0.0 0.0 0.0 0.0 0.0 0.0 0.0 0.0 0.0 0.0 0.0 0.0 0.0 0.0 0.0 0.0 0.1 0.1 0.1 0.0 0.0 0.0 0.1 0.0 0.0 0.0
0.0 0.0 0.0 0.0 0.0 0.0 0.0 0.0 0.0 0.0 0.0 0.0 0.0 0.0 0.0 0.0 0.0 0.0 0.0 0.0 0.0 0.0 0.0 0.0 0.0 0.0 0.0 0.0 0.0 0.0 0.0 0.1 0.3 0.4 0.3 0.2 0.1 0.0 0.1 0.3 0.1 0.0 0.0
0.0 0.0 0.0 0.0 0.0 0.0 0.0 0.0 0.0 0.0 0.0 0.0 0.0 0.0 0.0 0.0 0.0 0.0 0.0 0.0 0.0 0.0 0.0 0.0 0.0 0.0 0.0 0.0 0.0 0.0 0.1 0.5 1.0 0.8 0.6 0.6 0.2 0.3 0.3 0.3 0.3 0.6 0.7
0.0 0.0 0.0 0.0 0.0 0.0 0.0 0.0 0.0 0.0 0.0 0.1 0.0 0.0 0.0 0.0 0.0 0.0 0.0 0.0 0.0 0.0 0.0 0.0 0.0 0.0 0.0 0.0 0.0 0.0 0.1 0.0 0.6 1.4 2.2 1.2 0.7 0.3 0.7 1.6 1.3 1.6 1.4
0.0 0.0 0.0 0.0 0.0 0.0 0.0 0.0 0.0 0.0 0.0 0.0 0.0 0.0 0.0 0.0 0.0 0.0 0.0 0.0 0.0 0.0 0.0 0.0 0.0 0.0 0.0 0.1 0.7 0.8 0.2 0.1 0.1 0.8 0.7 1.0 1.2 0.7 0.3 0.4 1.3 1.2 0.3
0.0 0.0 0.0 0.0 0.0 0.0 0.0 0.0 0.0 0.0 0.0 0.0 0.0 0.0 0.0 0.0 0.0 0.0 0.0 0.0 0.0 0.0 0.0 0.0 0.0 0.1 0.2 0.6 1.4 1.8 0.7 0.2 0.5 0.1 0.3 0.3 0.2 0.1 0.2 2.1 3.2 4.1 3.3
0.0 0.0 0.0 0.0 0.0 0.0 0.0 0.0 0.0 0.0 0.0 0.0 0.0 0.0 0.0 0.0 0.0 0.0 0.0 0.1 0.2 0.1 0.1 0.0 0.1 0.1 1.2 1.3 3.2 2.5 2.5 0.5 0.1 0.6 0.3 0.2 0.2 1.2 1.2 2.5 3.8 7.6 5.4
0.0 0.0 0.0 0.0 0.0 0.0 0.0 0.0 0.0 0.0 0.0 0.0 0.0 0.0 0.0 0.0 0.1 0.0 0.0 0.1 0.7 0.7 0.3 0.2 0.2 2.2 1.7 1.2 1.2 2.3 2.6 2.0 1.6 3.7 3.3 2.5 3.9 3.9 3.7 4.2 3.9 5.3 7.3
0.0 0.0 0.0 0.0 0.0 0.0 0.0 0.0 0.0 0.0 0.0 0.0 0.1 0.1 0.0 0.1 0.1 0.1 0.1 0.0 0.3 1.9 1.2 1.3 2.3 0.8 1.2 0.5 1.0 3.3 4.1 5.2 7.0 9.9 10.4 10.0 9.9 8.6 6.5 4.8 3.9 3.4 1.8
0.0 0.0 0.0 0.0 0.0 0.0 0.0 0.0 0.0 0.0 0.0 0.0 0.0 0.1 0.0 0.0 0.1 0.2 0.1 0.2 0.2 1.2 2.3 3.4 2.6 4.5 3.6 6.2 7.7 13.6 13.1 17.1 18.6 19.2 17.9 15.3 12.0 8.4 6.0 5.0 3.4 2.1 1.6
0.0 0.0 0.0 0.0 0.0 0.0 0.0 0.0 0.0 0.0 0.0 0.0 0.0 0.0 0.1 0.1 0.1 0.1 1.4 1.3 2.4 3.4 8.5 14.8 16.5 24.5 23.3 26.1 26.3 24.9 23.8 21.6 18.5 16.1 12.1 8.3 6.1 5.2 5.5 4.3 6.0 4.1 4.2
0.0 0.0 0.0 0.0 0.0 0.0 0.0 0.0 0.0 0.0 0.0 0.0 0.0 0.9 1.7 2.0 1.9 12.1 15.4 10.0 18.6 15.4 14.9 23.3 23.3 21.5 19.6 17.5 14.5 11.4 9.0 6.7 5.7 4.2 4.2 3.2 2.2 3.0 3.0 2.2 2.9 3.2 4.9
0.0 0.0 0.0 0.0 0.0 0.0 0.0 0.2 0.6 1.1 2.6 7.3 3.4 11.5 15.1 12.0 15.9 14.9 15.3 16.2 16.5 15.7 16.7 15.1 12.3 10.3 8.2 5.6 5.5 2.5 1.5 2.0 1.2 2.0 2.2 1.6 2.4 3.1 3.2 2.0 2.5 3.6 4.0
0.0 0.0 1.6 1.5 1.4 2.0 0.8 1.0 1.8 10.8 13.5 16.3 16.1 14.9 14.5 16.0 12.9 13.2 12.1 11.1 10.6 8.7 10.8 9.2 8.3 7.1 5.1 3.0 2.7 2.6 3.0 1.7 2.4 2.8 2.7 3.8 3.7 3.8 3.2 3.7 3.7 2.3 2.2
0.0 3.4 8.3 12.9 14.9 15.3 15.2 17.0 16.0 16.4 15.9 17.4 15.7 13.1 10.8 9.7 9.0 8.3 7.4 6.2 8.4 6.5 6.0 5.2 5.1 4.2 3.4 3.3 2.6 2.9 2.4 1.5 1.1 2.4 2.2 2.0 2.8 2.8 2.8 2.2 3.5 4.4 3.5
6.4 8.7 10.2 10.5 9.9 8.5 8.1 9.5 9.8 9.8 9.8 9.7 8.9 7.9 7.1 5.0 4.1 3.8 2.9 3.9 5.2 4.6 4.5 2.8 3.5 3.0 2.4 2.0 2.5 2.3 2.4 2.2 1.4 2.3 1.7 1.7 2.6 2.9 1.9 1.6 1.8 1.5 1.2
7.8 8.1 6.9 6.7 7.2 6.6 5.7 5.0 5.2 4.4 4.6 4.7 4.9 5.6 3.6 1.2 1.0 1.4 1.4 3.1 3.2 2.1 2.4 2.3 2.2 2.0 2.4 2.1 2.0 2.1 1.8 1.5 1.5 2.2 2.3 2.5 1.9 2.6 3.0 2.7 2.6 2.7 1.3
8.7 8.3 6.0 4.9 4.3 3.7 2.9 2.6 2.3 2.6 2.5 1.7 1.7 1.1 1.3 2.5 2.9 3.0 3.0 2.7 2.3 2.1 2.2 2.0 1.7 1.3 1.3 1.7 1.6 1.7 1.6 1.6 1.3 1.3 1.9 1.6 1.9 3.1 1.7 2.7 2.5 2.2 1.2
5.2 4.3 3.3 3.2 2.3 1.9 1.4 1.1 0.9 1.4 1.0 1.4 1.9 0.9 2.6 2.9 2.7 2.6 2.3 2.3 1.8 1.7 2.3 2.7 2.8 2.6 2.3 3.0 2.9 2.8 2.2 1.9 2.2 2.3 1.7 1.4 1.7 1.9 2.5 2.2 2.0 2.7 2.0
3.0 2.7 1.9 1.7 1.5 0.9 1.1 0.5 1.7 1.7 1.8 1.4 1.4 2.1 1.4 1.9 1.9 1.6 1.6 1.9 1.3 1.1 0.8 2.7 2.5 1.5 1.1 2.0 2.6 3.3 3.3 2.1 2.0 2.6 3.4 2.3 2.0 2.1 2.5 2.8 2.4 3.4 2.7
1.2 1.5 1.3 0.7 1.0 0.5 1.2 1.2 1.5 3.0 3.9 2.8 1.8 1.5 2.0 2.2 2.1 2.2 1.4 0.5 0.3 0.5 0.8 1.3 1.8 1.9 1.1 0.8 2.1 2.4 2.4 2.4 2.9 3.2 4.8 3.9 2.2 1.7 2.8 2.7 2.5 2.6 2.5
0.8 1.1 1.4 1.2 2.0 2.6 3.2 3.5 2.7 1.3 2.3 2.4 2.0 1.6 1.0 1.3 1.1 1.8 1.5 1.0 0.6 1.1 1.3 1.0 0.6 0.8 0.7 0.9 1.4 1.4 1.2 2.5 3.9 4.0 4.4 3.5 2.7 1.1 3.0 3.0 2.7 3.3 2.4
1.0 1.6 1.5 1.7 1.7 2.9 3.2 2.8 2.2 1.5 1.3 1.4 1.8 1.3 1.3 0.9 0.7 0.8 0.6 0.5 0.5 1.0 0.6 0.5 0.7 0.6 0.6 0.9 0.9 1.5 1.3 1.5 2.6 3.7 5.1 4.8 3.4 2.3 3.0 3.5 3.1 4.0 2.3

GFSGL_prec_kuchsnow_111.txt.gz
Snowfall_Accumulation
0.0 0.0 0.0 0.0 0.0 0.0 0.0 0.0 0.0 0.0 0.0 0.0 0.0 0.0 0.0 0.0 0.0 0.0 0.0 0.0 0.0 0.0 0.0 0.0 0.0 0.0 0.0 0.0 0.0 0.0 0.0 0.0 0.1 0.0 0.0 0.0 0.0 0.0 0.0 0.0 0.0 0.0 0.0
0.0 0.0 0.0 0.0 0.0 0.0 0.0 0.0 0.0 0.0 0.0 0.0 0.0 0.0 0.0 0.0 0.0 0.0 0.0 0.0 0.0 0.0 0.0 0.0 0.0 0.0 0.0 0.0 0.0 0.0 0.0 0.0 0.0 0.0 0.0 0.0 0.0 0.0 0.0 0.0 0.0 0.0 0.0
0.0 0.0 0.0 0.0 0.0 0.0 0.0 0.0 0.0 0.0 0.0 0.0 0.0 0.0 0.0 0.0 0.0 0.0 0.0 0.0 0.0 0.0 0.0 0.0 0.0 0.0 0.0 0.0 0.0 0.0 0.0 0.0 0.0 0.2 0.1 0.0 0.0 0.0 0.0 0.0 0.0 0.0 0.0
0.0 0.0 0.0 0.0 0.0 0.0 0.0 0.0 0.0 0.0 0.0 0.0 0.0 0.0 0.0 0.0 0.0 0.0 0.0 0.0 0.0 0.0 0.0 0.0 0.0 0.0 0.0 0.0 0.0 0.0 0.0 0.0 0.0 0.1 0.1 0.1 0.0 0.0 0.0 0.1 0.0 0.0 0.0
0.0 0.0 0.0 0.0 0.0 0.0 0.0 0.0 0.0 0.0 0.0 0.0 0.0 0.0 0.0 0.0 0.0 0.0 0.0 0.0 0.0 0.0 0.0 0.0 0.0 0.0 0.0 0.0 0.0 0.0 0.0 0.1 0.3 0.4 0.3 0.2 0.1 0.0 0.1 0.3 0.1 0.0 0.0
0.0 0.0 0.0 0.0 0.0 0.0 0.0 0.0 0.0 0.0 0.0 0.0 0.0 0.0 0.0 0.0 0.0 0.0 0.0 0.0 0.0 0.0 0.0 0.0 0.0 0.0 0.0 0.0 0.0 0.0 0.1 0.5 1.0 0.8 0.6 0.6 0.2 0.3 0.3 0.3 0.3 0.6 0.7
0.0 0.0 0.0 0.0 0.0 0.0 0.0 0.0 0.0 0.0 0.0 0.1 0.0 0.0 0.0 0.0 0.0 0.0 0.0 0.0 0.0 0.0 0.0 0.0 0.0 0.0 0.0 0.0 0.0 0.0 0.1 0.0 0.6 1.4 2.2 1.2 0.7 0.3 0.7 1.6 1.3 1.6 1.4
0.0 0.0 0.0 0.0 0.0 0.0 0.0 0.0 0.0 0.0 0.0 0.0 0.0 0.0 0.0 0.0 0.0 0.0 0.0 0.0 0.0 0.0 0.0 0.0 0.0 0.0 0.0 0.1 0.7 0.8 0.2 0.1 0.1 0.8 0.7 1.0 1.2 0.7 0.3 0.4 1.3 1.2 0.3
0.0 0.0 0.0 0.0 0.0 0.0 0.0 0.0 0.0 0.0 0.0 0.0 0.0 0.0 0.0 0.0 0.0 0.0 0.0 0.0 0.0 0.0 0.0 0.0 0.0 0.1 0.2 0.6 1.4 1.8 0.7 0.2 0.5 0.1 0.3 0.3 0.2 0.1 0.2 2.1 3.2 4.1 3.3
0.0 0.0 0.0 0.0 0.0 0.0 0.0 0.0 0.0 0.0 0.0 0.0 0.0 0.0 0.0 0.0 0.0 0.0 0.0 0.1 0.2 0.1 0.1 0.0 0.1 0.1 1.2 1.3 3.2 2.5 2.5 0.5 0.1 0.6 0.3 0.2 0.2 1.2 1.2 2.5 3.8 7.6 5.4
0.0 0.0 0.0 0.0 0.0 0.0 0.0 0.0 0.0 0.0 0.0 0.0 0.0 0.0 0.0 0.0 0.1 0.0 0.0 0.1 0.7 0.7 0.3 0.2 0.2 2.2 1.7 1.2 1.2 2.3 2.6 2.0 1.6 3.7 3.3 2.5 3.9 3.9 3.7 4.2 3.9 6.1 8.6
0.0 0.0 0.0 0.0 0.0 0.0 0.0 0.0 0.0 0.0 0.0 0.0 0.1 0.1 0.0 0.1 0.1 0.1 0.1 0.0 0.3 1.9 1.2 1.3 2.3 0.8 1.2 0.5 1.0 3.3 4.1 5.2 7.0 9.9 10.4 10.0 11.5 10.4 8.3 6.3 5.4 4.7 3.0
0.0 0.0 0.0 0.0 0.0 0.0 0.0 0.0 0.0 0.0 0.0 0.0 0.0 0.1 0.0 0.0 0.1 0.2 0.1 0.2 0.2 1.2 2.3 3.4 2.6 4.5 3.6 6.2 7.7 13.6 13.1 17.1 20.0 20.8 19.3 16.7 13.1 9.3 6.0 5.0 3.4 2.1 1.6
0.0 0.0 0.0 0.0 0.0 0.0 0.0 0.0 0.0 0.0 0.0 0.0 0.0 0.0 0.1 0.1 0.1 0.1 1.4 1.3 2.4 3.4 8.5 14.8 16.5 24.5 23.3 26.1 26.3 25.5 24.4 22.4 19.2 16.5 12.5 8.5 6.1 5.2 5.5 4.3 6.0 4.1 4.2
0.0 0.0 0.0 0.0 0.0 0.0 0.0 0.0 0.0 0.0 0.0 0.0 0.0 0.9 1.7 2.0 1.9 12.1 15.4 10.0 18.6 15.4 14.9 23.3 23.3 21.5 19.7 17.5 14.6 11.6 9.1 6.8 5.7 4.2 4.2 3.2 2.2 3.0 3.0 2.2 2.9 3.2 4.9
0.0 0.0 0.0 0.0 0.0 0.0 0.0 0.2 0.6 1.1 2.6 7.3 3.4 11.5 15.1 12.0 15.9 14.9 15.3 16.3 16.5 15.7 16.7 15.1 12.3 10.4 8.2 5.6 5.5 2.5 1.5 2.0 1.2 2.0 2.2 1.6 2.4 3.1 3.2 2.0 2.5 3.6 4.0
0.0 0.0 1.6 1.5 1.4 2.0 0.8 1.0 2.0 10.9 13.6 16.4 16.1 14.9 14.5 16.0 12.9 13.2 12.1 11.1 10.6 8.7 10.8 9.3 8.4 7.1 5.1 3.0 2.7 2.6 3.0 1.7 2.4 2.8 2.7 3.8 3.7 3.8 3.2 3.7 3.7 2.3 2.2
0.0 3.4 8.4 12.9 14.9 15.3 15.3 17.1 16.1 16.4 16.0 17.6 15.8 13.2 10.9 9.7 9.0 8.3 7.4 6.2 8.4 6.5 6.0 5.2 5.1 4.2 3.4 3.3 2.6 2.9 2.4 1.5 1.1 2.4 2.2 2.0 2.8 2.8 2.8 2.2 3.5 4.4 3.5
6.4 8.8 10.3 10.5 9.9 8.5 8.1 9.5 9.9 9.8 9.9 9.9 9.0 8.0 7.2 5.0 4.1 3.8 2.9 3.9 5.2 4.6 4.5 2.8 3.5 3.0 2.4 2.0 2.5 2.3 2.4 2.2 1.4 2.3 1.7 1.7 2.6 2.9 1.9 1.6 1.8 1.5 1.2
7.8 8.1 6.9 6.7 7.3 6.7 5.7 5.0 5.2 4.4 4.6 4.7 5.0 5.7 3.6 1.2 1.0 1.4 1.4 3.1 3.2 2.1 2.4 2.3 2.2 2.0 2.4 2.1 2.0 2.1 1.8 1.5 1.5 2.2 2.3 2.5 1.9 2.6 3.0 2.7 2.6 2.7 1.3
8.8 8.3 6.0 4.9 4.3 3.7 2.9 2.6 2.3 2.6 2.5 1.7 1.7 1.1 1.3 2.5 2.9 3.0 3.0 2.7 2.3 2.1 2.2 2.0 1.7 1.3 1.3 1.7 1.6 1.7 1.6 1.6 1.3 1.3 1.9 1.6 1.9 3.1 1.7 2.7 2.5 2.2 1.2
5.3 4.4 3.4 3.2 2.3 2.0 1.5 1.1 0.9 1.4 1.0 1.4 1.9 0.9 2.6 2.9 2.7 2.6 2.3 2.3 1.8 1.7 2.3 2.7 2.8 2.6 2.3 3.0 2.9 2.8 2.2 1.9 2.2 2.3 1.7 1.4 1.7 1.9 2.5 2.2 2.0 2.7 2.0
3.1 2.8 2.0 1.8 1.5 0.9 1.1 0.5 1.7 1.7 1.8 1.4 1.4 2.1 1.4 1.9 1.9 1.6 1.6 1.9 1.3 1.1 0.8 2.7 2.5 1.5 1.1 2.0 2.6 3.3 3.3 2.1 2.0 2.6 3.4 2.3 2.0 2.1 2.5 2.8 2.4 3.4 2.7
1.3 1.5 1.3 0.7 1.1 0.5 1.2 1.2 1.5 3.0 3.9 2.8 1.8 1.5 2.0 2.2 2.1 2.2 1.4 0.5 0.3 0.5 0.8 1.3 1.8 1.9 1.1 0.8 2.1 2.4 2.4 2.4 2.9 3.2 4.8 3.9 2.2 1.7 2.8 2.7 2.5 2.6 2.5
0.9 1.1 1.4 1.3 2.0 2.6 3.2 3.5 2.7 1.3 2.3 2.4 2.0 1.6 1.0 1.3 1.1 1.8 1.5 1.0 0.6 1.1 1.3 1.0 0.6 0.8 0.7 0.9 1.4 1.4 1.2 2.5 3.9 4.0 4.4 3.5 2.7 1.1 3.0 3.0 2.7 3.3 2.4
1.0 1.6 1.5 1.7 1.7 2.9 3.2 2.8 2.2 1.5 1.3 1.4 1.8 1.3 1.3 0.9 0.7 0.8 0.6 0.5 0.5 1.0 0.6 0.5 0.7 0.6 0.6 0.9 0.9 1.5 1.3 1.5 2.6 3.7 5.1 4.8 3.4 2.3 3.0 3.5 3.1 4.0 2.3

GFSGL_prec_kuchsnow_114.txt.gz
Snowfall_Accumulation
0.0 0.0 0.0 0.0 0.0 0.0 0.0 0.0 0.0 0.0 0.0 0.0 0.0 0.0 0.0 0.0 0.0 0.0 0.0 0.0 0.0 0.0 0.0 0.0 0.0 0.0 0.0 0.0 0.0 0.0 0.0 0.0 0.1 0.0 0.0 0.0 0.0 0.0 0.0 0.0 0.0 0.0 0.0
0.0 0.0 0.0 0.0 0.0 0.0 0.0 0.0 0.0 0.0 0.0 0.0 0.0 0.0 0.0 0.0 0.0 0.0 0.0 0.0 0.0 0.0 0.0 0.0 0.0 0.0 0.0 0.0 0.0 0.0 0.0 0.0 0.0 0.0 0.0 0.0 0.0 0.0 0.0 0.0 0.0 0.0 0.0
0.0 0.0 0.0 0.0 0.0 0.0 0.0 0.0 0.0 0.0 0.0 0.0 0.0 0.0 0.0 0.0 0.0 0.0 0.0 0.0 0.0 0.0 0.0 0.0 0.0 0.0 0.0 0.0 0.0 0.0 0.0 0.0 0.0 0.2 0.1 0.0 0.0 0.0 0.0 0.0 0.0 0.0 0.0
0.0 0.0 0.0 0.0 0.0 0.0 0.0 0.0 0.0 0.0 0.0 0.0 0.0 0.0 0.0 0.0 0.0 0.0 0.0 0.0 0.0 0.0 0.0 0.0 0.0 0.0 0.0 0.0 0.0 0.0 0.0 0.0 0.0 0.1 0.1 0.1 0.0 0.0 0.0 0.1 0.0 0.0 0.0
0.0 0.0 0.0 0.0 0.0 0.0 0.0 0.0 0.0 0.0 0.0 0.0 0.0 0.0 0.0 0.0 0.0 0.0 0.0 0.0 0.0 0.0 0.0 0.0 0.0 0.0 0.0 0.0 0.0 0.0 0.0 0.1 0.3 0.4 0.3 0.2 0.1 0.0 0.1 0.3 0.1 0.0 0.0
0.0 0.0 0.0 0.0 0.0 0.0 0.0 0.0 0.0 0.0 0.0 0.0 0.0 0.0 0.0 0.0 0.0 0.0 0.0 0.0 0.0 0.0 0.0 0.0 0.0 0.0 0.0 0.0 0.0 0.0 0.1 0.5 1.0 0.8 0.6 0.6 0.2 0.3 0.3 0.3 0.3 0.6 0.7
0.0 0.0 0.0 0.0 0.0 0.0 0.0 0.0 0.0 0.0 0.0 0.1 0.0 0.0 0.0 0.0 0.0 0.0 0.0 0.0 0.0 0.0 0.0 0.0 0.0 0.0 0.0 0.0 0.0 0.0 0.1 0.0 0.6 1.4 2.2 1.2 0.7 0.3 0.7 1.6 1.3 1.6 1.4
0.0 0.0 0.0 0.0 0.0 0.0 0.0 0.0 0.0 0.0 0.0 0.0 0.0 0.0 0.0 0.0 0.0 0.0 0.0 0.0 0.0 0.0 0.0 0.0 0.0 0.0 0.0 0.1 0.7 0.8 0.2 0.1 0.1 0.8 0.7 1.0 1.2 0.7 0.3 0.4 1.3 1.2 0.3
0.0 0.0 0.0 0.0 0.0 0.0 0.0 0.0 0.0 0.0 0.0 0.0 0.0 0.0 0.0 0.0 0.0 0.0 0.0 0.0 0.0 0.0 0.0 0.0 0.0 0.1 0.2 0.6 1.4 1.8 0.7 0.2 0.5 0.1 0.3 0.3 0.2 0.1 0.2 2.1 3.2 4.1 3.3
0.0 0.0 0.0 0.0 0.0 0.0 0.0 0.0 0.0 0.0 0.0 0.0 0.0 0.0 0.0 0.0 0.0 0.0 0.0 0.1 0.2 0.1 0.1 0.0 0.1 0.1 1.2 1.3 3.2 2.5 2.5 0.5 0.1 0.6 0.3 0.2 0.2 1.2 1.2 2.5 3.8 7.6 5.4
2.7 0.0 0.0 0.0 0.0 0.0 0.0 0.0 0.0 0.0 0.0 0.0 0.0 0.0 0.0 0.0 0.1 0.0 0.0 0.1 0.7 0.7 0.3 0.2 0.2 2.2 1.7 1.2 1.2 2.3 2.6 2.0 1.6 3.7 3.3 2.5 3.9 3.9 3.7 4.2 3.9 6.1 8.6
4.1 3.5 0.0 0.0 0.0 0.0 0.0 0.0 0.0 0.0 0.0 0.0 0.1 0.1 0.0 0.1 0.1 0.1 0.1 0.0 0.3 1.9 1.2 1.3 2.3 0.8 1.2 0.5 1.0 3.3 4.1 5.2 7.0 9.9 10.4 10.0 11.5 10.4 8.3 6.9 6.0 5.5 3.8
4.0 4.3 0.0 0.0 0.0 0.0 0.0 0.0 0.0 0.0 0.0 0.0 0.0 0.1 0.0 0.0 0.1 0.2 0.1 0.2 0.2 1.2 2.3 3.4 2.6 4.5 3.6 6.2 7.7 13.6 13.1 17.1 20.0 20.8 19.3 17.3 13.8 9.9 6.0 5.0 3.4 2.1 1.6
3.3 3.3 3.5 0.0 0.0 0.0 0.0 0.0 0.0 0.0 0.0 0.0 0.0 0.0 0.1 0.1 0.1 0.1 1.4 1.3 2.4 3.4 8.5 14.8 16.5 24.5 23.3 26.1 26.3 25.5 24.4 22.4 19.5 16.9 12.8 8.9 6.3 5.3 5.5 4.3 6.0 4.1 4.2
0.6 0.4 0.4 1.2 1.2 0.0 0.0 0.0 0.0 0.0 0.0 0.0 0.0 0.9 1.7 2.0 1.9 12.1 15.4 10.0 18.6 15.4 14.9 23.3 23.3 21.5 19.7 17.5 14.6 11.6 9.3 6.9 5.8 4.3 4.3 3.2 2.2 3.0 3.0 2.2 2.9 3.2 4.9
0.2 0.1 0.1 0.1 0.1 0.1 0.0 0.2 0.6 1.1 2.6 7.3 3.4 11.5 15.1 12.0 15.9 14.9 15.3 16.3 16.5 15.7 16.7 15.1 12.4 10.4 8.2 5.6 5.5 2.5 1.5 2.0 1.2 2.0 2.2 1.6 2.4 3.1 3.2 2.0 2.5 3.6 4.0
0.1 0.1 1.7 1.6 1.5 2.1 0.9 1.0 2.1 11.1 13.6 16.5 16.2 15.1 14.7 16.0 12.9 13.2 12.1 11.1 10.6 8.7 10.8 9.3 8.4 7.1 5.1 3.0 2.7 2.6 3.0 1.7 2.4 2.8 2.7 3.8 3.7 3.8 3.2 3.7 3.7 2.3 2.2
0.1 3.5 8.4 13.0 15.0 15.4 15.3 17.1 16.1 16.5 16.1 17.8 15.9 13.2 10.9 9.7 9.0 8.3 7.4 6.2 8.4 6.5 6.0 5.2 5.1 4.2 3.4 3.3 2.6 2.9 2.4 1.5 1.1 2.4 2.2 2.0 2.8 2.8 2.8 2.2 3.5 4.4 3.5
6.5 8.8 10.3 10.5 9.9 8.5 8.1 9.5 10.0 9.9 10.0 10.1 9.2 8.1 7.2 5.0 4.1 3.8 2.9 3.9 5.2 4.6 4.5 2.8 3.5 3.0 2.4 2.0 2.5 2.3 2.4 2.2 1.4 2.3 1.7 1.7 2.6 2.9 1.9 1.6 1.8 1.5 1.2
7.9 8.1 6.9 6.7 7.3 6.7 5.7 5.0 5.2 4.4 4.6 4.7 5.2 5.9 3.6 1.2 1.0 1.4 1.4 3.1 3.2 2.1 2.4 2.3 2.2 2.0 2.4 2.1 2.0 2.1 1.8 1.5 1.5 2.2 2.3 2.5 1.9 2.6 3.0 2.7 2.6 2.7 1.3
8.9 8.4 6.0 4.9 4.3 3.7 2.9 2.6 2.3 2.6 2.5 1.7 1.7 1.1 1.3 2.5 2.9 3.0 3.0 2.7 2.3 2.1 2.2 2.0 1.7 1.3 1.3 1.7 1.6 1.7 1.6 1.6 1.3 1.3 1.9 1.6 1.9 3.1 1.7 2.7 2.5 2.2 1.2
5.3 4.4 3.4 3.2 2.3 2.0 1.5 1.1 0.9 1.4 1.0 1.4 1.9 0.9 2.6 2.9 2.7 2.6 2.3 2.3 1.8 1.7 2.3 2.7 2.8 2.6 2.3 3.0 2.9 2.8 2.2 1.9 2.2 2.3 1.7 1.4 1.7 1.9 2.5 2.2 2.0 2.7 2.0
3.2 2.9 2.1 1.9 1.6 0.9 1.2 0.5 1.7 1.7 1.8 1.4 1.4 2.1 1.4 1.9 1.9 1.6 1.6 1.9 1.3 1.1 0.8 2.7 2.5 1.5 1.1 2.0 2.6 3.3 3.3 2.1 2.0 2.6 3.4 2.3 2.0 2.1 2.5 2.8 2.4 3.4 2.7
1.4 1.5 1.4 0.8 1.1 0.5 1.2 1.2 1.5 3.0 3.9 2.8 1.8 1.5 2.0 2.2 2.1 2.2 1.4 0.5 0.3 0.5 0.8 1.3 1.8 1.9 1.1 0.9 2.1 2.4 2.4 2.4 2.9 3.2 4.8 3.9 2.2 1.7 2.8 2.7 2.5 2.6 2.5
1.0 1.2 1.5 1.3 2.0 2.6 3.2 3.5 2.7 1.3 2.3 2.4 2.0 1.6 1.0 1.3 1.1 1.8 1.5 1.0 0.6 1.1 1.3 1.0 0.6 0.8 0.7 0.9 1.4 1.4 1.2 2.5 3.9 4.0 4.4 3.5 2.7 1.1 3.0 3.0 2.7 3.3 2.4
1.0 1.6 1.5 1.7 1.8 2.9 3.2 2.8 2.2 1.5 1.3 1.4 1.8 1.3 1.3 0.9 0.7 0.8 0.6 0.5 0.5 1.0 0.6 0.5 0.7 0.6 0.6 0.9 0.9 1.5 1.3 1.5 2.6 3.7 5.1 4.8 3.4 2.3 3.0 3.5 3.1 4.0 2.3

GFSGL_prec_kuchsnow_117.txt.gz
Snowfall_Accumulation
0.0 0.0 0.0 0.0 0.0 0.0 0.0 0.0 0.0 0.0 0.0 0.0 0.0 0.0 0.0 0.0 0.0 0.0 0.0 0.0 0.0 0.0 0.0 0.0 0.0 0.0 0.0 0.0 0.0 0.0 0.0 0.0 0.1 0.0 0.0 0.0 0.0 0.0 0.0 0.0 0.0 0.0 0.0
0.0 0.0 0.0 0.0 0.0 0.0 0.0 0.0 0.0 0.0 0.0 0.0 0.0 0.0 0.0 0.0 0.0 0.0 0.0 0.0 0.0 0.0 0.0 0.0 0.0 0.0 0.0 0.0 0.0 0.0 0.0 0.0 0.0 0.0 0.0 0.0 0.0 0.0 0.0 0.0 0.0 0.0 0.0
0.0 0.0 0.0 0.0 0.0 0.0 0.0 0.0 0.0 0.0 0.0 0.0 0.0 0.0 0.0 0.0 0.0 0.0 0.0 0.0 0.0 0.0 0.0 0.0 0.0 0.0 0.0 0.0 0.0 0.0 0.0 0.0 0.0 0.2 0.1 0.0 0.0 0.0 0.0 0.0 0.0 0.0 0.0
0.0 0.0 0.0 0.0 0.0 0.0 0.0 0.0 0.0 0.0 0.0 0.0 0.0 0.0 0.0 0.0 0.0 0.0 0.0 0.0 0.0 0.0 0.0 0.0 0.0 0.0 0.0 0.0 0.0 0.0 0.0 0.0 0.0 0.1 0.1 0.1 0.0 0.0 0.0 0.1 0.0 0.0 0.0
0.0 0.0 0.0 0.0 0.0 0.0 0.0 0.0 0.0 0.0 0.0 0.0 0.0 0.0 0.0 0.0 0.0 0.0 0.0 0.0 0.0 0.0 0.0 0.0 0.0 0.0 0.0 0.0 0.0 0.0 0.0 0.1 0.3 0.4 0.3 0.2 0.1 0.0 0.1 0.3 0.1 0.0 0.0
0.0 0.0 0.0 0.0 0.0 0.0 0.0 0.0 0.0 0.0 0.0 0.0 0.0 0.0 0.0 0.0 0.0 0.0 0.0 0.0 0.0 0.0 0.0 0.0 0.0 0.0 0.0 0.0 0.0 0.0 0.1 0.5 1.0 0.8 0.6 0.6 0.2 0.3 0.3 0.3 0.3 0.6 0.7
0.0 0.0 0.0 0.0 0.0 0.0 0.0 0.0 0.0 0.0 0.0 0.1 0.0 0.0 0.0 0.0 0.0 0.0 0.0 0.0 0.0 0.0 0.0 0.0 0.0 0.0 0.0 0.0 0.0 0.0 0.1 0.0 0.6 1.4 2.2 1.2 0.7 0.3 0.7 1.6 1.3 1.6 1.4
0.0 0.0 0.0 0.0 0.0 0.0 0.0 0.0 0.0 0.0 0.0 0.0 0.0 0.0 0.0 0.0 0.0 0.0 0.0 0.0 0.0 0.0 0.0 0.0 0.0 0.0 0.0 0.1 0.7 0.8 0.2 0.1 0.1 0.8 0.7 1.0 1.2 0.7 0.3 0.4 1.3 1.2 0.3
0.0 0.0 0.0 0.0 0.0 0.0 0.0 0.0 0.0 0.0 0.0 0.0 0.0 0.0 0.0 0.0 0.0 0.0 0.0 0.0 0.0 0.0 0.0 0.0 0.0 0.1 0.2 0.6 1.4 1.8 0.7 0.2 0.5 0.1 0.3 0.3 0.2 0.1 0.2 2.1 3.2 4.1 3.3
0.0 0.0 0.0 0.0 0.0 0.0 0.0 0.0 0.0 0.0 0.0 0.0 0.0 0.0 0.0 0.0 0.0 0.0 0.0 0.1 0.2 0.1 0.1 0.0 0.1 0.1 1.2 1.3 3.2 2.5 2.5 0.5 0.1 0.6 0.3 0.2 0.2 1.2 1.2 2.5 3.8 7.6 5.4
2.7 2.0 0.0 0.0 0.0 0.0 0.0 0.0 0.0 0.0 0.0 0.0 0.0 0.0 0.0 0.0 0.1 0.0 0.0 0.1 0.7 0.7 0.3 0.2 0.2 2.2 1.7 1.2 1.2 2.3 2.6 2.0 1.6 3.7 3.3 2.5 3.9 3.9 3.7 4.2 3.9 6.1 8.6
6.7 7.4 2.9 0.0 0.0 0.0 0.0 0.0 0.0 0.0 0.0 0.0 0.1 0.1 0.0 0.1 0.1 0.1 0.1 0.0 0.3 1.9 1.2 1.3 2.3 0.8 1.2 0.5 1.0 3.3 4.1 5.2 7.0 9.9 10.4 10.0 11.5 10.4 8.3 6.9 6.0 5.5 4.3
6.8 8.9 4.0 4.6 0.0 0.0 0.0 0.0 0.0 0.0 0.0 0.0 0.0 0.1 0.0 0.0 0.1 0.2 0.1 0.2 0.2 1.2 2.3 3.4 2.6 4.5 3.6 6.2 7.7 13.6 13.1 17.1 20.0 20.8 19.3 17.3 13.8 9.9 6.2 5.0 3.4 2.1 1.6
5.4 6.4 7.4 4.6 5.4 4.7 0.0 0.0 0.0 0.0 0.0 0.0 0.0 0.0 0.1 0.1 0.1 0.1 1.4 1.3 2.4 3.4 8.5 14.8 16.5 24.5 23.3 26.1 26.3 25.5 24.4 22.4 19.5 16.9 12.8 9.2 6.6 5.3 5.5 4.3 6.0 4.1 4.2
2.3 2.5 2.7 4.2 5.2 4.7 5.1 5.3 6.3 6.0 0.0 0.0 0.0 0.9 1.7 2.0 1.9 12.1 15.4 10.0 18.6 15.4 14.9 23.3 23.3 21.5 19.7 17.5 14.6 11.6 9.3 6.9 6.2 4.6 4.5 3.3 2.2 3.0 3.0 2.2 2.9 3.2 4.9
1.0 1.4 1.6 1.6 2.0 2.3 2.6 3.2 3.9 5.3 6.3 10.5 6.5 13.9 16.6 12.0 15.9 14.9 15.3 16.3 16.5 15.7 16.7 15.1 12.4 10.4 8.2 5.6 5.6 2.5 1.5 2.0 1.2 2.0 2.2 1.6 2.4 3.1 3.2 2.0 2.5 3.6 4.0
0.2 0.3 2.1 2.2 2.3 3.1 2.0 2.0 3.4 12.4 14.6 17.5 16.9 15.7 15.2 16.0 12.9 13.4 12.3 11.2 10.6 8.7 10.8 9.3 8.4 7.1 5.1 3.0 2.7 2.6 3.0 1.7 2.4 2.8 2.7 3.8 3.7 3.8 3.2 3.7 3.7 2.3 2.2
0.1 3.5 8.5 13.1 15.1 15.6 15.6 17.6 16.6 17.0 16.6 18.5 16.4 13.3 11.0 9.7 9.0 8.3 7.4 6.2 8.4 6.5 6.0 5.2 5.1 4.2 3.4 3.3 2.6 2.9 2.4 1.5 1.1 2.4 2.2 2.0 2.8 2.8 2.8 2.2 3.5 4.4 3.5
6.5 8.8 10.3 10.5 9.9 8.5 8.1 9.5 10.0 9.9 10.2 10.5 9.4 8.2 7.2 5.0 4.1 3.8 2.9 3.9 5.2 4.6 4.5 2.8 3.5 3.0 2.4 2.0 2.5 2.3 2.4 2.2 1.4 2.3 1.7 1.7 2.6 2.9 1.9 1.6 1.8 1.5 1.2
8.0 8.1 6.9 6.7 7.3 6.7 5.7 5.0 5.2 4.4 4.6 4.7 5.3 6.1 3.6 1.2 1.0 1.4 1.4 3.1 3.2 2.1 2.4 2.3 2.2 2.0 2.4 2.1 2.0 2.1 1.8 1.5 1.5 2.2 2.3 2.5 1.9 2.6 3.0 2.7 2.6 2.7 1.3
9.0 8.5 6.1 5.0 4.3 3.7 2.9 2.6 2.3 2.6 2.5 1.7 1.7 1.1 1.3 2.5 2.9 3.0 3.0 2.8 2.4 2.1 2.2 2.0 1.7 1.3 1.3 1.7 1.6 1.7 1.6 1.6 1.3 1.3 1.9 1.6 1.9 3.1 1.7 2.7 2.5 2.2 1.2
5.3 4.4 3.4 3.3 2.3 2.0 1.5 1.1 0.9 1.4 1.0 1.4 1.9 0.9 2.6 2.9 2.7 2.6 2.3 2.4 1.9 1.7 2.3 2.7 2.8 2.6 2.3 3.0 2.9 2.8 2.2 1.9 2.2 2.3 1.7 1.4 1.7 1.9 2.5 2.2 2.0 2.7 2.0
3.2 2.9 2.1 1.9 1.6 0.9 1.2 0.5 1.7 1.7 1.8 1.4 1.4 2.1 1.4 1.9 1.9 1.6 1.6 1.9 1.3 1.1 0.8 2.7 2.5 1.5 1.1 2.0 2.6 3.3 3.3 2.1 2.0 2.6 3.4 2.3 2.0 2.1 2.5 2.8 2.4 3.4 2.7
1.4 1.5 1.4 0.8 1.1 0.5 1.2 1.2 1.5 3.0 3.9 2.8 1.8 1.5 2.0 2.2 2.1 2.2 1.4 0.5 0.3 0.5 0.8 1.3 1.8 1.9 1.1 0.9 2.1 2.4 2.4 2.4 2.9 3.2 4.8 3.9 2.2 1.7 2.8 2.7 2.5 2.6 2.5
1.0 1.2 1.5 1.3 2.0 2.6 3.2 3.5 2.7 1.3 2.3 2.4 2.0 1.6 1.0 1.3 1.1 1.8 1.5 1.0 0.6 1.1 1.3 1.0 0.6 0.8 0.7 0.9 1.4 1.4 1.2 2.5 3.9 4.0 4.4 3.5 2.7 1.1 3.0 3.0 2.7 3.3 2.4
1.0 1.6 1.5 1.7 1.8 2.9 3.2 2.8 2.2 1.5 1.3 1.4 1.8 1.3 1.3 0.9 0.7 0.8 0.6 0.5 0.5 1.0 0.6 0.5 0.7 0.6 0.6 0.9 0.9 1.5 1.3 1.5 2.6 3.7 5.1 4.8 3.4 2.3 3.0 3.5 3.1 4.0 2.3

GFSGL_prec_kuchsnow_120.txt.gz
Snowfall_Accumulation
0.0 0.0 0.0 0.0 0.0 0.0 0.0 0.0 0.0 0.0 0.0 0.0 0.0 0.0 0.0 0.0 0.0 0.0 0.0 0.0 0.0 0.0 0.0 0.0 0.0 0.0 0.0 0.0 0.0 0.0 0.0 0.0 0.1 0.0 0.0 0.0 0.0 0.0 0.0 0.0 0.0 0.0 0.0
0.0 0.0 0.0 0.0 0.0 0.0 0.0 0.0 0.0 0.0 0.0 0.0 0.0 0.0 0.0 0.0 0.0 0.0 0.0 0.0 0.0 0.0 0.0 0.0 0.0 0.0 0.0 0.0 0.0 0.0 0.0 0.0 0.0 0.0 0.0 0.0 0.0 0.0 0.0 0.0 0.0 0.0 0.0
0.0 0.0 0.0 0.0 0.0 0.0 0.0 0.0 0.0 0.0 0.0 0.0 0.0 0.0 0.0 0.0 0.0 0.0 0.0 0.0 0.0 0.0 0.0 0.0 0.0 0.0 0.0 0.0 0.0 0.0 0.0 0.0 0.0 0.2 0.1 0.0 0.0 0.0 0.0 0.0 0.0 0.0 0.0
0.0 0.0 0.0 0.0 0.0 0.0 0.0 0.0 0.0 0.0 0.0 0.0 0.0 0.0 0.0 0.0 0.0 0.0 0.0 0.0 0.0 0.0 0.0 0.0 0.0 0.0 0.0 0.0 0.0 0.0 0.0 0.0 0.0 0.1 0.1 0.1 0.0 0.0 0.0 0.1 0.0 0.0 0.0
0.0 0.0 0.0 0.0 0.0 0.0 0.0 0.0 0.0 0.0 0.0 0.0 0.0 0.0 0.0 0.0 0.0 0.0 0.0 0.0 0.0 0.0 0.0 0.0 0.0 0.0 0.0 0.0 0.0 0.0 0.0 0.1 0.3 0.4 0.3 0.2 0.1 0.0 0.1 0.3 0.1 0.0 0.0
0.0 0.0 0.0 0.0 0.0 0.0 0.0 0.0 0.0 0.0 0.0 0.0 0.0 0.0 0.0 0.0 0.0 0.0 0.0 0.0 0.0 0.0 0.0 0.0 0.0 0.0 0.0 0.0 0.0 0.0 0.1 0.5 1.0 0.8 0.6 0.6 0.2 0.3 0.3 0.3 0.3 0.6 0.7
0.0 0.0 0.0 0.0 0.0 0.0 0.0 0.0 0.0 0.0 0.0 0.1 0.0 0.0 0.0 0.0 0.0 0.0 0.0 0.0 0.0 0.0 0.0 0.0 0.0 0.0 0.0 0.0 0.0 0.0 0.1 0.0 0.6 1.4 2.2 1.2 0.7 0.3 0.7 1.6 1.3 1.6 1.4
0.0 0.0 0.0 0.0 0.0 0.0 0.0 0.0 0.0 0.0 0.0 0.0 0.0 0.0 0.0 0.0 0.0 0.0 0.0 0.0 0.0 0.0 0.0 0.0 0.0 0.0 0.0 0.1 0.7 0.8 0.2 0.1 0.1 0.8 0.7 1.0 1.2 0.7 0.3 0.4 1.3 1.2 0.3
0.0 0.0 0.0 0.0 0.0 0.0 0.0 0.0 0.0 0.0 0.0 0.0 0.0 0.0 0.0 0.0 0.0 0.0 0.0 0.0 0.0 0.0 0.0 0.0 0.0 0.1 0.2 0.6 1.4 1.8 0.7 0.2 0.5 0.1 0.3 0.3 0.2 0.1 0.2 2.1 3.2 4.1 3.3
0.0 0.0 0.0 0.0 0.0 0.0 0.0 0.0 0.0 0.0 0.0 0.0 0.0 0.0 0.0 0.0 0.0 0.0 0.0 0.1 0.2 0.1 0.1 0.0 0.1 0.1 1.2 1.3 3.2 2.5 2.5 0.5 0.1 0.6 0.3 0.2 0.2 1.2 1.2 2.5 3.8 7.6 5.4
2.7 2.0 0.0 0.0 0.0 0.0 0.0 0.0 0.0 0.0 0.0 0.0 0.0 0.0 0.0 0.0 0.1 0.0 0.0 0.1 0.7 0.7 0.3 0.2 0.2 2.2 1.7 1.2 1.2 2.3 2.6 2.0 1.6 3.7 3.3 2.5 3.9 3.9 3.7 4.2 3.9 6.1 8.6
6.7 7.4 2.9 0.0 1.3 0.0 0.0 0.0 0.0 0.0 0.0 0.0 0.1 0.1 0.0 0.1 0.1 0.1 0.1 0.0 0.3 1.9 1.2 1.3 2.3 0.8 1.2 0.5 1.0 3.3 4.1 5.2 7.0 9.9 10.4 10.0 11.5 10.4 8.3 6.9 6.0 5.5 4.3
6.8 8.9 5.0 6.1 2.0 1.9 0.0 0.0 0.0 0.0 0.0 0.0 0.0 0.1 0.0 0.0 0.1 0.2 0.1 0.2 0.2 1.2 2.3 3.4 2.6 4.5 3.6 6.2 7.7 13.6 13.1 17.1 20.0 20.8 19.3 17.3 13.8 9.9 6.2 5.0 3.4 2.1 1.6
5.4 6.4 8.8 6.5 8.3 8.5 3.4 3.5 0.0 0.0 0.0 0.0 0.0 0.0 0.1 0.1 0.1 0.1 1.4 1.3 2.4 3.4 8.5 14.8 16.5 24.5 23.3 26.1 26.3 25.5 24.4 22.4 19.5 16.9 12.8 9.2 6.6 5.3 5.5 4.4 6.0 4.1 4.2
2.3 2.5 3.8 6.0 8.1 9.2 10.8 11.7 11.1 10.6 0.0 0.0 0.0 0.9 1.7 2.0 1.9 12.1 15.4 10.0 18.6 15.4 14.9 23.3 23.3 21.5 19.7 17.5 14.6 11.6 9.3 6.9 6.2 4.6 4.5 3.5 2.3 3.0 3.0 2.2 2.9 3.2 4.9
1.0 1.4 2.4 2.9 4.3 5.7 7.4 9.1 9.3 10.1 10.6 14.4 9.7 13.9 16.6 12.0 15.9 14.9 15.3 16.3 16.5 15.7 16.7 15.1 12.4 10.4 8.2 5.6 6.1 2.5 1.9 2.7 1.7 2.3 2.3 1.6 2.4 3.1 3.2 2.0 2.5 3.6 4.0
0.2 0.3 2.1 2.9 3.5 5.3 4.7 5.5 7.4 16.7 18.1 20.9 20.0 19.1 19.0 19.5 16.7 17.1 15.3 13.5 12.2 8.7 12.0 10.5 9.4 8.1 6.0 3.5 3.0 2.8 3.3 1.9 2.5 2.8 2.7 3.8 3.7 3.8 3.2 3.7 3.7 2.3 2.2
0.1 3.5 8.5 13.1 15.4 16.2 16.6 19.4 18.7 19.1 18.7 20.6 18.5 15.3 13.0 11.9 11.1 10.0 8.6 7.0 9.0 7.1 6.5 5.6 5.3 4.3 3.5 3.4 2.6 2.9 2.4 1.5 1.1 2.4 2.2 2.0 2.8 2.8 2.8 2.2 3.5 4.4 3.5
6.5 8.8 10.3 10.5 9.9 8.5 8.1 9.7 10.3 10.5 11.0 11.4 10.3 9.0 7.9 5.4 4.3 3.9 2.9 3.9 5.2 4.6 4.5 2.8 3.5 3.0 2.4 2.0 2.5 2.3 2.4 2.2 1.4 2.3 1.7 1.7 2.6 2.9 1.9 1.6 1.8 1.5 1.2
8.0 8.1 6.9 6.7 7.3 6.7 5.7 5.0 5.2 4.4 4.6 4.8 5.4 6.2 3.6 1.3 1.0 1.4 1.4 3.1 3.2 2.1 2.4 2.3 2.2 2.0 2.4 2.1 2.0 2.1 1.8 1.5 1.5 2.2 2.3 2.5 1.9 2.6 3.0 2.7 2.6 2.7 1.3
9.0 8.5 6.1 5.0 4.3 3.7 2.9 2.6 2.3 2.6 2.5 1.7 1.9 1.1 1.3 2.5 2.9 3.0 3.0 2.8 2.4 2.1 2.2 2.0 1.7 1.3 1.3 1.7 1.6 1.7 1.6 1.6 1.3 1.3 1.9 1.6 1.9 3.1 1.7 2.7 2.5 2.2 1.2
5.3 4.4 3.4 3.3 2.3 2.0 1.5 1.1 1.0 1.4 1.0 1.4 1.9 0.9 2.6 2.9 2.7 2.6 2.3 2.4 2.0 1.7 2.3 2.7 2.8 2.6 2.3 3.0 2.9 2.8 2.2 1.9 2.2 2.3 1.7 1.4 1.7 1.9 2.5 2.2 2.0 2.7 2.0
3.2 2.9 2.1 1.9 1.6 0.9 1.2 0.5 1.7 1.7 1.8 1.4 1.4 2.1 1.4 1.9 1.9 1.6 1.6 1.9 1.3 1.1 0.8 2.7 2.5 1.5 1.1 2.0 2.6 3.3 3.3 2.1 2.0 2.6 3.4 2.3 2.0 2.1 2.5 2.8 2.4 3.4 2.7
1.4 1.5 1.4 0.8 1.1 0.5 1.2 1.2 1.5 3.0 3.9 2.8 1.8 1.5 2.0 2.2 2.1 2.2 1.4 0.5 0.3 0.5 0.8 1.3 1.8 1.9 1.1 0.9 2.1 2.4 2.4 2.4 2.9 3.2 4.8 3.9 2.2 1.7 2.8 2.7 2.5 2.6 2.5
1.0 1.2 1.5 1.3 2.0 2.6 3.2 3.5 2.7 1.3 2.3 2.4 2.0 1.6 1.0 1.3 1.1 1.8 1.5 1.0 0.6 1.1 1.3 1.0 0.6 0.8 0.7 0.9 1.4 1.4 1.2 2.5 3.9 4.0 4.4 3.5 2.7 1.1 3.0 3.0 2.7 3.3 2.4
1.1 1.6 1.5 1.7 1.8 2.9 3.2 2.8 2.2 1.5 1.3 1.4 1.8 1.3 1.3 0.9 0.7 0.8 0.6 0.5 0.5 1.0 0.6 0.5 0.7 0.6 0.6 0.9 0.9 1.5 1.3 1.5 2.6 3.7 5.1 4.8 3.4 2.3 3.0 3.5 3.1 4.0 2.3

GFSGL_prec_kuchsnow_123.txt.gz
Snowfall_Accumulation
0.0 0.0 0.0 0.0 0.0 0.0 0.0 0.0 0.0 0.0 0.0 0.0 0.0 0.0 0.0 0.0 0.0 0.0 0.0 0.0 0.0 0.0 0.0 0.0 0.0 0.0 0.0 0.0 0.0 0.0 0.0 0.0 0.1 0.0 0.0 0.0 0.0 0.0 0.0 0.0 0.0 0.0 0.0
0.0 0.0 0.0 0.0 0.0 0.0 0.0 0.0 0.0 0.0 0.0 0.0 0.0 0.0 0.0 0.0 0.0 0.0 0.0 0.0 0.0 0.0 0.0 0.0 0.0 0.0 0.0 0.0 0.0 0.0 0.0 0.0 0.0 0.0 0.0 0.0 0.0 0.0 0.0 0.0 0.0 0.0 0.0
0.0 0.0 0.0 0.0 0.0 0.0 0.0 0.0 0.0 0.0 0.0 0.0 0.0 0.0 0.0 0.0 0.0 0.0 0.0 0.0 0.0 0.0 0.0 0.0 0.0 0.0 0.0 0.0 0.0 0.0 0.0 0.0 0.0 0.2 0.1 0.0 0.0 0.0 0.0 0.0 0.0 0.0 0.0
0.0 0.0 0.0 0.0 0.0 0.0 0.0 0.0 0.0 0.0 0.0 0.0 0.0 0.0 0.0 0.0 0.0 0.0 0.0 0.0 0.0 0.0 0.0 0.0 0.0 0.0 0.0 0.0 0.0 0.0 0.0 0.0 0.0 0.1 0.1 0.1 0.0 0.0 0.0 0.1 0.0 0.0 0.0
0.0 0.0 0.0 0.0 0.0 0.0 0.0 0.0 0.0 0.0 0.0 0.0 0.0 0.0 0.0 0.0 0.0 0.0 0.0 0.0 0.0 0.0 0.0 0.0 0.0 0.0 0.0 0.0 0.0 0.0 0.0 0.1 0.3 0.4 0.3 0.2 0.1 0.0 0.1 0.3 0.1 0.0 0.0
0.0 0.0 0.0 0.0 0.0 0.0 0.0 0.0 0.0 0.0 0.0 0.0 0.0 0.0 0.0 0.0 0.0 0.0 0.0 0.0 0.0 0.0 0.0 0.0 0.0 0.0 0.0 0.0 0.0 0.0 0.1 0.5 1.0 0.8 0.6 0.6 0.2 0.3 0.3 0.3 0.3 0.6 0.7
0.0 0.0 0.0 0.0 0.0 0.0 0.0 0.0 0.0 0.0 0.0 0.1 0.0 0.0 0.0 0.0 0.0 0.0 0.0 0.0 0.0 0.0 0.0 0.0 0.0 0.0 0.0 0.0 0.0 0.0 0.1 0.0 0.6 1.4 2.2 1.2 0.7 0.3 0.7 1.6 1.3 1.6 1.4
0.0 0.0 0.0 0.0 0.0 0.0 0.0 0.0 0.0 0.0 0.0 0.0 0.0 0.0 0.0 0.0 0.0 0.0 0.0 0.0 0.0 0.0 0.0 0.0 0.0 0.0 0.0 0.1 0.7 0.8 0.2 0.1 0.1 0.8 0.7 1.0 1.2 0.7 0.3 0.4 1.3 1.2 0.3
0.0 0.0 0.0 0.0 0.0 0.0 0.0 0.0 0.0 0.0 0.0 0.0 0.0 0.0 0.0 0.0 0.0 0.0 0.0 0.0 0.0 0.0 0.0 0.0 0.0 0.1 0.2 0.6 1.4 1.8 0.7 0.2 0.5 0.1 0.3 0.3 0.2 0.1 0.2 2.1 3.2 4.1 3.3
0.0 0.0 0.0 0.0 0.0 0.0 0.0 0.0 0.0 0.0 0.0 0.0 0.0 0.0 0.0 0.0 0.0 0.0 0.0 0.1 0.2 0.1 0.1 0.0 0.1 0.1 1.2 1.3 3.2 2.5 2.5 0.5 0.1 0.6 0.3 0.2 0.2 1.2 1.2 2.5 3.8 7.6 5.4
2.7 2.0 0.0 0.0 0.0 0.0 0.0 0.0 0.0 0.0 0.0 0.0 0.0 0.0 0.0 0.0 0.1 0.0 0.0 0.1 0.7 0.7 0.3 0.2 0.2 2.2 1.7 1.2 1.2 2.3 2.6 2.0 1.6 3.7 3.3 2.5 3.9 3.9 3.7 4.2 3.9 6.1 8.6
6.7 7.4 2.9 0.0 1.3 0.0 0.0 0.0 0.0 0.0 0.0 0.0 0.1 0.1 0.0 0.1 0.1 0.1 0.1 0.0 0.3 1.9 1.2 1.3 2.3 0.8 1.2 0.5 1.0 3.3 4.1 5.2 7.0 9.9 10.4 10.0 11.5 10.4 8.3 6.9 6.0 5.5 4.3
6.8 8.9 5.0 6.1 2.0 1.9 0.0 0.0 0.0 0.0 0.0 0.0 0.0 0.1 0.0 0.0 0.1 0.2 0.1 0.2 0.2 1.2 2.3 3.4 2.6 4.5 3.6 6.2 7.7 13.6 13.1 17.1 20.0 20.8 19.3 17.3 13.8 9.9 6.2 5.0 3.4 2.1 1.6
5.4 6.4 8.8 6.5 8.3 8.5 3.4 4.8 1.7 1.9 0.0 0.0 0.0 0.0 0.1 0.1 0.1 0.1 1.4 1.3 2.4 3.4 8.5 14.8 16.5 24.5 23.3 26.1 26.3 25.5 24.4 22.4 19.5 16.9 12.8 9.2 6.6 5.3 5.5 4.4 6.0 4.1 4.2
2.3 2.5 3.8 6.2 8.1 9.2 12.9 15.0 15.4 14.6 3.4 4.2 4.0 0.9 1.7 2.0 1.9 12.1 15.4 10.0 18.6 15.4 14.9 23.3 23.3 21.5 19.7 17.5 14.6 11.6 9.3 6.9 6.2 4.6 4.5 3.5 2.3 3.0 3.1 2.2 3.0 3.2 4.9
1.0 1.4 2.4 2.9 4.8 6.9 9.8 12.6 13.7 16.3 15.6 18.8 14.0 18.3 20.3 15.2 15.9 14.9 15.3 16.3 16.5 15.7 16.7 15.1 12.4 10.4 8.2 5.6 6.1 2.5 1.9 2.7 1.7 3.6 3.5 2.3 2.9 3.4 3.3 2.1 2.5 3.6 4.0
0.2 0.3 2.1 2.9 3.8 5.9 6.5 8.3 11.1 21.3 23.8 26.8 25.7 24.1 23.1 23.0 19.7 20.9 18.8 17.2 15.3 11.1 14.2 12.9 11.3 10.0 7.8 5.4 4.5 4.5 5.1 3.7 4.1 4.1 3.8 4.6 4.2 3.9 3.3 3.7 3.7 2.3 2.2
0.1 3.5 8.5 13.1 15.5 16.5 17.2 20.9 21.3 22.3 21.9 23.9 22.0 18.8 16.2 14.8 13.8 13.0 12.2 10.5 12.6 10.6 9.3 8.0 7.6 6.3 5.2 5.0 4.0 4.1 3.3 2.2 1.5 2.6 2.2 2.0 2.8 2.8 2.8 2.2 3.5 4.4 3.5
6.5 8.8 10.3 10.5 9.9 8.5 8.1 9.9 10.8 11.4 12.4 13.0 11.9 10.3 9.3 6.7 5.4 4.7 3.5 4.7 6.3 5.7 5.7 3.7 4.2 3.5 2.8 2.3 2.5 2.3 2.4 2.2 1.4 2.3 1.7 1.7 2.6 2.9 1.9 1.6 1.8 1.5 1.2
8.0 8.1 6.9 6.7 7.3 6.7 5.7 5.0 5.2 4.4 4.6 4.9 5.7 6.6 3.9 1.7 1.4 1.8 1.7 3.3 3.4 2.3 2.6 2.4 2.3 2.0 2.4 2.1 2.0 2.1 1.8 1.5 1.5 2.2 2.3 2.5 1.9 2.6 3.0 2.7 2.6 2.7 1.3
9.0 8.5 6.1 5.0 4.3 3.7 2.9 2.6 2.3 2.6 2.5 1.7 1.9 1.2 1.3 2.5 2.9 3.0 3.0 2.8 2.4 2.1 2.2 2.0 1.7 1.3 1.3 1.7 1.6 1.7 1.6 1.6 1.3 1.3 1.9 1.6 1.9 3.1 1.7 2.7 2.5 2.2 1.2
5.3 4.4 3.4 3.3 2.3 2.0 1.5 1.1 1.0 1.4 1.0 1.4 1.9 0.9 2.6 2.9 2.7 2.6 2.3 2.5 2.0 1.7 2.3 2.7 2.8 2.6 2.3 3.0 2.9 2.8 2.2 1.9 2.2 2.3 1.7 1.4 1.7 1.9 2.5 2.2 2.0 2.7 2.0
3.2 2.9 2.1 1.9 1.6 0.9 1.2 0.5 1.7 1.7 1.8 1.4 1.4 2.1 1.4 1.9 1.9 1.7 1.6 1.9 1.3 1.1 0.8 2.7 2.5 1.5 1.1 2.0 2.6 3.3 3.3 2.1 2.0 2.6 3.4 2.3 2.0 2.1 2.5 2.8 2.4 3.4 2.7
1.4 1.5 1.4 0.8 1.1 0.5 1.2 1.2 1.5 3.0 3.9 2.8 1.8 1.5 2.0 2.2 2.1 2.2 1.4 0.5 0.3 0.5 0.8 1.3 1.8 1.9 1.1 0.9 2.1 2.4 2.4 2.4 2.9 3.2 4.8 3.9 2.2 1.7 2.8 2.7 2.5 2.6 2.5
1.0 1.2 1.5 1.3 2.0 2.6 3.2 3.5 2.7 1.3 2.3 2.4 2.0 1.6 1.0 1.3 1.1 1.8 1.5 1.0 0.6 1.1 1.3 1.0 0.6 0.8 0.7 0.9 1.4 1.4 1.2 2.5 3.9 4.0 4.4 3.5 2.7 1.1 3.0 3.0 2.7 3.3 2.4
1.2 1.7 1.6 1.7 1.8 2.9 3.2 2.8 2.2 1.5 1.3 1.4 1.8 1.3 1.3 0.9 0.7 0.8 0.6 0.5 0.5 1.0 0.6 0.5 0.7 0.6 0.6 0.9 0.9 1.5 1.3 1.5 2.6 3.7 5.1 4.8 3.4 2.3 3.0 3.5 3.1 4.0 2.3

GFSGL_prec_kuchsnow_126.txt.gz
Snowfall_Accumulation
0.0 0.0 0.0 0.0 0.0 0.0 0.0 0.0 0.0 0.0 0.0 0.0 0.0 0.0 0.0 0.0 0.0 0.0 0.0 0.0 0.0 0.0 0.0 0.0 0.0 0.0 0.0 0.0 0.0 0.0 0.0 0.0 0.1 0.0 0.0 0.0 0.0 0.0 0.0 0.0 0.0 0.0 0.0
0.0 0.0 0.0 0.0 0.0 0.0 0.0 0.0 0.0 0.0 0.0 0.0 0.0 0.0 0.0 0.0 0.0 0.0 0.0 0.0 0.0 0.0 0.0 0.0 0.0 0.0 0.0 0.0 0.0 0.0 0.0 0.0 0.0 0.0 0.0 0.0 0.0 0.0 0.0 0.0 0.0 0.0 0.0
0.0 0.0 0.0 0.0 0.0 0.0 0.0 0.0 0.0 0.0 0.0 0.0 0.0 0.0 0.0 0.0 0.0 0.0 0.0 0.0 0.0 0.0 0.0 0.0 0.0 0.0 0.0 0.0 0.0 0.0 0.0 0.0 0.0 0.2 0.1 0.0 0.0 0.0 0.0 0.0 0.0 0.0 0.0
0.0 0.0 0.0 0.0 0.0 0.0 0.0 0.0 0.0 0.0 0.0 0.0 0.0 0.0 0.0 0.0 0.0 0.0 0.0 0.0 0.0 0.0 0.0 0.0 0.0 0.0 0.0 0.0 0.0 0.0 0.0 0.0 0.0 0.1 0.1 0.1 0.0 0.0 0.0 0.1 0.0 0.0 0.0
0.0 0.0 0.0 0.0 0.0 0.0 0.0 0.0 0.0 0.0 0.0 0.0 0.0 0.0 0.0 0.0 0.0 0.0 0.0 0.0 0.0 0.0 0.0 0.0 0.0 0.0 0.0 0.0 0.0 0.0 0.0 0.1 0.3 0.4 0.3 0.2 0.1 0.0 0.1 0.3 0.1 0.0 0.0
0.0 0.0 0.0 0.0 0.0 0.0 0.0 0.0 0.0 0.0 0.0 0.0 0.0 0.0 0.0 0.0 0.0 0.0 0.0 0.0 0.0 0.0 0.0 0.0 0.0 0.0 0.0 0.0 0.0 0.0 0.1 0.5 1.0 0.8 0.6 0.6 0.2 0.3 0.3 0.3 0.3 0.6 0.7
0.0 0.0 0.0 0.0 0.0 0.0 0.0 0.0 0.0 0.0 0.0 0.1 0.0 0.0 0.0 0.0 0.0 0.0 0.0 0.0 0.0 0.0 0.0 0.0 0.0 0.0 0.0 0.0 0.0 0.0 0.1 0.0 0.6 1.4 2.2 1.2 0.7 0.3 0.7 1.6 1.3 1.6 1.4
0.0 0.0 0.0 0.0 0.0 0.0 0.0 0.0 0.0 0.0 0.0 0.0 0.0 0.0 0.0 0.0 0.0 0.0 0.0 0.0 0.0 0.0 0.0 0.0 0.0 0.0 0.0 0.1 0.7 0.8 0.2 0.1 0.1 0.8 0.7 1.0 1.2 0.7 0.3 0.4 1.3 1.2 0.3
0.0 0.0 0.0 0.0 0.0 0.0 0.0 0.0 0.0 0.0 0.0 0.0 0.0 0.0 0.0 0.0 0.0 0.0 0.0 0.0 0.0 0.0 0.0 0.0 0.0 0.1 0.2 0.6 1.4 1.8 0.7 0.2 0.5 0.1 0.3 0.3 0.2 0.1 0.2 2.1 3.2 4.1 3.3
0.0 0.0 0.0 0.0 0.0 0.0 0.0 0.0 0.0 0.0 0.0 0.0 0.0 0.0 0.0 0.0 0.0 0.0 0.0 0.1 0.2 0.1 0.1 0.0 0.1 0.1 1.2 1.3 3.2 2.5 2.5 0.5 0.1 0.6 0.3 0.2 0.2 1.2 1.2 2.5 3.8 7.6 5.4
2.7 2.0 0.0 0.0 0.0 0.0 0.0 0.0 0.0 0.0 0.0 0.0 0.0 0.0 0.0 0.0 0.1 0.0 0.0 0.1 0.7 0.7 0.3 0.2 0.2 2.2 1.7 1.2 1.2 2.3 2.6 2.0 1.6 3.7 3.3 2.5 3.9 3.9 3.7 4.2 3.9 6.1 8.6
6.7 7.4 2.9 0.0 1.3 0.0 0.0 0.0 0.0 0.0 0.0 0.0 0.1 0.1 0.0 0.1 0.1 0.1 0.1 0.0 0.3 1.9 1.2 1.3 2.3 0.8 1.2 0.5 1.0 3.3 4.1 5.2 7.0 9.9 10.4 10.0 11.5 10.4 8.3 6.9 6.0 5.5 4.3
6.8 8.9 5.0 6.1 2.0 1.9 0.0 0.0 0.0 0.0 0.0 0.0 0.0 0.1 0.0 0.0 0.1 0.2 0.1 0.2 0.2 1.2 2.3 3.4 2.6 4.5 3.6 6.2 7.7 13.6 13.1 17.1 20.0 20.8 19.3 17.3 13.8 9.9 6.2 5.0 3.4 2.1 1.6
5.4 6.4 8.8 6.5 8.3 8.5 3.4 4.8 1.9 1.9 0.6 0.5 0.0 0.0 0.1 0.1 0.1 0.1 1.4 1.3 2.4 3.4 8.5 14.8 16.5 24.5 23.3 26.1 26.3 25.5 24.4 22.4 19.5 16.9 12.8 9.2 6.6 5.3 5.5 4.4 6.0 4.1 4.2
2.3 2.5 3.8 6.2 8.1 9.2 13.1 15.5 16.1 16.1 5.3 6.2 6.3 3.1 3.7 2.0 1.9 12.1 15.4 10.0 18.6 15.4 14.9 23.3 23.3 21.5 19.7 17.5 14.6 11.6 9.3 6.9 6.2 4.6 4.5 3.5 2.3 3.0 3.1 2.2 3.0 3.2 4.9
1.0 1.4 2.4 2.9 4.8 6.9 9.8 12.6 13.7 18.1 17.8 21.6 17.3 22.6 24.9 19.0 19.4 14.9 15.3 16.3 16.5 15.7 16.7 15.1 12.4 10.4 8.2 5.6 6.1 2.5 1.9 2.7 1.7 3.6 3.5 2.3 2.9 3.4 4.3 3.1 3.6 4.4 4.5
0.3 0.3 2.1 2.9 3.8 5.9 6.5 8.7 12.0 23.2 26.3 30.3 29.4 28.4 28.0 28.8 25.2 26.6 25.4 21.6 19.0 14.2 16.4 12.9 11.3 10.0 7.8 5.4 4.5 4.5 5.1 3.7 4.1 6.0 6.1 6.9 6.2 5.7 4.6 4.6 4.3 2.5 2.3
0.1 3.5 8.5 13.1 15.5 16.5 17.2 20.9 22.1 23.6 23.6 26.1 25.2 22.3 20.0 19.0 18.1 17.6 17.4 15.7 17.4 14.7 12.7 11.3 11.0 9.5 8.2 7.6 6.6 6.6 5.8 4.8 4.1 4.8 4.1 3.5 3.8 3.4 3.2 2.4 3.6 4.5 3.5
6.5 8.8 10.4 10.5 9.9 8.5 8.1 9.9 10.8 11.4 13.4 14.5 13.6 12.0 11.4 9.2 7.9 7.3 6.0 7.1 9.1 8.7 8.8 6.5 6.8 6.1 5.3 4.5 4.3 3.9 3.7 3.2 2.1 2.9 2.2 2.1 2.8 3.0 1.9 1.6 1.8 1.5 1.2
8.0 8.2 6.9 6.8 7.3 6.7 5.7 5.0 5.2 4.4 4.6 4.9 6.1 7.3 5.0 2.7 2.2 3.0 3.1 4.9 5.1 4.1 4.3 3.8 3.4 2.8 2.9 2.5 2.3 2.2 1.9 1.5 1.5 2.2 2.3 2.5 1.9 2.6 3.0 2.7 2.6 2.7 1.3
9.0 8.5 6.1 5.0 4.3 3.7 2.9 2.6 2.3 2.6 2.5 1.7 2.0 1.2 1.4 2.5 3.1 3.2 3.3 3.2 2.9 2.8 3.0 2.6 2.2 1.7 1.6 1.8 1.7 1.8 1.6 1.6 1.3 1.3 1.9 1.6 1.9 3.1 1.7 2.7 2.5 2.2 1.2
5.3 4.4 3.4 3.4 2.3 2.0 1.5 1.1 1.0 1.4 1.0 1.4 1.9 0.9 2.6 2.9 2.7 2.6 2.3 2.6 2.1 1.8 2.4 2.8 2.9 2.7 2.3 3.0 2.9 2.8 2.2 1.9 2.2 2.3 1.7 1.4 1.7 1.9 2.5 2.2 2.0 2.7 2.0
3.2 2.9 2.1 1.9 1.6 0.9 1.2 0.5 1.7 1.7 1.8 1.4 1.4 2.1 1.4 1.9 1.9 1.7 1.7 1.9 1.3 1.1 0.8 2.7 2.5 1.5 1.1 2.0 2.6 3.3 3.3 2.1 2.0 2.6 3.4 2.3 2.0 2.1 2.5 2.8 2.4 3.4 2.7
1.4 1.5 1.4 0.8 1.1 0.5 1.2 1.2 1.5 3.0 3.9 2.8 1.8 1.5 2.0 2.2 2.1 2.2 1.4 0.5 0.3 0.5 0.8 1.3 1.8 1.9 1.1 0.9 2.1 2.4 2.4 2.4 2.9 3.2 4.8 3.9 2.2 1.7 2.8 2.7 2.5 2.6 2.5
1.0 1.2 1.5 1.3 2.0 2.6 3.2 3.5 2.7 1.3 2.3 2.4 2.0 1.6 1.0 1.3 1.1 1.8 1.5 1.0 0.6 1.1 1.3 1.0 0.6 0.8 0.7 0.9 1.4 1.4 1.2 2.5 3.9 4.0 4.4 3.5 2.7 1.1 3.0 3.0 2.7 3.3 2.4
1.2 1.7 1.6 1.7 1.8 2.9 3.2 2.8 2.2 1.5 1.3 1.4 1.8 1.3 1.3 0.9 0.7 0.8 0.6 0.5 0.5 1.0 0.6 0.5 0.7 0.6 0.6 0.9 0.9 1.5 1.3 1.5 2.6 3.7 5.1 4.8 3.4 2.3 3.0 3.5 3.1 4.0 2.3

GFSGL_prec_kuchsnow_129.txt.gz
Snowfall_Accumulation
0.0 0.0 0.0 0.0 0.0 0.0 0.0 0.0 0.0 0.0 0.0 0.0 0.0 0.0 0.0 0.0 0.0 0.0 0.0 0.0 0.0 0.0 0.0 0.0 0.0 0.0 0.0 0.0 0.0 0.0 0.0 0.0 0.1 0.0 0.0 0.0 0.0 0.0 0.0 0.0 0.0 0.0 0.0
0.0 0.0 0.0 0.0 0.0 0.0 0.0 0.0 0.0 0.0 0.0 0.0 0.0 0.0 0.0 0.0 0.0 0.0 0.0 0.0 0.0 0.0 0.0 0.0 0.0 0.0 0.0 0.0 0.0 0.0 0.0 0.0 0.0 0.0 0.0 0.0 0.0 0.0 0.0 0.0 0.0 0.0 0.0
0.0 0.0 0.0 0.0 0.0 0.0 0.0 0.0 0.0 0.0 0.0 0.0 0.0 0.0 0.0 0.0 0.0 0.0 0.0 0.0 0.0 0.0 0.0 0.0 0.0 0.0 0.0 0.0 0.0 0.0 0.0 0.0 0.0 0.2 0.1 0.0 0.0 0.0 0.0 0.0 0.0 0.0 0.0
0.0 0.0 0.0 0.0 0.0 0.0 0.0 0.0 0.0 0.0 0.0 0.0 0.0 0.0 0.0 0.0 0.0 0.0 0.0 0.0 0.0 0.0 0.0 0.0 0.0 0.0 0.0 0.0 0.0 0.0 0.0 0.0 0.0 0.1 0.1 0.1 0.0 0.0 0.0 0.1 0.0 0.0 0.0
0.0 0.0 0.0 0.0 0.0 0.0 0.0 0.0 0.0 0.0 0.0 0.0 0.0 0.0 0.0 0.0 0.0 0.0 0.0 0.0 0.0 0.0 0.0 0.0 0.0 0.0 0.0 0.0 0.0 0.0 0.0 0.1 0.3 0.4 0.3 0.2 0.1 0.0 0.1 0.3 0.1 0.0 0.0
0.0 0.0 0.0 0.0 0.0 0.0 0.0 0.0 0.0 0.0 0.0 0.0 0.0 0.0 0.0 0.0 0.0 0.0 0.0 0.0 0.0 0.0 0.0 0.0 0.0 0.0 0.0 0.0 0.0 0.0 0.1 0.5 1.0 0.8 0.6 0.6 0.2 0.3 0.3 0.3 0.3 0.6 0.7
0.0 0.0 0.0 0.0 0.0 0.0 0.0 0.0 0.0 0.0 0.0 0.1 0.0 0.0 0.0 0.0 0.0 0.0 0.0 0.0 0.0 0.0 0.0 0.0 0.0 0.0 0.0 0.0 0.0 0.0 0.1 0.0 0.6 1.4 2.2 1.2 0.7 0.3 0.7 1.6 1.3 1.6 1.4
0.0 0.0 0.0 0.0 0.0 0.0 0.0 0.0 0.0 0.0 0.0 0.0 0.0 0.0 0.0 0.0 0.0 0.0 0.0 0.0 0.0 0.0 0.0 0.0 0.0 0.0 0.0 0.1 0.7 0.8 0.2 0.1 0.1 0.8 0.7 1.0 1.2 0.7 0.3 0.4 1.3 1.2 0.3
0.0 0.0 0.0 0.0 0.0 0.0 0.0 0.0 0.0 0.0 0.0 0.0 0.0 0.0 0.0 0.0 0.0 0.0 0.0 0.0 0.0 0.0 0.0 0.0 0.0 0.1 0.2 0.6 1.4 1.8 0.7 0.2 0.5 0.1 0.3 0.3 0.2 0.1 0.2 2.1 3.2 4.1 3.3
0.0 0.0 0.0 0.0 0.0 0.0 0.0 0.0 0.0 0.0 0.0 0.0 0.0 0.0 0.0 0.0 0.0 0.0 0.0 0.1 0.2 0.1 0.1 0.0 0.1 0.1 1.2 1.3 3.2 2.5 2.5 0.5 0.1 0.6 0.3 0.2 0.2 1.2 1.2 2.5 3.8 7.6 5.4
2.7 2.0 0.0 0.0 0.0 0.0 0.0 0.0 0.0 0.0 0.0 0.0 0.0 0.0 0.0 0.0 0.1 0.0 0.0 0.1 0.7 0.7 0.3 0.2 0.2 2.2 1.7 1.2 1.2 2.3 2.6 2.0 1.6 3.7 3.3 2.5 3.9 3.9 3.7 4.2 3.9 6.1 8.6
6.7 7.4 2.9 0.0 1.3 0.0 0.0 0.0 0.0 0.0 0.0 0.0 0.1 0.1 0.0 0.1 0.1 0.1 0.1 0.0 0.3 1.9 1.2 1.3 2.3 0.8 1.2 0.5 1.0 3.3 4.1 5.2 7.0 9.9 10.4 10.0 11.5 10.4 8.3 6.9 6.0 5.5 4.3
6.8 8.9 5.0 6.1 2.0 1.9 0.0 0.0 0.0 0.0 0.0 0.0 0.0 0.1 0.0 0.0 0.1 0.2 0.1 0.2 0.2 1.2 2.3 3.4 2.6 4.5 3.6 6.2 7.7 13.6 13.1 17.1 20.0 20.8 19.3 17.3 13.8 9.9 6.2 5.0 3.4 2.1 1.6
5.4 6.4 8.8 6.5 8.3 8.5 3.4 4.8 1.9 1.9 0.6 0.5 0.0 0.0 0.1 0.1 0.1 0.1 1.4 1.3 2.4 3.4 8.5 14.8 16.5 24.5 23.3 26.1 26.3 25.5 24.4 22.4 19.5 16.9 12.8 9.2 6.6 5.3 5.5 4.4 6.0 4.1 4.2
2.3 2.5 3.8 6.2 8.1 9.2 13.2 15.7 16.3 16.4 5.7 6.5 6.9 3.8 4.5 3.1 3.6 12.1 15.4 10.0 18.6 15.4 14.9 23.3 23.3 21.5 19.7 17.5 14.6 11.6 9.3 6.9 6.2 4.6 4.5 3.5 2.3 3.0 3.1 2.2 3.0 3.2 4.9
1.0 1.4 2.4 2.9 4.8 6.9 9.8 12.7 13.7 18.1 18.0 21.9 17.8 23.3 26.0 21.1 21.9 17.8 18.0 18.6 16.5 15.7 16.7 15.1 12.4 10.4 8.2 5.6 6.1 2.5 1.9 2.7 1.7 3.6 3.5 2.3 2.9 3.4 4.3 3.1 3.6 4.4 4.5
0.3 0.3 2.1 2.9 3.8 5.9 6.5 8.7 12.1 23.2 26.3 30.3 30.1 29.4 29.5 30.7 27.7 29.5 29.4 25.9 22.6 17.0 19.5 12.9 11.3 10.0 7.8 5.4 4.5 4.5 5.1 3.7 4.1 6.0 6.1 6.9 6.2 5.7 5.9 5.9 5.7 3.8 3.3
0.1 3.5 8.5 13.1 15.5 16.5 17.2 20.9 22.1 23.6 23.8 26.1 25.2 23.4 21.6 21.1 20.5 20.7 21.4 20.1 22.4 19.6 17.3 15.5 14.8 13.1 11.1 9.7 6.6 6.6 7.3 4.8 4.1 6.4 5.7 5.2 5.7 5.3 5.0 4.0 4.9 5.3 4.1
6.5 8.8 10.4 10.5 9.9 8.5 8.1 9.9 10.8 11.4 13.4 14.5 13.6 12.0 12.5 11.1 10.0 9.7 8.8 10.0 13.0 13.4 13.9 11.3 11.2 10.3 9.4 8.4 8.0 7.2 6.7 5.9 4.6 5.1 4.3 3.8 4.2 4.2 2.9 2.4 2.4 1.7 1.3
8.0 8.2 6.9 6.8 7.3 6.7 5.7 5.0 5.2 4.4 4.6 4.9 6.1 7.8 6.1 4.0 3.5 4.5 4.7 6.9 7.5 7.2 8.1 7.7 7.2 6.1 5.9 5.2 4.9 4.7 3.9 3.1 2.8 3.2 3.0 3.1 2.2 2.8 3.2 2.8 2.6 2.7 1.3
9.0 8.5 6.1 5.0 4.3 3.7 2.9 2.6 2.3 2.6 2.5 1.7 2.0 1.2 1.4 2.5 3.7 4.2 4.5 4.6 4.5 4.5 5.0 4.7 4.3 3.6 3.1 3.0 2.6 2.5 2.3 2.2 1.7 1.6 2.1 1.8 2.0 3.2 1.7 2.7 2.5 2.2 1.2
5.3 4.4 3.4 3.4 2.3 2.0 1.5 1.1 1.0 1.4 1.0 1.4 1.9 0.9 2.6 2.9 2.7 2.6 2.5 2.8 2.5 2.4 3.1 3.5 3.6 3.4 2.9 3.4 3.3 3.1 2.4 2.1 2.3 2.4 1.8 1.5 1.8 1.9 2.6 2.2 2.0 2.7 2.0
3.2 2.9 2.1 1.9 1.6 0.9 1.2 0.5 1.7 1.7 1.8 1.4 1.4 2.1 1.4 1.9 1.9 1.7 1.7 1.9 1.3 1.1 0.8 2.8 2.6 1.7 1.3 2.2 2.8 3.5 3.4 2.2 2.0 2.6 3.4 2.3 2.0 2.1 2.5 2.8 2.4 3.4 2.7
1.4 1.5 1.4 0.8 1.1 0.5 1.2 1.2 1.5 3.0 3.9 2.8 1.8 1.5 2.0 2.2 2.1 2.2 1.4 0.5 0.3 0.5 0.8 1.3 1.8 1.9 1.1 0.9 2.1 2.4 2.4 2.4 2.9 3.2 4.8 3.9 2.2 1.7 2.8 2.7 2.5 2.6 2.5
1.0 1.2 1.5 1.3 2.0 2.6 3.2 3.5 2.7 1.3 2.3 2.4 2.0 1.6 1.0 1.3 1.1 1.8 1.5 1.0 0.6 1.1 1.3 1.0 0.6 0.8 0.7 0.9 1.4 1.4 1.2 2.5 3.9 4.0 4.4 3.5 2.7 1.1 3.0 3.0 2.7 3.3 2.4
1.2 1.7 1.6 1.7 1.8 2.9 3.2 2.8 2.2 1.5 1.3 1.4 1.8 1.3 1.3 0.9 0.7 0.8 0.6 0.5 0.5 1.0 0.6 0.5 0.7 0.6 0.6 0.9 0.9 1.5 1.3 1.5 2.6 3.7 5.1 4.8 3.4 2.3 3.0 3.5 3.1 4.0 2.3

GFSGL_prec_kuchsnow_132.txt.gz
Snowfall_Accumulation
0.0 0.0 0.0 0.0 0.0 0.0 0.0 0.0 0.0 0.0 0.0 0.0 0.0 0.0 0.0 0.0 0.0 0.0 0.0 0.0 0.0 0.0 0.0 0.0 0.0 0.0 0.0 0.0 0.0 0.0 0.0 0.0 0.1 0.0 0.0 0.0 0.0 0.0 0.0 0.0 0.0 0.0 0.0
0.0 0.0 0.0 0.0 0.0 0.0 0.0 0.0 0.0 0.0 0.0 0.0 0.0 0.0 0.0 0.0 0.0 0.0 0.0 0.0 0.0 0.0 0.0 0.0 0.0 0.0 0.0 0.0 0.0 0.0 0.0 0.0 0.0 0.0 0.0 0.0 0.0 0.0 0.0 0.0 0.0 0.0 0.0
0.0 0.0 0.0 0.0 0.0 0.0 0.0 0.0 0.0 0.0 0.0 0.0 0.0 0.0 0.0 0.0 0.0 0.0 0.0 0.0 0.0 0.0 0.0 0.0 0.0 0.0 0.0 0.0 0.0 0.0 0.0 0.0 0.0 0.2 0.1 0.0 0.0 0.0 0.0 0.0 0.0 0.0 0.0
0.0 0.0 0.0 0.0 0.0 0.0 0.0 0.0 0.0 0.0 0.0 0.0 0.0 0.0 0.0 0.0 0.0 0.0 0.0 0.0 0.0 0.0 0.0 0.0 0.0 0.0 0.0 0.0 0.0 0.0 0.0 0.0 0.0 0.1 0.1 0.1 0.0 0.0 0.0 0.1 0.0 0.0 0.0
0.0 0.0 0.0 0.0 0.0 0.0 0.0 0.0 0.0 0.0 0.0 0.0 0.0 0.0 0.0 0.0 0.0 0.0 0.0 0.0 0.0 0.0 0.0 0.0 0.0 0.0 0.0 0.0 0.0 0.0 0.0 0.1 0.3 0.4 0.3 0.2 0.1 0.0 0.1 0.3 0.1 0.0 0.0
0.0 0.0 0.0 0.0 0.0 0.0 0.0 0.0 0.0 0.0 0.0 0.0 0.0 0.0 0.0 0.0 0.0 0.0 0.0 0.0 0.0 0.0 0.0 0.0 0.0 0.0 0.0 0.0 0.0 0.0 0.1 0.5 1.0 0.8 0.6 0.6 0.2 0.3 0.3 0.3 0.3 0.6 0.7
0.0 0.0 0.0 0.0 0.0 0.0 0.0 0.0 0.0 0.0 0.0 0.1 0.0 0.0 0.0 0.0 0.0 0.0 0.0 0.0 0.0 0.0 0.0 0.0 0.0 0.0 0.0 0.0 0.0 0.0 0.1 0.0 0.6 1.4 2.2 1.2 0.7 0.3 0.7 1.6 1.3 1.6 1.4
0.0 0.0 0.0 0.0 0.0 0.0 0.0 0.0 0.0 0.0 0.0 0.0 0.0 0.0 0.0 0.0 0.0 0.0 0.0 0.0 0.0 0.0 0.0 0.0 0.0 0.0 0.0 0.1 0.7 0.8 0.2 0.1 0.1 0.8 0.7 1.0 1.2 0.7 0.3 0.4 1.3 1.2 0.3
0.0 0.0 0.0 0.0 0.0 0.0 0.0 0.0 0.0 0.0 0.0 0.0 0.0 0.0 0.0 0.0 0.0 0.0 0.0 0.0 0.0 0.0 0.0 0.0 0.0 0.1 0.2 0.6 1.4 1.8 0.7 0.2 0.5 0.1 0.3 0.3 0.2 0.1 0.2 2.1 3.2 4.1 3.3
0.0 0.0 0.0 0.0 0.0 0.0 0.0 0.0 0.0 0.0 0.0 0.0 0.0 0.0 0.0 0.0 0.0 0.0 0.0 0.1 0.2 0.1 0.1 0.0 0.1 0.1 1.2 1.3 3.2 2.5 2.5 0.5 0.1 0.6 0.3 0.2 0.2 1.2 1.2 2.5 3.8 7.6 5.4
2.7 2.0 0.0 0.0 0.0 0.0 0.0 0.0 0.0 0.0 0.0 0.0 0.0 0.0 0.0 0.0 0.1 0.0 0.0 0.1 0.7 0.7 0.3 0.2 0.2 2.2 1.7 1.2 1.2 2.3 2.6 2.0 1.6 3.7 3.3 2.5 3.9 3.9 3.7 4.2 3.9 6.1 8.6
6.7 7.4 2.9 0.0 1.3 0.0 0.0 0.0 0.0 0.0 0.0 0.0 0.1 0.1 0.0 0.1 0.1 0.1 0.1 0.0 0.3 1.9 1.2 1.3 2.3 0.8 1.2 0.5 1.0 3.3 4.1 5.2 7.0 9.9 10.4 10.0 11.5 10.4 8.3 6.9 6.0 5.5 4.3
6.8 8.9 5.0 6.2 2.0 2.0 0.0 0.0 0.0 0.0 0.0 0.0 0.0 0.1 0.0 0.0 0.1 0.2 0.1 0.2 0.2 1.2 2.3 3.4 2.6 4.5 3.6 6.2 7.7 13.6 13.1 17.1 20.0 20.8 19.3 17.3 13.8 9.9 6.2 5.0 3.4 2.1 1.6
5.4 6.4 8.8 6.5 8.3 8.5 3.4 4.9 2.0 1.9 0.6 0.5 0.0 0.0 0.1 0.1 0.1 0.1 1.4 1.3 2.4 3.4 8.5 14.8 16.5 24.5 23.3 26.1 26.3 25.5 24.4 22.4 19.5 16.9 12.8 9.2 6.6 5.3 5.5 4.4 6.0 4.1 4.2
2.3 2.5 3.8 6.2 8.1 9.3 13.2 15.8 16.5 16.6 5.9 6.8 7.2 4.0 4.7 3.3 3.9 12.4 15.4 10.0 18.6 15.4 14.9 23.3 23.3 21.5 19.7 17.5 14.6 11.6 9.3 6.9 6.2 4.6 4.5 3.5 2.3 3.0 3.1 2.2 3.0 3.2 4.9
1.0 1.4 2.4 2.9 4.8 6.9 9.8 12.7 13.7 18.1 18.0 22.1 17.9 23.5 26.2 21.4 22.1 18.0 18.8 19.7 17.7 16.9 16.7 15.1 12.4 10.4 8.2 5.6 6.1 2.5 1.9 2.7 1.7 3.6 3.5 2.3 2.9 3.4 4.3 3.1 3.6 4.4 4.5
0.4 0.3 2.1 2.9 3.8 5.9 6.5 8.7 12.1 23.2 26.3 30.3 30.2 29.5 29.6 31.0 27.9 29.8 30.1 27.8 25.3 19.1 21.4 15.8 14.6 10.0 7.8 5.4 4.5 4.5 5.1 3.7 4.1 6.0 6.1 6.9 6.2 5.7 5.9 5.9 5.7 3.8 3.3
0.1 3.5 8.5 13.1 15.5 16.5 17.2 20.9 22.1 23.6 23.8 26.2 25.2 23.5 21.7 21.4 20.9 21.2 22.1 20.1 24.9 23.3 21.4 19.4 18.9 17.5 15.7 13.5 9.2 8.5 7.3 4.8 4.1 6.4 5.7 5.2 5.7 5.3 5.0 4.8 5.8 6.4 5.3
6.5 8.8 10.4 10.5 9.9 8.5 8.1 9.9 10.8 11.4 13.4 14.5 13.6 12.0 12.6 11.5 10.0 9.7 8.8 11.0 14.9 16.3 17.7 15.6 15.7 14.6 14.3 13.7 13.1 11.8 10.8 9.9 8.1 8.1 7.2 6.4 6.7 6.3 5.1 4.6 4.3 3.3 2.5
8.0 8.2 6.9 6.8 7.3 6.7 5.7 5.0 5.2 4.4 4.6 4.9 6.1 7.9 6.1 4.0 3.5 4.5 5.5 7.9 8.9 9.3 11.0 11.0 11.0 10.0 9.7 9.2 9.1 9.0 8.1 7.2 6.8 6.7 6.1 5.7 4.5 4.7 4.8 4.1 3.6 3.4 1.7
9.0 8.5 6.1 5.0 4.3 3.7 2.9 2.6 2.3 2.6 2.5 1.7 2.0 1.2 1.4 2.5 3.8 4.4 5.1 5.5 5.8 6.2 7.1 7.2 7.1 6.6 6.0 5.6 4.7 4.4 4.2 4.1 3.4 3.1 3.4 3.0 3.0 4.0 2.4 3.2 2.8 2.4 1.4
5.3 4.4 3.4 3.4 2.3 2.0 1.5 1.1 1.0 1.4 1.0 1.4 1.9 0.9 2.6 2.9 2.7 2.6 2.6 3.1 2.9 3.0 4.0 4.8 5.1 5.0 4.4 4.9 4.5 4.0 3.2 2.8 2.9 3.0 2.3 2.0 2.2 2.2 2.8 2.4 2.1 2.8 2.0
3.2 2.9 2.1 1.9 1.6 0.9 1.2 0.5 1.7 1.7 1.8 1.4 1.4 2.1 1.4 2.0 2.0 1.8 1.8 2.0 1.4 1.1 0.8 2.8 2.6 2.3 2.0 3.0 3.6 4.3 4.2 2.9 2.5 2.9 3.7 2.5 2.2 2.2 2.6 2.8 2.4 3.4 2.7
1.4 1.6 1.4 0.8 1.1 0.5 1.2 1.2 1.5 3.0 3.9 2.8 1.8 1.5 2.0 2.2 2.1 2.2 1.4 0.5 0.3 0.5 0.8 1.3 1.8 1.9 1.1 0.9 2.2 2.5 2.6 2.6 3.1 3.3 5.0 4.1 2.4 1.8 2.9 2.8 2.6 2.7 2.6
1.0 1.2 1.5 1.4 2.0 2.7 3.2 3.5 2.7 1.4 2.3 2.5 2.0 1.6 1.0 1.3 1.1 1.8 1.5 1.0 0.6 1.1 1.3 1.0 0.6 0.8 0.7 0.9 1.4 1.4 1.2 2.5 3.9 4.0 4.4 3.5 2.7 1.1 3.0 3.0 2.7 3.3 2.4
1.2 1.7 1.6 1.7 1.9 3.0 3.2 2.9 2.2 1.5 1.3 1.4 1.8 1.4 1.3 0.9 0.7 0.8 0.6 0.5 0.5 1.0 0.6 0.5 0.7 0.6 0.6 0.9 0.9 1.5 1.3 1.5 2.6 3.7 5.1 4.8 3.4 2.3 3.0 3.5 3.1 4.0 2.3

GFSGL_prec_kuchsnow_135.txt.gz
Snowfall_Accumulation
0.0 0.0 0.0 0.0 0.0 0.0 0.0 0.0 0.0 0.0 0.0 0.0 0.0 0.0 0.0 0.0 0.0 0.0 0.0 0.0 0.0 0.0 0.0 0.0 0.0 0.0 0.0 0.0 0.0 0.0 0.0 0.0 0.1 0.0 0.0 0.0 0.0 0.0 0.0 0.0 0.0 0.0 0.0
0.0 0.0 0.0 0.0 0.0 0.0 0.0 0.0 0.0 0.0 0.0 0.0 0.0 0.0 0.0 0.0 0.0 0.0 0.0 0.0 0.0 0.0 0.0 0.0 0.0 0.0 0.0 0.0 0.0 0.0 0.0 0.0 0.0 0.0 0.0 0.0 0.0 0.0 0.0 0.0 0.0 0.0 0.0
0.0 0.0 0.0 0.0 0.0 0.0 0.0 0.0 0.0 0.0 0.0 0.0 0.0 0.0 0.0 0.0 0.0 0.0 0.0 0.0 0.0 0.0 0.0 0.0 0.0 0.0 0.0 0.0 0.0 0.0 0.0 0.0 0.0 0.2 0.1 0.0 0.0 0.0 0.0 0.0 0.0 0.0 0.0
0.0 0.0 0.0 0.0 0.0 0.0 0.0 0.0 0.0 0.0 0.0 0.0 0.0 0.0 0.0 0.0 0.0 0.0 0.0 0.0 0.0 0.0 0.0 0.0 0.0 0.0 0.0 0.0 0.0 0.0 0.0 0.0 0.0 0.1 0.1 0.1 0.0 0.0 0.0 0.1 0.0 0.0 0.0
0.0 0.0 0.0 0.0 0.0 0.0 0.0 0.0 0.0 0.0 0.0 0.0 0.0 0.0 0.0 0.0 0.0 0.0 0.0 0.0 0.0 0.0 0.0 0.0 0.0 0.0 0.0 0.0 0.0 0.0 0.0 0.1 0.3 0.4 0.3 0.2 0.1 0.0 0.1 0.3 0.1 0.0 0.0
0.0 0.0 0.0 0.0 0.0 0.0 0.0 0.0 0.0 0.0 0.0 0.0 0.0 0.0 0.0 0.0 0.0 0.0 0.0 0.0 0.0 0.0 0.0 0.0 0.0 0.0 0.0 0.0 0.0 0.0 0.1 0.5 1.0 0.8 0.6 0.6 0.2 0.3 0.3 0.3 0.3 0.6 0.7
0.0 0.0 0.0 0.0 0.0 0.0 0.0 0.0 0.0 0.0 0.0 0.1 0.0 0.0 0.0 0.0 0.0 0.0 0.0 0.0 0.0 0.0 0.0 0.0 0.0 0.0 0.0 0.0 0.0 0.0 0.1 0.0 0.6 1.4 2.2 1.2 0.7 0.3 0.7 1.6 1.3 1.6 1.4
0.0 0.0 0.0 0.0 0.0 0.0 0.0 0.0 0.0 0.0 0.0 0.0 0.0 0.0 0.0 0.0 0.0 0.0 0.0 0.0 0.0 0.0 0.0 0.0 0.0 0.0 0.0 0.1 0.7 0.8 0.2 0.1 0.1 0.8 0.7 1.0 1.2 0.7 0.3 0.4 1.3 1.2 0.3
0.0 0.0 0.0 0.0 0.0 0.0 0.0 0.0 0.0 0.0 0.0 0.0 0.0 0.0 0.0 0.0 0.0 0.0 0.0 0.0 0.0 0.0 0.0 0.0 0.0 0.1 0.2 0.6 1.4 1.8 0.7 0.2 0.5 0.1 0.3 0.3 0.2 0.1 0.2 2.1 3.2 4.1 3.3
0.0 0.0 0.0 0.0 0.0 0.0 0.0 0.0 0.0 0.0 0.0 0.0 0.0 0.0 0.0 0.0 0.0 0.0 0.0 0.1 0.2 0.1 0.1 0.0 0.1 0.1 1.2 1.3 3.2 2.5 2.5 0.5 0.1 0.6 0.3 0.2 0.2 1.2 1.2 2.5 3.8 7.6 5.4
2.7 2.0 0.0 0.0 0.0 0.0 0.0 0.0 0.0 0.0 0.0 0.0 0.0 0.0 0.0 0.0 0.1 0.0 0.0 0.1 0.7 0.7 0.3 0.2 0.2 2.2 1.7 1.2 1.2 2.3 2.6 2.0 1.6 3.7 3.3 2.5 3.9 3.9 3.7 4.2 3.9 6.1 8.6
6.7 7.4 2.9 0.0 1.3 0.0 0.0 0.0 0.0 0.0 0.0 0.0 0.1 0.1 0.0 0.1 0.1 0.1 0.1 0.0 0.3 1.9 1.2 1.3 2.3 0.8 1.2 0.5 1.0 3.3 4.1 5.2 7.0 9.9 10.4 10.0 11.5 10.4 8.3 6.9 6.0 5.5 4.3
6.8 8.9 5.0 6.2 2.1 2.0 0.1 0.1 0.0 0.0 0.0 0.0 0.0 0.1 0.0 0.0 0.1 0.2 0.1 0.2 0.2 1.2 2.3 3.4 2.6 4.5 3.6 6.2 7.7 13.6 13.1 17.1 20.0 20.8 19.3 17.3 13.8 9.9 6.2 5.0 3.4 2.1 1.6
5.4 6.4 8.8 6.5 8.3 8.5 3.5 4.9 2.0 1.9 0.6 0.6 0.1 0.1 0.1 0.1 0.1 0.1 1.4 1.3 2.4 3.4 8.5 14.8 16.5 24.5 23.3 26.1 26.3 25.5 24.4 22.4 19.5 16.9 12.8 9.2 6.6 5.3 5.5 4.4 6.0 4.1 4.2
2.3 2.5 3.8 6.2 8.1 9.3 13.3 15.9 16.5 16.8 6.1 7.0 7.4 4.2 4.9 3.5 4.2 12.6 15.5 10.1 18.7 15.5 14.9 23.3 23.3 21.5 19.7 17.5 14.6 11.6 9.3 6.9 6.2 4.6 4.5 3.5 2.3 3.0 3.1 2.2 3.0 3.2 4.9
1.0 1.4 2.4 3.0 4.8 6.9 9.8 12.7 13.7 18.1 18.0 22.1 17.9 23.7 26.4 21.6 22.1 18.0 18.9 19.8 17.7 16.9 16.7 15.1 12.4 10.4 8.2 5.6 6.1 2.5 1.9 2.7 1.7 3.6 3.5 2.3 2.9 3.4 4.3 3.1 3.6 4.4 4.5
0.5 0.4 2.2 3.0 3.8 6.0 6.5 8.7 12.1 23.2 26.3 30.3 30.2 29.5 29.6 31.2 27.9 29.8 30.1 27.8 25.3 19.1 21.4 16.9 15.8 11.7 10.0 7.6 6.5 4.5 5.1 3.7 4.1 6.0 6.1 6.9 6.2 5.7 5.9 5.9 5.7 3.8 3.3
0.1 3.5 8.6 13.2 15.6 16.5 17.2 20.9 22.1 23.6 23.8 26.2 25.2 23.5 21.7 21.4 20.9 21.2 22.1 20.1 24.9 23.3 22.7 21.5 21.3 20.2 19.0 17.2 13.2 12.4 10.8 7.5 6.6 6.4 5.7 5.2 5.7 5.3 5.0 4.8 5.8 6.4 5.3
6.6 8.8 10.4 10.5 9.9 8.5 8.1 9.9 10.8 11.4 13.4 14.5 13.6 12.0 12.6 11.5 10.0 9.7 8.8 11.0 15.1 16.9 19.0 17.8 18.9 18.2 17.7 17.1 17.0 16.5 16.1 14.9 12.8 12.2 11.0 10.2 9.9 9.1 7.5 6.8 6.1 4.9 4.0
8.0 8.2 6.9 6.8 7.3 6.7 5.7 5.0 5.2 4.4 4.6 4.9 6.2 7.9 6.2 4.0 3.5 4.6 5.6 8.1 9.2 9.9 11.9 12.7 13.4 13.0 12.8 12.2 12.1 12.4 12.1 11.7 11.4 11.2 10.4 9.6 8.3 8.2 8.2 7.4 6.7 6.2 4.1
9.0 8.5 6.1 5.0 4.3 3.7 2.9 2.6 2.3 2.6 2.5 1.7 2.0 1.2 1.4 2.5 3.8 4.5 5.1 5.7 6.1 6.7 7.8 8.3 8.7 8.6 8.5 8.2 7.3 7.0 6.8 7.1 6.8 6.6 6.8 6.3 5.9 6.7 4.8 5.3 4.8 4.0 2.7
5.3 4.4 3.4 3.4 2.3 2.0 1.5 1.1 1.0 1.4 1.0 1.4 1.9 0.9 2.6 3.0 2.7 2.7 2.6 3.2 3.1 3.2 4.3 5.4 6.1 6.1 6.0 6.7 6.5 6.1 5.2 4.7 4.8 4.8 4.2 3.7 3.7 3.7 4.0 3.5 3.0 3.5 2.5
3.2 2.9 2.1 1.9 1.6 0.9 1.2 0.5 1.7 1.7 1.8 1.4 1.4 2.1 1.4 2.0 2.0 1.8 1.8 2.0 1.4 1.1 0.9 2.8 2.7 2.3 2.4 3.6 4.4 5.3 5.4 4.1 3.6 3.7 4.5 3.3 2.9 2.8 3.1 3.3 2.8 3.6 2.9
1.4 1.6 1.4 0.8 1.1 0.5 1.2 1.3 1.5 3.0 3.9 2.9 1.9 1.5 2.0 2.2 2.1 2.2 1.4 0.5 0.3 0.5 0.8 1.3 1.8 1.9 1.1 0.9 2.3 2.7 2.9 3.1 3.6 4.0 5.6 4.7 2.9 2.3 3.3 3.2 2.9 2.9 2.8
1.0 1.2 1.5 1.4 2.0 2.7 3.3 3.6 2.8 1.4 2.3 2.5 2.0 1.6 1.0 1.3 1.1 1.8 1.5 1.0 0.6 1.1 1.3 1.0 0.6 0.8 0.7 0.9 1.4 1.4 1.2 2.5 3.9 4.1 4.5 3.7 2.9 1.3 3.2 3.2 2.8 3.4 2.4
1.2 1.7 1.6 1.7 1.9 3.0 3.2 3.0 2.3 1.5 1.4 1.5 1.9 1.5 1.4 0.9 0.7 0.8 0.6 0.5 0.5 1.0 0.6 0.5 0.7 0.6 0.6 0.9 0.9 1.5 1.3 1.5 2.6 3.7 5.1 4.8 3.4 2.3 3.0 3.5 3.1 4.0 2.3

GFSGL_prec_kuchsnow_138.txt.gz
Snowfall_Accumulation
0.0 0.0 0.0 0.0 0.0 0.0 0.0 0.0 0.0 0.0 0.0 0.0 0.0 0.0 0.0 0.0 0.0 0.0 0.0 0.0 0.0 0.0 0.0 0.0 0.0 0.0 0.0 0.0 0.0 0.0 0.0 0.0 0.1 0.0 0.0 0.0 0.0 0.0 0.0 0.0 0.0 0.0 0.0
0.0 0.0 0.0 0.0 0.0 0.0 0.0 0.0 0.0 0.0 0.0 0.0 0.0 0.0 0.0 0.0 0.0 0.0 0.0 0.0 0.0 0.0 0.0 0.0 0.0 0.0 0.0 0.0 0.0 0.0 0.0 0.0 0.0 0.0 0.0 0.0 0.0 0.0 0.0 0.0 0.0 0.0 0.0
0.4 0.0 0.0 0.0 0.0 0.0 0.0 0.0 0.0 0.0 0.0 0.0 0.0 0.0 0.0 0.0 0.0 0.0 0.0 0.0 0.0 0.0 0.0 0.0 0.0 0.0 0.0 0.0 0.0 0.0 0.0 0.0 0.0 0.2 0.1 0.0 0.0 0.0 0.0 0.0 0.0 0.0 0.0
0.8 0.4 0.0 0.0 0.0 0.0 0.0 0.0 0.0 0.0 0.0 0.0 0.0 0.0 0.0 0.0 0.0 0.0 0.0 0.0 0.0 0.0 0.0 0.0 0.0 0.0 0.0 0.0 0.0 0.0 0.0 0.0 0.0 0.1 0.1 0.1 0.0 0.0 0.0 0.1 0.0 0.0 0.0
1.5 0.9 0.8 0.0 0.0 0.0 0.0 0.0 0.0 0.0 0.0 0.0 0.0 0.0 0.0 0.0 0.0 0.0 0.0 0.0 0.0 0.0 0.0 0.0 0.0 0.0 0.0 0.0 0.0 0.0 0.0 0.1 0.3 0.4 0.3 0.2 0.1 0.0 0.1 0.3 0.1 0.0 0.0
0.6 0.5 0.8 0.0 0.0 0.0 0.0 0.0 0.0 0.0 0.0 0.0 0.0 0.0 0.0 0.0 0.0 0.0 0.0 0.0 0.0 0.0 0.0 0.0 0.0 0.0 0.0 0.0 0.0 0.0 0.1 0.5 1.0 0.8 0.6 0.6 0.2 0.3 0.3 0.3 0.3 0.6 0.7
0.1 0.1 0.0 0.0 0.0 0.0 0.0 0.0 0.0 0.0 0.0 0.1 0.0 0.0 0.0 0.0 0.0 0.0 0.0 0.0 0.0 0.0 0.0 0.0 0.0 0.0 0.0 0.0 0.0 0.0 0.1 0.0 0.6 1.4 2.2 1.2 0.7 0.3 0.7 1.6 1.3 1.6 1.4
0.0 0.0 0.0 0.1 0.0 0.0 0.0 0.0 0.0 0.0 0.0 0.0 0.0 0.0 0.0 0.0 0.0 0.0 0.0 0.0 0.0 0.0 0.0 0.0 0.0 0.0 0.0 0.1 0.7 0.8 0.2 0.1 0.1 0.8 0.7 1.0 1.2 0.7 0.3 0.4 1.3 1.2 0.3
0.0 0.0 0.0 0.0 0.0 0.0 0.0 0.0 0.0 0.0 0.0 0.0 0.0 0.0 0.0 0.0 0.0 0.0 0.0 0.0 0.0 0.0 0.0 0.0 0.0 0.1 0.2 0.6 1.4 1.8 0.7 0.2 0.5 0.1 0.3 0.3 0.2 0.1 0.2 2.1 3.2 4.1 3.3
0.0 0.0 0.0 0.0 0.0 0.0 0.0 0.0 0.0 0.0 0.0 0.0 0.0 0.0 0.0 0.0 0.0 0.0 0.0 0.1 0.2 0.1 0.1 0.0 0.1 0.1 1.2 1.3 3.2 2.5 2.5 0.5 0.1 0.6 0.3 0.2 0.2 1.2 1.2 2.5 3.8 7.6 5.4
2.7 2.0 0.0 0.0 0.0 0.0 0.0 0.0 0.0 0.0 0.0 0.0 0.0 0.0 0.0 0.0 0.1 0.0 0.0 0.1 0.7 0.7 0.3 0.2 0.2 2.2 1.7 1.2 1.2 2.3 2.6 2.0 1.6 3.7 3.3 2.5 3.9 3.9 3.7 4.2 3.9 6.1 8.6
6.7 7.4 2.9 0.0 1.3 0.0 0.0 0.0 0.0 0.0 0.0 0.0 0.1 0.1 0.0 0.1 0.1 0.1 0.1 0.0 0.3 1.9 1.2 1.3 2.3 0.8 1.2 0.5 1.0 3.3 4.1 5.2 7.0 9.9 10.4 10.0 11.5 10.4 8.3 6.9 6.0 5.5 4.3
6.8 8.9 5.0 6.2 2.1 2.0 0.1 0.1 0.0 0.0 0.0 0.0 0.0 0.1 0.0 0.0 0.1 0.2 0.1 0.2 0.2 1.2 2.3 3.4 2.6 4.5 3.6 6.2 7.7 13.6 13.1 17.1 20.0 20.8 19.3 17.3 13.8 9.9 6.2 5.0 3.4 2.1 1.6
5.4 6.4 8.8 6.5 8.3 8.5 3.5 4.9 2.0 1.9 0.6 0.6 0.1 0.2 0.1 0.1 0.1 0.1 1.4 1.3 2.4 3.4 8.5 14.8 16.5 24.5 23.3 26.1 26.3 25.5 24.4 22.4 19.5 16.9 12.8 9.2 6.6 5.3 5.5 4.4 6.0 4.1 4.2
2.3 2.5 3.8 6.2 8.1 9.3 13.3 16.0 16.5 16.9 6.3 7.3 7.8 4.5 5.3 3.9 4.5 12.6 15.6 10.1 18.7 15.5 14.9 23.3 23.3 21.5 19.7 17.5 14.6 11.6 9.3 6.9 6.2 4.6 4.5 3.5 2.3 3.0 3.1 2.2 3.0 3.2 4.9
1.0 1.4 2.5 3.0 4.8 6.9 9.8 12.7 13.8 18.1 18.0 22.1 17.9 23.8 26.6 21.8 22.1 18.0 18.9 19.8 17.7 16.9 16.7 15.1 12.4 10.4 8.3 5.8 6.1 2.5 1.9 2.7 1.7 3.6 3.5 2.3 2.9 3.4 4.3 3.1 3.6 4.4 4.5
0.5 0.4 2.2 3.0 3.9 6.0 6.5 8.7 12.1 23.2 26.3 30.3 30.2 29.5 29.6 31.2 27.9 29.8 30.1 27.8 25.3 19.1 21.4 16.9 15.9 11.9 10.3 8.3 7.5 5.5 6.3 4.7 4.9 6.0 6.1 6.9 6.2 5.7 5.9 5.9 5.7 3.8 3.3
0.1 3.5 8.7 13.2 15.6 16.5 17.2 20.9 22.1 23.6 23.8 26.2 25.2 23.5 21.7 21.4 20.9 21.2 22.1 20.1 24.9 23.3 22.7 21.6 21.5 20.6 19.7 18.3 14.7 14.3 13.1 10.2 9.6 9.1 7.8 7.2 8.0 7.4 7.5 4.8 8.1 6.4 5.3
6.6 8.8 10.4 10.5 9.9 8.5 8.1 9.9 10.8 11.4 13.4 14.5 13.6 12.0 12.6 11.5 10.0 9.7 8.8 11.0 15.1 16.9 19.1 18.0 19.2 18.8 18.7 18.5 18.8 18.6 18.8 18.4 16.6 16.2 15.5 14.7 14.3 13.0 11.4 10.5 9.6 7.7 6.1
8.0 8.2 6.9 6.8 7.3 6.7 5.7 5.0 5.2 4.4 4.6 4.9 6.2 7.9 6.2 4.0 3.5 4.6 5.6 8.1 9.2 9.9 12.0 12.9 13.8 13.0 12.8 13.8 14.2 14.5 14.3 14.2 14.6 14.9 14.4 13.9 12.9 12.7 12.7 11.7 11.0 10.7 8.4
9.0 8.5 6.1 5.0 4.3 3.7 2.9 2.6 2.3 2.6 2.5 1.7 2.0 1.2 1.4 2.5 3.8 4.5 5.1 5.8 6.2 6.7 8.0 8.6 9.1 8.6 8.5 9.6 9.0 9.1 9.1 9.4 9.2 9.4 10.0 9.6 9.3 10.2 8.3 8.8 8.2 7.2 5.7
5.3 4.4 3.4 3.4 2.3 2.0 1.5 1.2 1.0 1.4 1.0 1.4 1.9 0.9 2.6 3.0 2.7 2.7 2.6 3.2 3.1 3.2 4.3 5.4 6.1 6.1 6.7 7.7 7.9 7.8 7.1 6.8 6.9 7.1 6.7 6.4 6.6 6.4 6.7 6.2 5.7 6.1 4.9
3.2 2.9 2.1 1.9 1.6 0.9 1.2 0.5 1.7 1.7 1.8 1.4 1.4 2.1 1.4 2.0 2.0 1.8 1.8 2.0 1.4 1.1 0.9 2.8 2.7 2.3 2.4 3.6 4.4 6.5 6.9 5.9 5.3 5.2 6.0 4.9 4.8 5.0 5.3 5.5 4.7 5.4 4.4
1.4 1.6 1.4 0.8 1.1 0.5 1.2 1.4 1.5 3.0 3.9 2.9 1.9 1.5 2.0 2.2 2.1 2.2 1.4 0.5 0.3 0.5 0.8 1.3 1.8 1.9 1.1 0.9 2.3 2.7 2.9 3.1 4.4 4.7 6.3 5.5 3.8 3.2 4.3 4.3 4.1 4.0 3.8
1.0 1.2 1.5 1.4 2.0 2.7 3.3 3.6 2.9 1.4 2.3 2.5 2.0 1.7 1.0 1.3 1.1 1.8 1.5 1.0 0.6 1.1 1.3 1.0 0.6 0.8 0.7 0.9 1.4 1.4 1.2 2.5 3.9 4.1 4.8 4.0 3.3 1.8 3.7 3.8 3.3 3.8 2.9
1.2 1.7 1.6 1.7 1.9 3.0 3.2 3.0 2.3 1.5 1.4 1.5 1.9 1.5 1.5 0.9 0.7 0.8 0.6 0.5 0.5 1.0 0.6 0.5 0.7 0.6 0.6 0.9 0.9 1.5 1.3 1.5 2.6 3.7 5.1 4.8 3.5 2.3 3.1 3.6 3.3 4.1 2.4

GFSGL_prec_kuchsnow_141.txt.gz
Snowfall_Accumulation
0.2 0.0 0.0 0.0 0.0 0.0 0.0 0.0 0.0 0.0 0.0 0.0 0.0 0.0 0.0 0.0 0.0 0.0 0.0 0.0 0.0 0.0 0.0 0.0 0.0 0.0 0.0 0.0 0.0 0.0 0.0 0.0 0.1 0.0 0.0 0.0 0.0 0.0 0.0 0.0 0.0 0.0 0.0
1.3 0.9 0.7 0.5 0.0 0.0 0.0 0.0 0.0 0.0 0.0 0.0 0.0 0.0 0.0 0.0 0.0 0.0 0.0 0.0 0.0 0.0 0.0 0.0 0.0 0.0 0.0 0.0 0.0 0.0 0.0 0.0 0.0 0.0 0.0 0.0 0.0 0.0 0.0 0.0 0.0 0.0 0.0
2.7 2.0 1.2 0.5 0.0 0.0 0.0 0.0 0.0 0.0 0.0 0.0 0.0 0.0 0.0 0.0 0.0 0.0 0.0 0.0 0.0 0.0 0.0 0.0 0.0 0.0 0.0 0.0 0.0 0.0 0.0 0.0 0.0 0.2 0.1 0.0 0.0 0.0 0.0 0.0 0.0 0.0 0.0
3.6 3.4 2.2 1.7 0.3 0.0 0.0 0.0 0.0 0.0 0.0 0.0 0.0 0.0 0.0 0.0 0.0 0.0 0.0 0.0 0.0 0.0 0.0 0.0 0.0 0.0 0.0 0.0 0.0 0.0 0.0 0.0 0.0 0.1 0.1 0.1 0.0 0.0 0.0 0.1 0.0 0.0 0.0
3.9 2.8 2.2 1.6 1.6 0.3 0.0 0.0 0.0 0.0 0.0 0.0 0.0 0.0 0.0 0.0 0.0 0.0 0.0 0.0 0.0 0.0 0.0 0.0 0.0 0.0 0.0 0.0 0.0 0.0 0.0 0.1 0.3 0.4 0.3 0.2 0.1 0.0 0.1 0.3 0.1 0.0 0.0
0.8 0.9 1.3 0.4 0.4 0.7 0.0 0.0 0.0 0.0 0.0 0.0 0.0 0.0 0.0 0.0 0.0 0.0 0.0 0.0 0.0 0.0 0.0 0.0 0.0 0.0 0.0 0.0 0.0 0.0 0.1 0.5 1.0 0.8 0.6 0.6 0.2 0.3 0.3 0.3 0.3 0.6 0.7
0.1 0.1 0.1 0.0 0.0 0.0 0.3 0.4 0.0 0.0 0.0 1.9 1.6 1.3 0.0 0.0 0.0 0.0 0.0 0.0 0.0 0.0 0.0 0.0 0.0 0.0 0.0 0.0 0.0 0.0 0.1 0.0 0.6 1.4 2.2 1.2 0.7 0.3 0.7 1.6 1.3 1.6 1.4
0.0 0.0 0.0 0.1 0.0 0.0 0.0 0.0 0.0 0.0 0.0 0.0 0.3 0.0 0.7 0.0 0.0 0.0 0.0 0.0 0.0 0.0 0.0 0.0 0.0 0.0 0.0 0.1 0.7 0.8 0.2 0.1 0.1 0.8 0.7 1.0 1.2 0.7 0.3 0.4 1.3 1.2 0.3
0.1 0.1 0.0 0.0 0.0 0.0 0.0 0.0 0.0 0.0 0.0 0.0 0.0 0.0 0.0 0.0 0.0 0.0 0.0 0.0 0.0 0.0 0.0 0.0 0.0 0.1 0.2 0.6 1.4 1.8 0.7 0.2 0.5 0.1 0.3 0.3 0.2 0.1 0.2 2.1 3.2 4.1 3.3
0.1 0.1 0.0 0.0 0.0 0.0 0.0 0.0 0.0 0.0 0.0 0.0 0.0 0.0 0.0 0.0 0.0 0.0 0.0 0.1 0.2 0.1 0.1 0.0 0.1 0.1 1.2 1.3 3.2 2.5 2.5 0.5 0.1 0.6 0.3 0.2 0.2 1.2 1.2 2.5 3.8 7.6 5.4
2.7 2.0 0.0 0.0 0.0 0.0 0.0 0.0 0.0 0.0 0.0 0.0 0.0 0.0 0.0 0.0 0.1 0.0 0.0 0.1 0.7 0.7 0.3 0.2 0.2 2.2 1.7 1.2 1.2 2.3 2.6 2.0 1.6 3.7 3.3 2.5 3.9 3.9 3.7 4.2 3.9 6.1 8.6
6.7 7.4 2.9 0.0 1.3 0.1 0.0 0.0 0.0 0.0 0.0 0.0 0.1 0.1 0.0 0.1 0.1 0.1 0.1 0.0 0.3 1.9 1.2 1.3 2.3 0.8 1.2 0.5 1.0 3.3 4.1 5.2 7.0 9.9 10.4 10.0 11.5 10.4 8.3 6.9 6.0 5.5 4.3
6.8 8.9 5.0 6.2 2.1 2.0 0.1 0.1 0.0 0.0 0.0 0.0 0.0 0.1 0.0 0.0 0.1 0.2 0.1 0.2 0.2 1.2 2.3 3.4 2.6 4.5 3.6 6.2 7.7 13.6 13.1 17.1 20.0 20.8 19.3 17.3 13.8 9.9 6.2 5.0 3.4 2.1 1.6
5.4 6.4 8.8 6.5 8.3 8.5 3.6 4.9 2.0 1.9 0.6 0.6 0.2 0.3 0.1 0.1 0.2 0.1 1.4 1.3 2.4 3.4 8.5 14.8 16.5 24.5 23.3 26.1 26.3 25.5 24.4 22.4 19.5 16.9 12.8 9.2 6.6 5.3 5.5 4.4 6.0 4.1 4.2
2.3 2.5 3.8 6.2 8.1 9.3 13.3 16.3 16.5 16.9 6.3 7.3 8.0 4.7 5.6 4.3 4.8 12.6 15.6 10.1 18.7 15.5 14.9 23.3 23.3 21.5 19.7 17.5 14.6 11.6 9.3 6.9 6.2 4.6 4.5 3.5 2.3 3.0 3.1 2.2 3.0 3.2 4.9
1.0 1.4 2.5 3.0 4.8 6.9 9.8 12.7 13.8 18.3 18.0 22.1 17.9 23.8 26.6 22.0 22.1 18.0 18.9 19.8 17.7 16.9 16.7 15.1 12.4 10.4 8.3 5.8 6.1 2.5 1.9 2.7 1.7 3.6 3.5 2.3 2.9 3.4 4.3 3.1 3.6 4.4 4.5
0.5 0.4 2.2 3.0 3.9 6.0 6.5 8.7 12.1 23.2 26.3 30.3 30.2 29.5 29.6 31.2 27.9 29.8 30.1 27.8 25.3 19.1 21.4 16.9 16.0 12.0 10.4 8.3 7.6 5.6 6.4 4.8 4.9 6.0 6.1 7.1 6.5 5.7 5.9 5.9 5.7 3.8 3.3
0.1 3.5 8.7 13.2 15.6 16.5 17.2 20.9 22.1 23.6 23.8 26.2 25.2 23.5 21.7 21.4 20.9 21.2 22.1 20.1 24.9 23.3 22.7 21.7 21.6 20.7 19.7 18.5 14.8 14.4 13.3 10.3 9.8 9.4 7.8 7.2 8.0 8.3 7.5 6.5 9.6 7.9 6.9
6.6 8.8 10.4 10.5 9.9 8.5 8.1 9.9 10.8 11.4 13.4 14.5 13.6 12.0 12.6 11.5 10.0 9.7 8.8 11.0 15.1 17.0 19.2 18.0 19.3 18.8 18.8 18.6 18.9 18.6 18.8 18.6 17.0 16.8 15.5 16.0 15.7 14.6 13.1 12.6 12.1 10.6 9.3
8.0 8.2 6.9 6.8 7.3 6.7 5.7 5.0 5.2 4.4 4.6 4.9 6.2 7.9 6.2 4.0 3.5 4.6 5.6 8.1 9.2 9.9 12.0 12.9 13.8 13.0 12.9 13.9 14.3 14.5 14.3 14.5 15.1 15.7 15.6 13.9 15.1 15.3 15.7 14.8 14.0 14.1 12.5
9.0 8.5 6.1 5.0 4.3 3.7 2.9 2.6 2.3 2.6 2.5 1.7 2.0 1.2 1.4 2.5 3.8 4.5 5.1 5.9 6.2 6.8 8.1 8.6 9.1 8.6 8.5 9.6 9.0 9.1 9.1 9.4 9.2 10.3 11.2 11.2 11.4 12.8 11.2 12.0 11.6 10.5 8.9
5.3 4.4 3.4 3.4 2.3 2.0 1.5 1.2 1.0 1.4 1.0 1.4 1.9 0.9 2.6 3.0 2.7 2.7 2.6 3.2 3.1 3.2 4.3 5.4 6.1 6.1 6.7 7.8 8.0 8.0 7.3 7.1 6.9 7.8 7.7 7.8 8.4 8.6 9.2 8.7 8.3 8.8 7.8
3.2 2.9 2.1 1.9 1.6 0.9 1.2 0.5 1.7 1.7 1.8 1.4 1.4 2.1 1.4 2.0 2.0 1.8 1.8 2.0 1.4 1.1 0.9 2.8 2.7 2.3 2.4 3.6 4.4 6.7 7.1 6.4 6.0 6.1 6.9 6.0 6.0 6.6 7.3 7.6 7.0 7.7 6.8
1.4 1.6 1.4 0.8 1.1 0.5 1.2 1.4 1.5 3.0 3.9 2.9 1.9 1.5 2.0 2.2 2.1 2.2 1.4 0.5 0.3 0.5 0.8 1.3 1.8 1.9 1.1 0.9 2.3 2.7 2.9 3.1 4.4 4.7 7.0 6.2 4.6 4.2 5.5 5.7 5.7 5.8 5.7
1.0 1.2 1.5 1.4 2.0 2.7 3.3 3.6 2.9 1.4 2.3 2.5 2.0 1.7 1.0 1.3 1.1 1.8 1.5 1.0 0.6 1.1 1.3 1.0 0.6 0.8 0.7 0.9 1.4 1.4 1.2 2.5 3.9 4.1 4.8 4.0 3.9 2.6 4.6 4.8 4.3 4.9 4.1
1.2 1.7 1.6 1.7 1.9 3.0 3.2 3.0 2.3 1.5 1.4 1.5 1.9 1.5 1.5 0.9 0.7 0.8 0.6 0.5 0.5 1.0 0.6 0.5 0.7 0.6 0.6 0.9 0.9 1.5 1.3 1.5 2.6 3.7 5.1 4.8 3.5 2.3 3.3 4.1 3.9 4.9 3.3